<?xml version="1.0" encoding="UTF-8" standalone="no" ?>
<gpx xmlns="http://www.topografix.com/GPX/1/1" xmlns:xsi="http://www.w3.org/2001/XMLSchema-instance" xsi:schemaLocation="http://www.topografix.com/GPX/1/1 http://www.topografix.com/GPX/1/1/gpx.xsd" version="1.1" creator="VisuGPX - https://www.visugpx.com">
  <metadata>
    <name>Brétignolles-sur-Mer_St-Gilles-Croix-de-Vie (Retour)</name>
    <desc><![CDATA[Retour par les terres de St-Gilles-Croix-de-Vie à Brétignolles-sur-Mer]]></desc>
  </metadata>
  <trk>
    <name><![CDATA[2024-07-03 17:21:25]]></name>
    <trkseg>
      <trkpt lat="46.69565" lon="-1.94563">
        <ele>7.9</ele>
        <time>2024-07-03T10:50:00Z</time>
      </trkpt>
      <trkpt lat="46.69565" lon="-1.94564">
        <ele>7.99</ele>
        <time>2024-07-03T10:50:01Z</time>
      </trkpt>
      <trkpt lat="46.69568" lon="-1.94568">
        <ele>8.1</ele>
        <time>2024-07-03T10:51:15Z</time>
      </trkpt>
      <trkpt lat="46.69568" lon="-1.94568">
        <ele>7.57</ele>
        <time>2024-07-03T10:52:16Z</time>
      </trkpt>
      <trkpt lat="46.69568" lon="-1.94568">
        <ele>7.8</ele>
        <time>2024-07-03T10:53:52Z</time>
      </trkpt>
      <trkpt lat="46.69566" lon="-1.9457">
        <ele>8.03</ele>
        <time>2024-07-03T10:54:49Z</time>
      </trkpt>
      <trkpt lat="46.69566" lon="-1.94567">
        <ele>8.13</ele>
        <time>2024-07-03T10:55:10Z</time>
      </trkpt>
      <trkpt lat="46.69565" lon="-1.94565">
        <ele>8.26</ele>
        <time>2024-07-03T10:55:26Z</time>
      </trkpt>
      <trkpt lat="46.69563" lon="-1.94558">
        <ele>8.26</ele>
        <time>2024-07-03T10:55:34Z</time>
      </trkpt>
      <trkpt lat="46.69543" lon="-1.94526">
        <ele>8.29</ele>
        <time>2024-07-03T10:55:49Z</time>
      </trkpt>
      <trkpt lat="46.69522" lon="-1.94485">
        <ele>8.18</ele>
        <time>2024-07-03T10:56:03Z</time>
      </trkpt>
      <trkpt lat="46.695" lon="-1.94438">
        <ele>8.11</ele>
        <time>2024-07-03T10:56:17Z</time>
      </trkpt>
      <trkpt lat="46.69462" lon="-1.94372">
        <ele>8.22</ele>
        <time>2024-07-03T10:56:36Z</time>
      </trkpt>
      <trkpt lat="46.69424" lon="-1.94329">
        <ele>8.43</ele>
        <time>2024-07-03T10:56:51Z</time>
      </trkpt>
      <trkpt lat="46.69389" lon="-1.94282">
        <ele>8.16</ele>
        <time>2024-07-03T10:57:06Z</time>
      </trkpt>
      <trkpt lat="46.69362" lon="-1.94239">
        <ele>8.2</ele>
        <time>2024-07-03T10:57:19Z</time>
      </trkpt>
      <trkpt lat="46.69333" lon="-1.94186">
        <ele>8.38</ele>
        <time>2024-07-03T10:57:34Z</time>
      </trkpt>
      <trkpt lat="46.693" lon="-1.9413">
        <ele>8.67</ele>
        <time>2024-07-03T10:57:52Z</time>
      </trkpt>
      <trkpt lat="46.6927" lon="-1.94073">
        <ele>8.41</ele>
        <time>2024-07-03T10:58:08Z</time>
      </trkpt>
      <trkpt lat="46.69253" lon="-1.94018">
        <ele>8.36</ele>
        <time>2024-07-03T10:58:22Z</time>
      </trkpt>
      <trkpt lat="46.69236" lon="-1.93962">
        <ele>8.48</ele>
        <time>2024-07-03T10:58:36Z</time>
      </trkpt>
      <trkpt lat="46.6922" lon="-1.93909">
        <ele>8.67</ele>
        <time>2024-07-03T10:58:49Z</time>
      </trkpt>
      <trkpt lat="46.69208" lon="-1.93848">
        <ele>8.41</ele>
        <time>2024-07-03T10:59:05Z</time>
      </trkpt>
      <trkpt lat="46.69211" lon="-1.93817">
        <ele>8.3</ele>
        <time>2024-07-03T10:59:16Z</time>
      </trkpt>
      <trkpt lat="46.6921" lon="-1.93815">
        <ele>8.28</ele>
        <time>2024-07-03T10:59:17Z</time>
      </trkpt>
      <trkpt lat="46.6921" lon="-1.93813">
        <ele>8.27</ele>
        <time>2024-07-03T10:59:18Z</time>
      </trkpt>
      <trkpt lat="46.69209" lon="-1.93811">
        <ele>8.24</ele>
        <time>2024-07-03T10:59:19Z</time>
      </trkpt>
      <trkpt lat="46.69209" lon="-1.93809">
        <ele>8.22</ele>
        <time>2024-07-03T10:59:20Z</time>
      </trkpt>
      <trkpt lat="46.69209" lon="-1.93807">
        <ele>8.19</ele>
        <time>2024-07-03T10:59:21Z</time>
      </trkpt>
      <trkpt lat="46.69207" lon="-1.93801">
        <ele>8.04</ele>
        <time>2024-07-03T10:59:35Z</time>
      </trkpt>
      <trkpt lat="46.69208" lon="-1.93798">
        <ele>7.62</ele>
        <time>2024-07-03T11:00:13Z</time>
      </trkpt>
      <trkpt lat="46.69208" lon="-1.93797">
        <ele>7.6</ele>
        <time>2024-07-03T11:00:14Z</time>
      </trkpt>
      <trkpt lat="46.69208" lon="-1.93794">
        <ele>7.59</ele>
        <time>2024-07-03T11:00:15Z</time>
      </trkpt>
      <trkpt lat="46.69208" lon="-1.93792">
        <ele>7.58</ele>
        <time>2024-07-03T11:00:16Z</time>
      </trkpt>
      <trkpt lat="46.69208" lon="-1.93789">
        <ele>7.57</ele>
        <time>2024-07-03T11:00:17Z</time>
      </trkpt>
      <trkpt lat="46.69208" lon="-1.93739">
        <ele>7.54</ele>
        <time>2024-07-03T11:00:32Z</time>
      </trkpt>
      <trkpt lat="46.69211" lon="-1.93686">
        <ele>7.43</ele>
        <time>2024-07-03T11:00:46Z</time>
      </trkpt>
      <trkpt lat="46.69214" lon="-1.9368">
        <ele>7.37</ele>
        <time>2024-07-03T11:00:58Z</time>
      </trkpt>
      <trkpt lat="46.69216" lon="-1.93679">
        <ele>7.63</ele>
        <time>2024-07-03T11:01:12Z</time>
      </trkpt>
      <trkpt lat="46.69217" lon="-1.93677">
        <ele>7.61</ele>
        <time>2024-07-03T11:01:13Z</time>
      </trkpt>
      <trkpt lat="46.69219" lon="-1.93674">
        <ele>7.6</ele>
        <time>2024-07-03T11:01:14Z</time>
      </trkpt>
      <trkpt lat="46.69219" lon="-1.93671">
        <ele>7.55</ele>
        <time>2024-07-03T11:01:15Z</time>
      </trkpt>
      <trkpt lat="46.6922" lon="-1.93668">
        <ele>7.52</ele>
        <time>2024-07-03T11:01:16Z</time>
      </trkpt>
      <trkpt lat="46.69221" lon="-1.93665">
        <ele>7.49</ele>
        <time>2024-07-03T11:01:17Z</time>
      </trkpt>
      <trkpt lat="46.69244" lon="-1.93614">
        <ele>7.17</ele>
        <time>2024-07-03T11:01:32Z</time>
      </trkpt>
      <trkpt lat="46.69267" lon="-1.93566">
        <ele>7.05</ele>
        <time>2024-07-03T11:01:45Z</time>
      </trkpt>
      <trkpt lat="46.69261" lon="-1.93531">
        <ele>7.06</ele>
        <time>2024-07-03T11:01:54Z</time>
      </trkpt>
      <trkpt lat="46.69243" lon="-1.93497">
        <ele>7.54</ele>
        <time>2024-07-03T11:02:04Z</time>
      </trkpt>
      <trkpt lat="46.69243" lon="-1.93461">
        <ele>7.72</ele>
        <time>2024-07-03T11:02:13Z</time>
      </trkpt>
      <trkpt lat="46.69235" lon="-1.93428">
        <ele>7.55</ele>
        <time>2024-07-03T11:02:28Z</time>
      </trkpt>
      <trkpt lat="46.69204" lon="-1.93416">
        <ele>7.41</ele>
        <time>2024-07-03T11:02:39Z</time>
      </trkpt>
      <trkpt lat="46.69175" lon="-1.93389">
        <ele>7.48</ele>
        <time>2024-07-03T11:02:51Z</time>
      </trkpt>
      <trkpt lat="46.6917" lon="-1.9336">
        <ele>7.54</ele>
        <time>2024-07-03T11:03:03Z</time>
      </trkpt>
      <trkpt lat="46.69178" lon="-1.93326">
        <ele>8.25</ele>
        <time>2024-07-03T11:03:16Z</time>
      </trkpt>
      <trkpt lat="46.6918" lon="-1.93323">
        <ele>8.24</ele>
        <time>2024-07-03T11:03:17Z</time>
      </trkpt>
      <trkpt lat="46.69182" lon="-1.93322">
        <ele>8.22</ele>
        <time>2024-07-03T11:03:18Z</time>
      </trkpt>
      <trkpt lat="46.69184" lon="-1.9332">
        <ele>8.2</ele>
        <time>2024-07-03T11:03:19Z</time>
      </trkpt>
      <trkpt lat="46.69186" lon="-1.9332">
        <ele>8.17</ele>
        <time>2024-07-03T11:03:20Z</time>
      </trkpt>
      <trkpt lat="46.69193" lon="-1.93318">
        <ele>8.07</ele>
        <time>2024-07-03T11:03:23Z</time>
      </trkpt>
      <trkpt lat="46.69229" lon="-1.93316">
        <ele>7.49</ele>
        <time>2024-07-03T11:03:36Z</time>
      </trkpt>
      <trkpt lat="46.69274" lon="-1.93321">
        <ele>7.52</ele>
        <time>2024-07-03T11:03:52Z</time>
      </trkpt>
      <trkpt lat="46.69315" lon="-1.9333">
        <ele>7.15</ele>
        <time>2024-07-03T11:04:05Z</time>
      </trkpt>
      <trkpt lat="46.69349" lon="-1.93342">
        <ele>7.32</ele>
        <time>2024-07-03T11:04:17Z</time>
      </trkpt>
      <trkpt lat="46.69356" lon="-1.93348">
        <ele>7.32</ele>
        <time>2024-07-03T11:04:20Z</time>
      </trkpt>
      <trkpt lat="46.69358" lon="-1.93348">
        <ele>7.31</ele>
        <time>2024-07-03T11:04:21Z</time>
      </trkpt>
      <trkpt lat="46.69361" lon="-1.93347">
        <ele>7.31</ele>
        <time>2024-07-03T11:04:22Z</time>
      </trkpt>
      <trkpt lat="46.69364" lon="-1.93344">
        <ele>7.27</ele>
        <time>2024-07-03T11:04:23Z</time>
      </trkpt>
      <trkpt lat="46.69366" lon="-1.93342">
        <ele>7.23</ele>
        <time>2024-07-03T11:04:24Z</time>
      </trkpt>
      <trkpt lat="46.69381" lon="-1.93345">
        <ele>6.99</ele>
        <time>2024-07-03T11:04:31Z</time>
      </trkpt>
      <trkpt lat="46.69382" lon="-1.93347">
        <ele>6.98</ele>
        <time>2024-07-03T11:04:32Z</time>
      </trkpt>
      <trkpt lat="46.69384" lon="-1.93349">
        <ele>6.97</ele>
        <time>2024-07-03T11:04:33Z</time>
      </trkpt>
      <trkpt lat="46.69386" lon="-1.93351">
        <ele>6.96</ele>
        <time>2024-07-03T11:04:34Z</time>
      </trkpt>
      <trkpt lat="46.69389" lon="-1.93352">
        <ele>6.9</ele>
        <time>2024-07-03T11:04:35Z</time>
      </trkpt>
      <trkpt lat="46.69391" lon="-1.93352">
        <ele>6.87</ele>
        <time>2024-07-03T11:04:36Z</time>
      </trkpt>
      <trkpt lat="46.69393" lon="-1.93352">
        <ele>6.85</ele>
        <time>2024-07-03T11:04:37Z</time>
      </trkpt>
      <trkpt lat="46.69395" lon="-1.9335">
        <ele>6.83</ele>
        <time>2024-07-03T11:04:38Z</time>
      </trkpt>
      <trkpt lat="46.69397" lon="-1.93348">
        <ele>6.83</ele>
        <time>2024-07-03T11:04:39Z</time>
      </trkpt>
      <trkpt lat="46.69399" lon="-1.93346">
        <ele>6.81</ele>
        <time>2024-07-03T11:04:40Z</time>
      </trkpt>
      <trkpt lat="46.69401" lon="-1.93343">
        <ele>6.78</ele>
        <time>2024-07-03T11:04:41Z</time>
      </trkpt>
      <trkpt lat="46.69402" lon="-1.93342">
        <ele>6.72</ele>
        <time>2024-07-03T11:04:42Z</time>
      </trkpt>
      <trkpt lat="46.69403" lon="-1.93341">
        <ele>6.69</ele>
        <time>2024-07-03T11:04:43Z</time>
      </trkpt>
      <trkpt lat="46.69405" lon="-1.93341">
        <ele>6.5</ele>
        <time>2024-07-03T11:05:01Z</time>
      </trkpt>
      <trkpt lat="46.69407" lon="-1.93341">
        <ele>6.49</ele>
        <time>2024-07-03T11:05:02Z</time>
      </trkpt>
      <trkpt lat="46.69409" lon="-1.93342">
        <ele>6.48</ele>
        <time>2024-07-03T11:05:03Z</time>
      </trkpt>
      <trkpt lat="46.69412" lon="-1.93342">
        <ele>6.47</ele>
        <time>2024-07-03T11:05:04Z</time>
      </trkpt>
      <trkpt lat="46.69414" lon="-1.93342">
        <ele>6.47</ele>
        <time>2024-07-03T11:05:05Z</time>
      </trkpt>
      <trkpt lat="46.69439" lon="-1.9335">
        <ele>6.5</ele>
        <time>2024-07-03T11:05:18Z</time>
      </trkpt>
      <trkpt lat="46.69441" lon="-1.93353">
        <ele>6.5</ele>
        <time>2024-07-03T11:05:26Z</time>
      </trkpt>
      <trkpt lat="46.69445" lon="-1.93355">
        <ele>6.5</ele>
        <time>2024-07-03T11:05:28Z</time>
      </trkpt>
      <trkpt lat="46.69447" lon="-1.93356">
        <ele>6.5</ele>
        <time>2024-07-03T11:05:29Z</time>
      </trkpt>
      <trkpt lat="46.69481" lon="-1.93371">
        <ele>6.44</ele>
        <time>2024-07-03T11:05:42Z</time>
      </trkpt>
      <trkpt lat="46.69513" lon="-1.93383">
        <ele>6.38</ele>
        <time>2024-07-03T11:05:53Z</time>
      </trkpt>
      <trkpt lat="46.6954" lon="-1.93398">
        <ele>6.6</ele>
        <time>2024-07-03T11:06:06Z</time>
      </trkpt>
      <trkpt lat="46.69566" lon="-1.93408">
        <ele>6.57</ele>
        <time>2024-07-03T11:06:19Z</time>
      </trkpt>
      <trkpt lat="46.69561" lon="-1.93404">
        <ele>6.3</ele>
        <time>2024-07-03T11:06:49Z</time>
      </trkpt>
      <trkpt lat="46.69561" lon="-1.93397">
        <ele>6.33</ele>
        <time>2024-07-03T11:07:07Z</time>
      </trkpt>
      <trkpt lat="46.69568" lon="-1.93389">
        <ele>5.86</ele>
        <time>2024-07-03T11:07:22Z</time>
      </trkpt>
      <trkpt lat="46.69566" lon="-1.93373">
        <ele>6.09</ele>
        <time>2024-07-03T11:07:35Z</time>
      </trkpt>
      <trkpt lat="46.69567" lon="-1.93372">
        <ele>6.07</ele>
        <time>2024-07-03T11:07:36Z</time>
      </trkpt>
      <trkpt lat="46.69567" lon="-1.9337">
        <ele>6.06</ele>
        <time>2024-07-03T11:07:37Z</time>
      </trkpt>
      <trkpt lat="46.69567" lon="-1.93368">
        <ele>6.06</ele>
        <time>2024-07-03T11:07:38Z</time>
      </trkpt>
      <trkpt lat="46.69584" lon="-1.93394">
        <ele>5.76</ele>
        <time>2024-07-03T11:08:42Z</time>
      </trkpt>
      <trkpt lat="46.69584" lon="-1.93394">
        <ele>5.51</ele>
        <time>2024-07-03T11:09:55Z</time>
      </trkpt>
      <trkpt lat="46.69564" lon="-1.93392">
        <ele>5.37</ele>
        <time>2024-07-03T11:10:03Z</time>
      </trkpt>
      <trkpt lat="46.69563" lon="-1.934">
        <ele>5.59</ele>
        <time>2024-07-03T11:10:25Z</time>
      </trkpt>
      <trkpt lat="46.69564" lon="-1.93401">
        <ele>5.78</ele>
        <time>2024-07-03T11:11:04Z</time>
      </trkpt>
      <trkpt lat="46.69562" lon="-1.93405">
        <ele>5.55</ele>
        <time>2024-07-03T11:11:21Z</time>
      </trkpt>
      <trkpt lat="46.69569" lon="-1.93406">
        <ele>5.38</ele>
        <time>2024-07-03T11:11:25Z</time>
      </trkpt>
      <trkpt lat="46.69571" lon="-1.93407">
        <ele>5.37</ele>
        <time>2024-07-03T11:11:26Z</time>
      </trkpt>
      <trkpt lat="46.69573" lon="-1.93408">
        <ele>5.37</ele>
        <time>2024-07-03T11:11:27Z</time>
      </trkpt>
      <trkpt lat="46.6961" lon="-1.9342">
        <ele>5.81</ele>
        <time>2024-07-03T11:11:44Z</time>
      </trkpt>
      <trkpt lat="46.69622" lon="-1.93433">
        <ele>6.55</ele>
        <time>2024-07-03T11:11:56Z</time>
      </trkpt>
      <trkpt lat="46.69624" lon="-1.93433">
        <ele>7.19</ele>
        <time>2024-07-03T11:12:00Z</time>
      </trkpt>
      <trkpt lat="46.69632" lon="-1.93438">
        <ele>7.31</ele>
        <time>2024-07-03T11:12:06Z</time>
      </trkpt>
      <trkpt lat="46.69633" lon="-1.93439">
        <ele>7.42</ele>
        <time>2024-07-03T11:12:07Z</time>
      </trkpt>
      <trkpt lat="46.69635" lon="-1.9344">
        <ele>7.48</ele>
        <time>2024-07-03T11:12:08Z</time>
      </trkpt>
      <trkpt lat="46.69635" lon="-1.93441">
        <ele>7.6</ele>
        <time>2024-07-03T11:12:09Z</time>
      </trkpt>
      <trkpt lat="46.69636" lon="-1.93441">
        <ele>7.57</ele>
        <time>2024-07-03T11:12:10Z</time>
      </trkpt>
      <trkpt lat="46.69638" lon="-1.9344">
        <ele>7.45</ele>
        <time>2024-07-03T11:12:11Z</time>
      </trkpt>
      <trkpt lat="46.6964" lon="-1.93438">
        <ele>7.5</ele>
        <time>2024-07-03T11:12:12Z</time>
      </trkpt>
      <trkpt lat="46.6967" lon="-1.93437">
        <ele>7.39</ele>
        <time>2024-07-03T11:12:23Z</time>
      </trkpt>
      <trkpt lat="46.69719" lon="-1.93441">
        <ele>6.36</ele>
        <time>2024-07-03T11:12:37Z</time>
      </trkpt>
      <trkpt lat="46.69754" lon="-1.93454">
        <ele>6.11</ele>
        <time>2024-07-03T11:12:49Z</time>
      </trkpt>
      <trkpt lat="46.69793" lon="-1.9345">
        <ele>6.02</ele>
        <time>2024-07-03T11:13:03Z</time>
      </trkpt>
      <trkpt lat="46.69833" lon="-1.93436">
        <ele>5.88</ele>
        <time>2024-07-03T11:13:17Z</time>
      </trkpt>
      <trkpt lat="46.69878" lon="-1.93434">
        <ele>5.95</ele>
        <time>2024-07-03T11:13:31Z</time>
      </trkpt>
      <trkpt lat="46.69912" lon="-1.93411">
        <ele>5.94</ele>
        <time>2024-07-03T11:13:43Z</time>
      </trkpt>
      <trkpt lat="46.6997" lon="-1.93394">
        <ele>6.36</ele>
        <time>2024-07-03T11:14:00Z</time>
      </trkpt>
      <trkpt lat="46.69986" lon="-1.93381">
        <ele>6.51</ele>
        <time>2024-07-03T11:14:06Z</time>
      </trkpt>
      <trkpt lat="46.6999" lon="-1.93381">
        <ele>6.52</ele>
        <time>2024-07-03T11:14:07Z</time>
      </trkpt>
      <trkpt lat="46.69993" lon="-1.93382">
        <ele>6.52</ele>
        <time>2024-07-03T11:14:08Z</time>
      </trkpt>
      <trkpt lat="46.70041" lon="-1.9341">
        <ele>6.95</ele>
        <time>2024-07-03T11:14:24Z</time>
      </trkpt>
      <trkpt lat="46.70065" lon="-1.93418">
        <ele>6.91</ele>
        <time>2024-07-03T11:14:35Z</time>
      </trkpt>
      <trkpt lat="46.70076" lon="-1.93415">
        <ele>6.89</ele>
        <time>2024-07-03T11:14:40Z</time>
      </trkpt>
      <trkpt lat="46.70079" lon="-1.93415">
        <ele>6.89</ele>
        <time>2024-07-03T11:14:41Z</time>
      </trkpt>
      <trkpt lat="46.70081" lon="-1.93415">
        <ele>6.95</ele>
        <time>2024-07-03T11:14:42Z</time>
      </trkpt>
      <trkpt lat="46.70083" lon="-1.93415">
        <ele>6.97</ele>
        <time>2024-07-03T11:14:43Z</time>
      </trkpt>
      <trkpt lat="46.70086" lon="-1.93414">
        <ele>7.03</ele>
        <time>2024-07-03T11:14:44Z</time>
      </trkpt>
      <trkpt lat="46.70088" lon="-1.93414">
        <ele>7.06</ele>
        <time>2024-07-03T11:14:45Z</time>
      </trkpt>
      <trkpt lat="46.7009" lon="-1.93414">
        <ele>7.07</ele>
        <time>2024-07-03T11:14:46Z</time>
      </trkpt>
      <trkpt lat="46.70092" lon="-1.93414">
        <ele>7.08</ele>
        <time>2024-07-03T11:14:47Z</time>
      </trkpt>
      <trkpt lat="46.70095" lon="-1.93413">
        <ele>7.1</ele>
        <time>2024-07-03T11:14:48Z</time>
      </trkpt>
      <trkpt lat="46.70097" lon="-1.93412">
        <ele>7.1</ele>
        <time>2024-07-03T11:14:49Z</time>
      </trkpt>
      <trkpt lat="46.701" lon="-1.93412">
        <ele>7.1</ele>
        <time>2024-07-03T11:14:50Z</time>
      </trkpt>
      <trkpt lat="46.70132" lon="-1.93421">
        <ele>7.77</ele>
        <time>2024-07-03T11:15:05Z</time>
      </trkpt>
      <trkpt lat="46.70131" lon="-1.93421">
        <ele>8.46</ele>
        <time>2024-07-03T11:15:21Z</time>
      </trkpt>
      <trkpt lat="46.70132" lon="-1.93422">
        <ele>8.47</ele>
        <time>2024-07-03T11:15:22Z</time>
      </trkpt>
      <trkpt lat="46.70132" lon="-1.93428">
        <ele>8.37</ele>
        <time>2024-07-03T11:15:55Z</time>
      </trkpt>
      <trkpt lat="46.70132" lon="-1.93431">
        <ele>8.37</ele>
        <time>2024-07-03T11:15:57Z</time>
      </trkpt>
      <trkpt lat="46.70133" lon="-1.93433">
        <ele>8.33</ele>
        <time>2024-07-03T11:15:58Z</time>
      </trkpt>
      <trkpt lat="46.70134" lon="-1.93436">
        <ele>8.3</ele>
        <time>2024-07-03T11:15:59Z</time>
      </trkpt>
      <trkpt lat="46.70143" lon="-1.93477">
        <ele>8.6</ele>
        <time>2024-07-03T11:16:11Z</time>
      </trkpt>
      <trkpt lat="46.70156" lon="-1.93537">
        <ele>9.11</ele>
        <time>2024-07-03T11:16:27Z</time>
      </trkpt>
      <trkpt lat="46.70167" lon="-1.93587">
        <ele>9.58</ele>
        <time>2024-07-03T11:16:40Z</time>
      </trkpt>
      <trkpt lat="46.70178" lon="-1.9363">
        <ele>9.65</ele>
        <time>2024-07-03T11:16:53Z</time>
      </trkpt>
      <trkpt lat="46.70192" lon="-1.9369">
        <ele>10.04</ele>
        <time>2024-07-03T11:17:09Z</time>
      </trkpt>
      <trkpt lat="46.70207" lon="-1.93752">
        <ele>10.23</ele>
        <time>2024-07-03T11:17:24Z</time>
      </trkpt>
      <trkpt lat="46.70224" lon="-1.93816">
        <ele>10.24</ele>
        <time>2024-07-03T11:17:39Z</time>
      </trkpt>
      <trkpt lat="46.70239" lon="-1.93868">
        <ele>9.87</ele>
        <time>2024-07-03T11:17:53Z</time>
      </trkpt>
      <trkpt lat="46.70229" lon="-1.93908">
        <ele>9.39</ele>
        <time>2024-07-03T11:18:06Z</time>
      </trkpt>
      <trkpt lat="46.70226" lon="-1.93913">
        <ele>9.16</ele>
        <time>2024-07-03T11:18:15Z</time>
      </trkpt>
      <trkpt lat="46.70226" lon="-1.93918">
        <ele>8.48</ele>
        <time>2024-07-03T11:18:31Z</time>
      </trkpt>
      <trkpt lat="46.70226" lon="-1.9392">
        <ele>8.48</ele>
        <time>2024-07-03T11:18:32Z</time>
      </trkpt>
      <trkpt lat="46.70226" lon="-1.93923">
        <ele>8.49</ele>
        <time>2024-07-03T11:18:33Z</time>
      </trkpt>
      <trkpt lat="46.70226" lon="-1.93926">
        <ele>8.53</ele>
        <time>2024-07-03T11:18:34Z</time>
      </trkpt>
      <trkpt lat="46.70227" lon="-1.93927">
        <ele>8.55</ele>
        <time>2024-07-03T11:18:35Z</time>
      </trkpt>
      <trkpt lat="46.70228" lon="-1.9393">
        <ele>8.7</ele>
        <time>2024-07-03T11:18:40Z</time>
      </trkpt>
      <trkpt lat="46.70231" lon="-1.93938">
        <ele>8.76</ele>
        <time>2024-07-03T11:18:43Z</time>
      </trkpt>
      <trkpt lat="46.70234" lon="-1.93939">
        <ele>8.76</ele>
        <time>2024-07-03T11:18:44Z</time>
      </trkpt>
      <trkpt lat="46.70236" lon="-1.93939">
        <ele>8.76</ele>
        <time>2024-07-03T11:18:45Z</time>
      </trkpt>
      <trkpt lat="46.70239" lon="-1.93938">
        <ele>8.79</ele>
        <time>2024-07-03T11:18:46Z</time>
      </trkpt>
      <trkpt lat="46.70241" lon="-1.93939">
        <ele>8.81</ele>
        <time>2024-07-03T11:18:47Z</time>
      </trkpt>
      <trkpt lat="46.70243" lon="-1.93939">
        <ele>8.81</ele>
        <time>2024-07-03T11:18:48Z</time>
      </trkpt>
      <trkpt lat="46.70246" lon="-1.93939">
        <ele>8.84</ele>
        <time>2024-07-03T11:18:49Z</time>
      </trkpt>
      <trkpt lat="46.70248" lon="-1.9394">
        <ele>8.83</ele>
        <time>2024-07-03T11:18:50Z</time>
      </trkpt>
      <trkpt lat="46.70251" lon="-1.9394">
        <ele>8.82</ele>
        <time>2024-07-03T11:18:51Z</time>
      </trkpt>
      <trkpt lat="46.70253" lon="-1.93941">
        <ele>8.82</ele>
        <time>2024-07-03T11:18:52Z</time>
      </trkpt>
      <trkpt lat="46.70268" lon="-1.93947">
        <ele>9.04</ele>
        <time>2024-07-03T11:18:58Z</time>
      </trkpt>
      <trkpt lat="46.7027" lon="-1.93946">
        <ele>9.02</ele>
        <time>2024-07-03T11:18:59Z</time>
      </trkpt>
      <trkpt lat="46.70273" lon="-1.93945">
        <ele>8.89</ele>
        <time>2024-07-03T11:19:04Z</time>
      </trkpt>
      <trkpt lat="46.70275" lon="-1.93944">
        <ele>8.88</ele>
        <time>2024-07-03T11:19:05Z</time>
      </trkpt>
      <trkpt lat="46.70276" lon="-1.93942">
        <ele>8.88</ele>
        <time>2024-07-03T11:19:06Z</time>
      </trkpt>
      <trkpt lat="46.70278" lon="-1.9394">
        <ele>8.89</ele>
        <time>2024-07-03T11:19:07Z</time>
      </trkpt>
      <trkpt lat="46.70279" lon="-1.93939">
        <ele>8.94</ele>
        <time>2024-07-03T11:19:08Z</time>
      </trkpt>
      <trkpt lat="46.70284" lon="-1.93936">
        <ele>9.12</ele>
        <time>2024-07-03T11:19:18Z</time>
      </trkpt>
      <trkpt lat="46.70286" lon="-1.93933">
        <ele>9.13</ele>
        <time>2024-07-03T11:19:19Z</time>
      </trkpt>
      <trkpt lat="46.70287" lon="-1.93931">
        <ele>9.13</ele>
        <time>2024-07-03T11:19:20Z</time>
      </trkpt>
      <trkpt lat="46.70289" lon="-1.93928">
        <ele>9.13</ele>
        <time>2024-07-03T11:19:21Z</time>
      </trkpt>
      <trkpt lat="46.7029" lon="-1.93924">
        <ele>9.13</ele>
        <time>2024-07-03T11:19:22Z</time>
      </trkpt>
      <trkpt lat="46.70289" lon="-1.93919">
        <ele>9.13</ele>
        <time>2024-07-03T11:19:23Z</time>
      </trkpt>
      <trkpt lat="46.70289" lon="-1.93915">
        <ele>9.13</ele>
        <time>2024-07-03T11:19:24Z</time>
      </trkpt>
      <trkpt lat="46.70287" lon="-1.93911">
        <ele>9.12</ele>
        <time>2024-07-03T11:19:25Z</time>
      </trkpt>
      <trkpt lat="46.70286" lon="-1.93908">
        <ele>9.09</ele>
        <time>2024-07-03T11:19:26Z</time>
      </trkpt>
      <trkpt lat="46.70264" lon="-1.93872">
        <ele>8.9</ele>
        <time>2024-07-03T11:19:39Z</time>
      </trkpt>
      <trkpt lat="46.70244" lon="-1.93831">
        <ele>9.29</ele>
        <time>2024-07-03T11:19:52Z</time>
      </trkpt>
      <trkpt lat="46.70227" lon="-1.93771">
        <ele>9.8</ele>
        <time>2024-07-03T11:20:07Z</time>
      </trkpt>
      <trkpt lat="46.70208" lon="-1.93699">
        <ele>10.31</ele>
        <time>2024-07-03T11:20:24Z</time>
      </trkpt>
      <trkpt lat="46.70191" lon="-1.93632">
        <ele>11.06</ele>
        <time>2024-07-03T11:20:39Z</time>
      </trkpt>
      <trkpt lat="46.70174" lon="-1.93556">
        <ele>11.35</ele>
        <time>2024-07-03T11:20:55Z</time>
      </trkpt>
      <trkpt lat="46.70148" lon="-1.93445">
        <ele>10.73</ele>
        <time>2024-07-03T11:21:19Z</time>
      </trkpt>
      <trkpt lat="46.70151" lon="-1.934">
        <ele>10.35</ele>
        <time>2024-07-03T11:21:30Z</time>
      </trkpt>
      <trkpt lat="46.70164" lon="-1.93387">
        <ele>9.96</ele>
        <time>2024-07-03T11:21:41Z</time>
      </trkpt>
      <trkpt lat="46.70166" lon="-1.93384">
        <ele>9.66</ele>
        <time>2024-07-03T11:21:45Z</time>
      </trkpt>
      <trkpt lat="46.70166" lon="-1.93382">
        <ele>9.56</ele>
        <time>2024-07-03T11:21:46Z</time>
      </trkpt>
      <trkpt lat="46.70167" lon="-1.9338">
        <ele>9.46</ele>
        <time>2024-07-03T11:21:47Z</time>
      </trkpt>
      <trkpt lat="46.70167" lon="-1.93377">
        <ele>9.34</ele>
        <time>2024-07-03T11:21:48Z</time>
      </trkpt>
      <trkpt lat="46.70167" lon="-1.93374">
        <ele>9.25</ele>
        <time>2024-07-03T11:21:49Z</time>
      </trkpt>
      <trkpt lat="46.70166" lon="-1.93372">
        <ele>9.25</ele>
        <time>2024-07-03T11:21:50Z</time>
      </trkpt>
      <trkpt lat="46.70165" lon="-1.93369">
        <ele>9.12</ele>
        <time>2024-07-03T11:21:51Z</time>
      </trkpt>
      <trkpt lat="46.70163" lon="-1.93367">
        <ele>9.08</ele>
        <time>2024-07-03T11:21:52Z</time>
      </trkpt>
      <trkpt lat="46.7016" lon="-1.93365">
        <ele>9.06</ele>
        <time>2024-07-03T11:21:53Z</time>
      </trkpt>
      <trkpt lat="46.70146" lon="-1.93329">
        <ele>8.84</ele>
        <time>2024-07-03T11:22:02Z</time>
      </trkpt>
      <trkpt lat="46.70131" lon="-1.93288">
        <ele>8.36</ele>
        <time>2024-07-03T11:22:15Z</time>
      </trkpt>
      <trkpt lat="46.70113" lon="-1.93256">
        <ele>8.77</ele>
        <time>2024-07-03T11:22:25Z</time>
      </trkpt>
      <trkpt lat="46.70095" lon="-1.93184">
        <ele>8.78</ele>
        <time>2024-07-03T11:22:40Z</time>
      </trkpt>
      <trkpt lat="46.70096" lon="-1.93125">
        <ele>8.42</ele>
        <time>2024-07-03T11:22:53Z</time>
      </trkpt>
      <trkpt lat="46.701" lon="-1.93119">
        <ele>8.41</ele>
        <time>2024-07-03T11:22:55Z</time>
      </trkpt>
      <trkpt lat="46.70109" lon="-1.93069">
        <ele>8.25</ele>
        <time>2024-07-03T11:23:08Z</time>
      </trkpt>
      <trkpt lat="46.70106" lon="-1.93034">
        <ele>8.36</ele>
        <time>2024-07-03T11:23:16Z</time>
      </trkpt>
      <trkpt lat="46.70105" lon="-1.9303">
        <ele>8.37</ele>
        <time>2024-07-03T11:23:17Z</time>
      </trkpt>
      <trkpt lat="46.70103" lon="-1.93026">
        <ele>8.38</ele>
        <time>2024-07-03T11:23:18Z</time>
      </trkpt>
      <trkpt lat="46.70103" lon="-1.93021">
        <ele>8.39</ele>
        <time>2024-07-03T11:23:19Z</time>
      </trkpt>
      <trkpt lat="46.70103" lon="-1.93015">
        <ele>8.39</ele>
        <time>2024-07-03T11:23:20Z</time>
      </trkpt>
      <trkpt lat="46.70103" lon="-1.9301">
        <ele>8.39</ele>
        <time>2024-07-03T11:23:21Z</time>
      </trkpt>
      <trkpt lat="46.70103" lon="-1.93005">
        <ele>8.42</ele>
        <time>2024-07-03T11:23:22Z</time>
      </trkpt>
      <trkpt lat="46.70104" lon="-1.93003">
        <ele>8.44</ele>
        <time>2024-07-03T11:23:23Z</time>
      </trkpt>
      <trkpt lat="46.70103" lon="-1.92997">
        <ele>8.45</ele>
        <time>2024-07-03T11:23:24Z</time>
      </trkpt>
      <trkpt lat="46.70103" lon="-1.92992">
        <ele>8.46</ele>
        <time>2024-07-03T11:23:25Z</time>
      </trkpt>
      <trkpt lat="46.70103" lon="-1.92988">
        <ele>8.46</ele>
        <time>2024-07-03T11:23:26Z</time>
      </trkpt>
      <trkpt lat="46.70104" lon="-1.92985">
        <ele>8.51</ele>
        <time>2024-07-03T11:23:27Z</time>
      </trkpt>
      <trkpt lat="46.70104" lon="-1.92982">
        <ele>8.52</ele>
        <time>2024-07-03T11:23:28Z</time>
      </trkpt>
      <trkpt lat="46.70104" lon="-1.92979">
        <ele>8.52</ele>
        <time>2024-07-03T11:23:29Z</time>
      </trkpt>
      <trkpt lat="46.70099" lon="-1.92946">
        <ele>8.92</ele>
        <time>2024-07-03T11:23:42Z</time>
      </trkpt>
      <trkpt lat="46.70098" lon="-1.92946">
        <ele>8.92</ele>
        <time>2024-07-03T11:23:43Z</time>
      </trkpt>
      <trkpt lat="46.70096" lon="-1.92947">
        <ele>8.92</ele>
        <time>2024-07-03T11:23:44Z</time>
      </trkpt>
      <trkpt lat="46.70095" lon="-1.92948">
        <ele>8.92</ele>
        <time>2024-07-03T11:23:45Z</time>
      </trkpt>
      <trkpt lat="46.70093" lon="-1.92948">
        <ele>8.92</ele>
        <time>2024-07-03T11:23:46Z</time>
      </trkpt>
      <trkpt lat="46.70092" lon="-1.92949">
        <ele>8.92</ele>
        <time>2024-07-03T11:23:47Z</time>
      </trkpt>
      <trkpt lat="46.7009" lon="-1.9295">
        <ele>8.92</ele>
        <time>2024-07-03T11:23:48Z</time>
      </trkpt>
      <trkpt lat="46.70088" lon="-1.92951">
        <ele>8.92</ele>
        <time>2024-07-03T11:23:49Z</time>
      </trkpt>
      <trkpt lat="46.70085" lon="-1.92951">
        <ele>8.92</ele>
        <time>2024-07-03T11:23:50Z</time>
      </trkpt>
      <trkpt lat="46.70083" lon="-1.92952">
        <ele>8.92</ele>
        <time>2024-07-03T11:23:51Z</time>
      </trkpt>
      <trkpt lat="46.7008" lon="-1.92952">
        <ele>8.92</ele>
        <time>2024-07-03T11:23:52Z</time>
      </trkpt>
      <trkpt lat="46.70078" lon="-1.92952">
        <ele>8.92</ele>
        <time>2024-07-03T11:23:53Z</time>
      </trkpt>
      <trkpt lat="46.70075" lon="-1.92952">
        <ele>8.92</ele>
        <time>2024-07-03T11:23:54Z</time>
      </trkpt>
      <trkpt lat="46.70074" lon="-1.92951">
        <ele>8.92</ele>
        <time>2024-07-03T11:23:55Z</time>
      </trkpt>
      <trkpt lat="46.70072" lon="-1.92949">
        <ele>8.91</ele>
        <time>2024-07-03T11:23:56Z</time>
      </trkpt>
      <trkpt lat="46.70057" lon="-1.92924">
        <ele>9.05</ele>
        <time>2024-07-03T11:24:08Z</time>
      </trkpt>
      <trkpt lat="46.70045" lon="-1.92881">
        <ele>9.19</ele>
        <time>2024-07-03T11:24:21Z</time>
      </trkpt>
      <trkpt lat="46.70038" lon="-1.92867">
        <ele>9.34</ele>
        <time>2024-07-03T11:24:26Z</time>
      </trkpt>
      <trkpt lat="46.70025" lon="-1.92834">
        <ele>10.58</ele>
        <time>2024-07-03T11:24:38Z</time>
      </trkpt>
      <trkpt lat="46.70013" lon="-1.928">
        <ele>10.91</ele>
        <time>2024-07-03T11:24:50Z</time>
      </trkpt>
      <trkpt lat="46.70001" lon="-1.92757">
        <ele>11.08</ele>
        <time>2024-07-03T11:25:03Z</time>
      </trkpt>
      <trkpt lat="46.69995" lon="-1.92711">
        <ele>11.79</ele>
        <time>2024-07-03T11:25:17Z</time>
      </trkpt>
      <trkpt lat="46.69986" lon="-1.92653">
        <ele>11.89</ele>
        <time>2024-07-03T11:25:33Z</time>
      </trkpt>
      <trkpt lat="46.69975" lon="-1.92604">
        <ele>11.78</ele>
        <time>2024-07-03T11:25:46Z</time>
      </trkpt>
      <trkpt lat="46.69964" lon="-1.92555">
        <ele>12.2</ele>
        <time>2024-07-03T11:26:00Z</time>
      </trkpt>
      <trkpt lat="46.69965" lon="-1.92503">
        <ele>12.66</ele>
        <time>2024-07-03T11:26:15Z</time>
      </trkpt>
      <trkpt lat="46.69968" lon="-1.92482">
        <ele>13.1</ele>
        <time>2024-07-03T11:26:24Z</time>
      </trkpt>
      <trkpt lat="46.69968" lon="-1.92479">
        <ele>13.15</ele>
        <time>2024-07-03T11:26:25Z</time>
      </trkpt>
      <trkpt lat="46.69967" lon="-1.9247">
        <ele>13.43</ele>
        <time>2024-07-03T11:26:28Z</time>
      </trkpt>
      <trkpt lat="46.69969" lon="-1.92466">
        <ele>14.71</ele>
        <time>2024-07-03T11:26:46Z</time>
      </trkpt>
      <trkpt lat="46.69969" lon="-1.92463">
        <ele>14.85</ele>
        <time>2024-07-03T11:27:43Z</time>
      </trkpt>
      <trkpt lat="46.69973" lon="-1.92455">
        <ele>14.84</ele>
        <time>2024-07-03T11:28:04Z</time>
      </trkpt>
      <trkpt lat="46.69982" lon="-1.92443">
        <ele>15.56</ele>
        <time>2024-07-03T11:28:24Z</time>
      </trkpt>
      <trkpt lat="46.69972" lon="-1.92419">
        <ele>15.78</ele>
        <time>2024-07-03T11:28:48Z</time>
      </trkpt>
      <trkpt lat="46.69969" lon="-1.92417">
        <ele>15.86</ele>
        <time>2024-07-03T11:28:54Z</time>
      </trkpt>
      <trkpt lat="46.69967" lon="-1.92417">
        <ele>15.87</ele>
        <time>2024-07-03T11:28:55Z</time>
      </trkpt>
      <trkpt lat="46.69966" lon="-1.92417">
        <ele>15.97</ele>
        <time>2024-07-03T11:28:56Z</time>
      </trkpt>
      <trkpt lat="46.69963" lon="-1.92418">
        <ele>16.02</ele>
        <time>2024-07-03T11:28:57Z</time>
      </trkpt>
      <trkpt lat="46.69961" lon="-1.9242">
        <ele>16.06</ele>
        <time>2024-07-03T11:28:58Z</time>
      </trkpt>
      <trkpt lat="46.69957" lon="-1.92422">
        <ele>16.08</ele>
        <time>2024-07-03T11:29:00Z</time>
      </trkpt>
      <trkpt lat="46.69955" lon="-1.92422">
        <ele>15.98</ele>
        <time>2024-07-03T11:29:01Z</time>
      </trkpt>
      <trkpt lat="46.69953" lon="-1.92421">
        <ele>16.03</ele>
        <time>2024-07-03T11:29:02Z</time>
      </trkpt>
      <trkpt lat="46.69951" lon="-1.9242">
        <ele>16.04</ele>
        <time>2024-07-03T11:29:03Z</time>
      </trkpt>
      <trkpt lat="46.69948" lon="-1.92419">
        <ele>16.08</ele>
        <time>2024-07-03T11:29:04Z</time>
      </trkpt>
      <trkpt lat="46.69943" lon="-1.92416">
        <ele>16.09</ele>
        <time>2024-07-03T11:29:06Z</time>
      </trkpt>
      <trkpt lat="46.69942" lon="-1.92414">
        <ele>16.15</ele>
        <time>2024-07-03T11:29:07Z</time>
      </trkpt>
      <trkpt lat="46.6994" lon="-1.92411">
        <ele>16.15</ele>
        <time>2024-07-03T11:29:08Z</time>
      </trkpt>
      <trkpt lat="46.69926" lon="-1.92369">
        <ele>16.1</ele>
        <time>2024-07-03T11:29:21Z</time>
      </trkpt>
      <trkpt lat="46.69923" lon="-1.92363">
        <ele>16.05</ele>
        <time>2024-07-03T11:29:22Z</time>
      </trkpt>
      <trkpt lat="46.69891" lon="-1.92282">
        <ele>13.78</ele>
        <time>2024-07-03T11:29:34Z</time>
      </trkpt>
      <trkpt lat="46.69882" lon="-1.92253">
        <ele>12.83</ele>
        <time>2024-07-03T11:29:38Z</time>
      </trkpt>
      <trkpt lat="46.6988" lon="-1.92246">
        <ele>12.69</ele>
        <time>2024-07-03T11:29:39Z</time>
      </trkpt>
      <trkpt lat="46.69879" lon="-1.9224">
        <ele>12.6</ele>
        <time>2024-07-03T11:29:40Z</time>
      </trkpt>
      <trkpt lat="46.69867" lon="-1.92173">
        <ele>12.2</ele>
        <time>2024-07-03T11:29:54Z</time>
      </trkpt>
      <trkpt lat="46.69852" lon="-1.92118">
        <ele>13.6</ele>
        <time>2024-07-03T11:30:06Z</time>
      </trkpt>
      <trkpt lat="46.69838" lon="-1.92048">
        <ele>13.24</ele>
        <time>2024-07-03T11:30:19Z</time>
      </trkpt>
      <trkpt lat="46.69826" lon="-1.91984">
        <ele>15.07</ele>
        <time>2024-07-03T11:30:35Z</time>
      </trkpt>
      <trkpt lat="46.69812" lon="-1.91917">
        <ele>16.35</ele>
        <time>2024-07-03T11:30:49Z</time>
      </trkpt>
      <trkpt lat="46.69795" lon="-1.91851">
        <ele>16.25</ele>
        <time>2024-07-03T11:31:03Z</time>
      </trkpt>
      <trkpt lat="46.69778" lon="-1.91787">
        <ele>16.14</ele>
        <time>2024-07-03T11:31:17Z</time>
      </trkpt>
      <trkpt lat="46.69773" lon="-1.91778">
        <ele>16.12</ele>
        <time>2024-07-03T11:31:19Z</time>
      </trkpt>
      <trkpt lat="46.69764" lon="-1.91763">
        <ele>16.05</ele>
        <time>2024-07-03T11:31:22Z</time>
      </trkpt>
      <trkpt lat="46.69761" lon="-1.91756">
        <ele>15.99</ele>
        <time>2024-07-03T11:31:23Z</time>
      </trkpt>
      <trkpt lat="46.69753" lon="-1.91735">
        <ele>15.84</ele>
        <time>2024-07-03T11:31:26Z</time>
      </trkpt>
      <trkpt lat="46.69751" lon="-1.91728">
        <ele>15.75</ele>
        <time>2024-07-03T11:31:27Z</time>
      </trkpt>
      <trkpt lat="46.6975" lon="-1.91721">
        <ele>15.7</ele>
        <time>2024-07-03T11:31:28Z</time>
      </trkpt>
      <trkpt lat="46.69747" lon="-1.91708">
        <ele>15.36</ele>
        <time>2024-07-03T11:31:30Z</time>
      </trkpt>
      <trkpt lat="46.69745" lon="-1.91702">
        <ele>14.99</ele>
        <time>2024-07-03T11:31:31Z</time>
      </trkpt>
      <trkpt lat="46.69742" lon="-1.91696">
        <ele>14.65</ele>
        <time>2024-07-03T11:31:32Z</time>
      </trkpt>
      <trkpt lat="46.69716" lon="-1.91655">
        <ele>13.52</ele>
        <time>2024-07-03T11:31:44Z</time>
      </trkpt>
      <trkpt lat="46.69689" lon="-1.91612">
        <ele>13.8</ele>
        <time>2024-07-03T11:31:57Z</time>
      </trkpt>
      <trkpt lat="46.69674" lon="-1.91584">
        <ele>14.07</ele>
        <time>2024-07-03T11:32:07Z</time>
      </trkpt>
      <trkpt lat="46.69671" lon="-1.91558">
        <ele>14.72</ele>
        <time>2024-07-03T11:32:18Z</time>
      </trkpt>
      <trkpt lat="46.69667" lon="-1.91554">
        <ele>15.07</ele>
        <time>2024-07-03T11:33:03Z</time>
      </trkpt>
      <trkpt lat="46.69666" lon="-1.91553">
        <ele>15.07</ele>
        <time>2024-07-03T11:33:04Z</time>
      </trkpt>
      <trkpt lat="46.6966" lon="-1.91551">
        <ele>15.15</ele>
        <time>2024-07-03T11:33:09Z</time>
      </trkpt>
      <trkpt lat="46.69659" lon="-1.91552">
        <ele>15.17</ele>
        <time>2024-07-03T11:33:10Z</time>
      </trkpt>
      <trkpt lat="46.69657" lon="-1.91553">
        <ele>15.19</ele>
        <time>2024-07-03T11:33:11Z</time>
      </trkpt>
      <trkpt lat="46.69654" lon="-1.91554">
        <ele>15.2</ele>
        <time>2024-07-03T11:33:12Z</time>
      </trkpt>
      <trkpt lat="46.69651" lon="-1.91555">
        <ele>15.27</ele>
        <time>2024-07-03T11:33:13Z</time>
      </trkpt>
      <trkpt lat="46.69627" lon="-1.91533">
        <ele>15.78</ele>
        <time>2024-07-03T11:33:25Z</time>
      </trkpt>
      <trkpt lat="46.69601" lon="-1.91499">
        <ele>16.51</ele>
        <time>2024-07-03T11:33:38Z</time>
      </trkpt>
      <trkpt lat="46.69569" lon="-1.91472">
        <ele>17.48</ele>
        <time>2024-07-03T11:33:53Z</time>
      </trkpt>
      <trkpt lat="46.69527" lon="-1.91442">
        <ele>18.76</ele>
        <time>2024-07-03T11:34:11Z</time>
      </trkpt>
      <trkpt lat="46.69522" lon="-1.91441">
        <ele>19.12</ele>
        <time>2024-07-03T11:34:18Z</time>
      </trkpt>
      <trkpt lat="46.69521" lon="-1.91443">
        <ele>19.19</ele>
        <time>2024-07-03T11:34:19Z</time>
      </trkpt>
      <trkpt lat="46.6952" lon="-1.91445">
        <ele>19.23</ele>
        <time>2024-07-03T11:34:20Z</time>
      </trkpt>
      <trkpt lat="46.69519" lon="-1.91448">
        <ele>19.25</ele>
        <time>2024-07-03T11:34:21Z</time>
      </trkpt>
      <trkpt lat="46.69519" lon="-1.9145">
        <ele>19.32</ele>
        <time>2024-07-03T11:34:22Z</time>
      </trkpt>
      <trkpt lat="46.69519" lon="-1.91452">
        <ele>19.32</ele>
        <time>2024-07-03T11:34:23Z</time>
      </trkpt>
      <trkpt lat="46.69518" lon="-1.91455">
        <ele>19.92</ele>
        <time>2024-07-03T11:34:41Z</time>
      </trkpt>
      <trkpt lat="46.69518" lon="-1.91457">
        <ele>19.92</ele>
        <time>2024-07-03T11:34:42Z</time>
      </trkpt>
      <trkpt lat="46.69517" lon="-1.91459">
        <ele>19.9</ele>
        <time>2024-07-03T11:34:43Z</time>
      </trkpt>
      <trkpt lat="46.69516" lon="-1.91462">
        <ele>19.88</ele>
        <time>2024-07-03T11:34:44Z</time>
      </trkpt>
      <trkpt lat="46.69515" lon="-1.91465">
        <ele>19.87</ele>
        <time>2024-07-03T11:34:45Z</time>
      </trkpt>
      <trkpt lat="46.69513" lon="-1.91466">
        <ele>19.86</ele>
        <time>2024-07-03T11:34:46Z</time>
      </trkpt>
      <trkpt lat="46.69511" lon="-1.91466">
        <ele>19.86</ele>
        <time>2024-07-03T11:34:47Z</time>
      </trkpt>
      <trkpt lat="46.69509" lon="-1.91466">
        <ele>19.85</ele>
        <time>2024-07-03T11:34:48Z</time>
      </trkpt>
      <trkpt lat="46.69507" lon="-1.91465">
        <ele>19.86</ele>
        <time>2024-07-03T11:34:49Z</time>
      </trkpt>
      <trkpt lat="46.69505" lon="-1.91464">
        <ele>20.23</ele>
        <time>2024-07-03T11:35:04Z</time>
      </trkpt>
      <trkpt lat="46.69502" lon="-1.91464">
        <ele>20.07</ele>
        <time>2024-07-03T11:35:27Z</time>
      </trkpt>
      <trkpt lat="46.695" lon="-1.91465">
        <ele>20.07</ele>
        <time>2024-07-03T11:35:28Z</time>
      </trkpt>
      <trkpt lat="46.69498" lon="-1.91465">
        <ele>20.09</ele>
        <time>2024-07-03T11:35:29Z</time>
      </trkpt>
      <trkpt lat="46.69496" lon="-1.91465">
        <ele>20.11</ele>
        <time>2024-07-03T11:35:30Z</time>
      </trkpt>
      <trkpt lat="46.69494" lon="-1.91466">
        <ele>20.12</ele>
        <time>2024-07-03T11:35:31Z</time>
      </trkpt>
      <trkpt lat="46.69493" lon="-1.91467">
        <ele>20.15</ele>
        <time>2024-07-03T11:35:32Z</time>
      </trkpt>
      <trkpt lat="46.69491" lon="-1.91468">
        <ele>20.19</ele>
        <time>2024-07-03T11:35:33Z</time>
      </trkpt>
      <trkpt lat="46.69489" lon="-1.9147">
        <ele>20.21</ele>
        <time>2024-07-03T11:35:34Z</time>
      </trkpt>
      <trkpt lat="46.69488" lon="-1.91472">
        <ele>20.24</ele>
        <time>2024-07-03T11:35:35Z</time>
      </trkpt>
      <trkpt lat="46.69487" lon="-1.91474">
        <ele>20.31</ele>
        <time>2024-07-03T11:35:36Z</time>
      </trkpt>
      <trkpt lat="46.69485" lon="-1.91477">
        <ele>20.42</ele>
        <time>2024-07-03T11:35:37Z</time>
      </trkpt>
      <trkpt lat="46.69484" lon="-1.91479">
        <ele>20.42</ele>
        <time>2024-07-03T11:35:38Z</time>
      </trkpt>
      <trkpt lat="46.69483" lon="-1.9148">
        <ele>20.54</ele>
        <time>2024-07-03T11:35:39Z</time>
      </trkpt>
      <trkpt lat="46.69475" lon="-1.91483">
        <ele>21.14</ele>
        <time>2024-07-03T11:35:51Z</time>
      </trkpt>
      <trkpt lat="46.69472" lon="-1.9148">
        <ele>21.19</ele>
        <time>2024-07-03T11:35:53Z</time>
      </trkpt>
      <trkpt lat="46.6947" lon="-1.91479">
        <ele>21.19</ele>
        <time>2024-07-03T11:35:54Z</time>
      </trkpt>
      <trkpt lat="46.69468" lon="-1.91478">
        <ele>21.2</ele>
        <time>2024-07-03T11:35:55Z</time>
      </trkpt>
      <trkpt lat="46.69465" lon="-1.91478">
        <ele>21.2</ele>
        <time>2024-07-03T11:35:56Z</time>
      </trkpt>
      <trkpt lat="46.69463" lon="-1.91478">
        <ele>21.2</ele>
        <time>2024-07-03T11:35:57Z</time>
      </trkpt>
      <trkpt lat="46.69461" lon="-1.91476">
        <ele>21.22</ele>
        <time>2024-07-03T11:35:58Z</time>
      </trkpt>
      <trkpt lat="46.69459" lon="-1.91476">
        <ele>21.24</ele>
        <time>2024-07-03T11:35:59Z</time>
      </trkpt>
      <trkpt lat="46.69458" lon="-1.91474">
        <ele>21.29</ele>
        <time>2024-07-03T11:36:00Z</time>
      </trkpt>
      <trkpt lat="46.69437" lon="-1.91453">
        <ele>21.43</ele>
        <time>2024-07-03T11:36:14Z</time>
      </trkpt>
      <trkpt lat="46.69428" lon="-1.91444">
        <ele>21.52</ele>
        <time>2024-07-03T11:36:21Z</time>
      </trkpt>
      <trkpt lat="46.69428" lon="-1.9144">
        <ele>21.52</ele>
        <time>2024-07-03T11:36:23Z</time>
      </trkpt>
      <trkpt lat="46.69427" lon="-1.91436">
        <ele>21.57</ele>
        <time>2024-07-03T11:36:39Z</time>
      </trkpt>
      <trkpt lat="46.69428" lon="-1.91432">
        <ele>21.6</ele>
        <time>2024-07-03T11:36:51Z</time>
      </trkpt>
      <trkpt lat="46.69429" lon="-1.91429">
        <ele>21.6</ele>
        <time>2024-07-03T11:36:52Z</time>
      </trkpt>
      <trkpt lat="46.69429" lon="-1.91426">
        <ele>21.6</ele>
        <time>2024-07-03T11:36:53Z</time>
      </trkpt>
      <trkpt lat="46.6943" lon="-1.91411">
        <ele>21.63</ele>
        <time>2024-07-03T11:37:03Z</time>
      </trkpt>
      <trkpt lat="46.6943" lon="-1.91409">
        <ele>21.63</ele>
        <time>2024-07-03T11:37:04Z</time>
      </trkpt>
      <trkpt lat="46.69429" lon="-1.91405">
        <ele>21.63</ele>
        <time>2024-07-03T11:37:05Z</time>
      </trkpt>
      <trkpt lat="46.69425" lon="-1.91387">
        <ele>21.43</ele>
        <time>2024-07-03T11:37:10Z</time>
      </trkpt>
      <trkpt lat="46.69422" lon="-1.91385">
        <ele>21.41</ele>
        <time>2024-07-03T11:37:11Z</time>
      </trkpt>
      <trkpt lat="46.69418" lon="-1.91384">
        <ele>21.4</ele>
        <time>2024-07-03T11:37:12Z</time>
      </trkpt>
      <trkpt lat="46.69415" lon="-1.91384">
        <ele>21.45</ele>
        <time>2024-07-03T11:37:13Z</time>
      </trkpt>
      <trkpt lat="46.69411" lon="-1.91384">
        <ele>21.53</ele>
        <time>2024-07-03T11:37:14Z</time>
      </trkpt>
      <trkpt lat="46.69408" lon="-1.91383">
        <ele>21.62</ele>
        <time>2024-07-03T11:37:15Z</time>
      </trkpt>
      <trkpt lat="46.69406" lon="-1.91383">
        <ele>21.67</ele>
        <time>2024-07-03T11:37:16Z</time>
      </trkpt>
      <trkpt lat="46.69403" lon="-1.91382">
        <ele>21.66</ele>
        <time>2024-07-03T11:37:17Z</time>
      </trkpt>
      <trkpt lat="46.69357" lon="-1.91368">
        <ele>21.13</ele>
        <time>2024-07-03T11:37:32Z</time>
      </trkpt>
      <trkpt lat="46.69315" lon="-1.91361">
        <ele>21.7</ele>
        <time>2024-07-03T11:37:48Z</time>
      </trkpt>
      <trkpt lat="46.69283" lon="-1.91354">
        <ele>21.99</ele>
        <time>2024-07-03T11:38:01Z</time>
      </trkpt>
      <trkpt lat="46.6927" lon="-1.91351">
        <ele>22.23</ele>
        <time>2024-07-03T11:38:10Z</time>
      </trkpt>
      <trkpt lat="46.69268" lon="-1.91352">
        <ele>22.27</ele>
        <time>2024-07-03T11:38:11Z</time>
      </trkpt>
      <trkpt lat="46.69266" lon="-1.91354">
        <ele>22.31</ele>
        <time>2024-07-03T11:38:12Z</time>
      </trkpt>
      <trkpt lat="46.69264" lon="-1.91356">
        <ele>22.36</ele>
        <time>2024-07-03T11:38:13Z</time>
      </trkpt>
      <trkpt lat="46.69262" lon="-1.91358">
        <ele>22.39</ele>
        <time>2024-07-03T11:38:14Z</time>
      </trkpt>
      <trkpt lat="46.69256" lon="-1.9136">
        <ele>22.46</ele>
        <time>2024-07-03T11:38:17Z</time>
      </trkpt>
      <trkpt lat="46.69254" lon="-1.9136">
        <ele>22.49</ele>
        <time>2024-07-03T11:38:18Z</time>
      </trkpt>
      <trkpt lat="46.69252" lon="-1.91359">
        <ele>22.57</ele>
        <time>2024-07-03T11:38:19Z</time>
      </trkpt>
      <trkpt lat="46.6925" lon="-1.91358">
        <ele>22.62</ele>
        <time>2024-07-03T11:38:20Z</time>
      </trkpt>
      <trkpt lat="46.69248" lon="-1.91357">
        <ele>22.66</ele>
        <time>2024-07-03T11:38:21Z</time>
      </trkpt>
      <trkpt lat="46.69246" lon="-1.91355">
        <ele>22.73</ele>
        <time>2024-07-03T11:38:22Z</time>
      </trkpt>
      <trkpt lat="46.69245" lon="-1.91352">
        <ele>22.77</ele>
        <time>2024-07-03T11:38:23Z</time>
      </trkpt>
      <trkpt lat="46.69243" lon="-1.91349">
        <ele>22.79</ele>
        <time>2024-07-03T11:38:24Z</time>
      </trkpt>
      <trkpt lat="46.69242" lon="-1.91346">
        <ele>22.83</ele>
        <time>2024-07-03T11:38:25Z</time>
      </trkpt>
      <trkpt lat="46.69239" lon="-1.91343">
        <ele>22.85</ele>
        <time>2024-07-03T11:38:26Z</time>
      </trkpt>
      <trkpt lat="46.69237" lon="-1.91341">
        <ele>22.86</ele>
        <time>2024-07-03T11:38:27Z</time>
      </trkpt>
      <trkpt lat="46.69208" lon="-1.91331">
        <ele>23.13</ele>
        <time>2024-07-03T11:38:40Z</time>
      </trkpt>
      <trkpt lat="46.69178" lon="-1.9132">
        <ele>23.56</ele>
        <time>2024-07-03T11:38:53Z</time>
      </trkpt>
      <trkpt lat="46.69141" lon="-1.91306">
        <ele>24.32</ele>
        <time>2024-07-03T11:39:08Z</time>
      </trkpt>
      <trkpt lat="46.69105" lon="-1.91293">
        <ele>24.47</ele>
        <time>2024-07-03T11:39:21Z</time>
      </trkpt>
      <trkpt lat="46.69076" lon="-1.91291">
        <ele>24.71</ele>
        <time>2024-07-03T11:39:32Z</time>
      </trkpt>
      <trkpt lat="46.6904" lon="-1.91272">
        <ele>24.56</ele>
        <time>2024-07-03T11:39:46Z</time>
      </trkpt>
      <trkpt lat="46.69004" lon="-1.91254">
        <ele>25.11</ele>
        <time>2024-07-03T11:40:00Z</time>
      </trkpt>
      <trkpt lat="46.68965" lon="-1.91234">
        <ele>25.17</ele>
        <time>2024-07-03T11:40:15Z</time>
      </trkpt>
      <trkpt lat="46.68925" lon="-1.91211">
        <ele>25.03</ele>
        <time>2024-07-03T11:40:30Z</time>
      </trkpt>
      <trkpt lat="46.68883" lon="-1.9119">
        <ele>25.19</ele>
        <time>2024-07-03T11:40:45Z</time>
      </trkpt>
      <trkpt lat="46.68848" lon="-1.91171">
        <ele>25.28</ele>
        <time>2024-07-03T11:40:59Z</time>
      </trkpt>
      <trkpt lat="46.68808" lon="-1.91149">
        <ele>25.61</ele>
        <time>2024-07-03T11:41:14Z</time>
      </trkpt>
      <trkpt lat="46.68778" lon="-1.91134">
        <ele>25.77</ele>
        <time>2024-07-03T11:41:26Z</time>
      </trkpt>
      <trkpt lat="46.68742" lon="-1.91113">
        <ele>25.86</ele>
        <time>2024-07-03T11:41:41Z</time>
      </trkpt>
      <trkpt lat="46.68715" lon="-1.91091">
        <ele>25.68</ele>
        <time>2024-07-03T11:41:53Z</time>
      </trkpt>
      <trkpt lat="46.68683" lon="-1.91075">
        <ele>25.25</ele>
        <time>2024-07-03T11:42:07Z</time>
      </trkpt>
      <trkpt lat="46.68652" lon="-1.91059">
        <ele>25.45</ele>
        <time>2024-07-03T11:42:21Z</time>
      </trkpt>
      <trkpt lat="46.68642" lon="-1.91053">
        <ele>25.79</ele>
        <time>2024-07-03T11:42:27Z</time>
      </trkpt>
      <trkpt lat="46.68641" lon="-1.9105">
        <ele>25.85</ele>
        <time>2024-07-03T11:42:28Z</time>
      </trkpt>
      <trkpt lat="46.68641" lon="-1.91047">
        <ele>25.93</ele>
        <time>2024-07-03T11:42:29Z</time>
      </trkpt>
      <trkpt lat="46.6864" lon="-1.91045">
        <ele>25.98</ele>
        <time>2024-07-03T11:42:30Z</time>
      </trkpt>
      <trkpt lat="46.6864" lon="-1.91042">
        <ele>26.02</ele>
        <time>2024-07-03T11:42:31Z</time>
      </trkpt>
      <trkpt lat="46.68639" lon="-1.9104">
        <ele>26.02</ele>
        <time>2024-07-03T11:42:32Z</time>
      </trkpt>
      <trkpt lat="46.68639" lon="-1.91038">
        <ele>26.04</ele>
        <time>2024-07-03T11:42:33Z</time>
      </trkpt>
      <trkpt lat="46.68639" lon="-1.91037">
        <ele>26.05</ele>
        <time>2024-07-03T11:42:34Z</time>
      </trkpt>
      <trkpt lat="46.68638" lon="-1.91036">
        <ele>26.06</ele>
        <time>2024-07-03T11:42:35Z</time>
      </trkpt>
      <trkpt lat="46.68634" lon="-1.91033">
        <ele>26.48</ele>
        <time>2024-07-03T11:42:53Z</time>
      </trkpt>
      <trkpt lat="46.68631" lon="-1.91033">
        <ele>26.4</ele>
        <time>2024-07-03T11:43:22Z</time>
      </trkpt>
      <trkpt lat="46.6863" lon="-1.9103">
        <ele>26.38</ele>
        <time>2024-07-03T11:43:23Z</time>
      </trkpt>
      <trkpt lat="46.68628" lon="-1.91028">
        <ele>26.37</ele>
        <time>2024-07-03T11:43:24Z</time>
      </trkpt>
      <trkpt lat="46.68626" lon="-1.91026">
        <ele>26.36</ele>
        <time>2024-07-03T11:43:25Z</time>
      </trkpt>
      <trkpt lat="46.68624" lon="-1.91027">
        <ele>26.34</ele>
        <time>2024-07-03T11:43:26Z</time>
      </trkpt>
      <trkpt lat="46.68621" lon="-1.91029">
        <ele>26.34</ele>
        <time>2024-07-03T11:43:27Z</time>
      </trkpt>
      <trkpt lat="46.68618" lon="-1.91032">
        <ele>26.31</ele>
        <time>2024-07-03T11:43:28Z</time>
      </trkpt>
      <trkpt lat="46.68584" lon="-1.91039">
        <ele>26.25</ele>
        <time>2024-07-03T11:43:41Z</time>
      </trkpt>
      <trkpt lat="46.68545" lon="-1.91023">
        <ele>26.48</ele>
        <time>2024-07-03T11:43:54Z</time>
      </trkpt>
      <trkpt lat="46.68501" lon="-1.91004">
        <ele>26.62</ele>
        <time>2024-07-03T11:44:07Z</time>
      </trkpt>
      <trkpt lat="46.6848" lon="-1.90998">
        <ele>26.59</ele>
        <time>2024-07-03T11:44:13Z</time>
      </trkpt>
      <trkpt lat="46.68411" lon="-1.90982">
        <ele>26.8</ele>
        <time>2024-07-03T11:44:30Z</time>
      </trkpt>
      <trkpt lat="46.68407" lon="-1.90982">
        <ele>26.88</ele>
        <time>2024-07-03T11:44:31Z</time>
      </trkpt>
      <trkpt lat="46.68403" lon="-1.90981">
        <ele>26.85</ele>
        <time>2024-07-03T11:44:32Z</time>
      </trkpt>
      <trkpt lat="46.68337" lon="-1.90974">
        <ele>26.72</ele>
        <time>2024-07-03T11:44:49Z</time>
      </trkpt>
      <trkpt lat="46.68275" lon="-1.90973">
        <ele>25.59</ele>
        <time>2024-07-03T11:45:06Z</time>
      </trkpt>
      <trkpt lat="46.68194" lon="-1.90973">
        <ele>23.31</ele>
        <time>2024-07-03T11:45:24Z</time>
      </trkpt>
      <trkpt lat="46.68113" lon="-1.90974">
        <ele>22.1</ele>
        <time>2024-07-03T11:45:40Z</time>
      </trkpt>
      <trkpt lat="46.68063" lon="-1.90973">
        <ele>19.58</ele>
        <time>2024-07-03T11:45:54Z</time>
      </trkpt>
      <trkpt lat="46.67995" lon="-1.90973">
        <ele>18.7</ele>
        <time>2024-07-03T11:46:09Z</time>
      </trkpt>
      <trkpt lat="46.67907" lon="-1.90972">
        <ele>17.5</ele>
        <time>2024-07-03T11:46:27Z</time>
      </trkpt>
      <trkpt lat="46.67848" lon="-1.90972">
        <ele>15.13</ele>
        <time>2024-07-03T11:46:42Z</time>
      </trkpt>
      <trkpt lat="46.67801" lon="-1.90974">
        <ele>14.51</ele>
        <time>2024-07-03T11:46:56Z</time>
      </trkpt>
      <trkpt lat="46.67761" lon="-1.90974">
        <ele>13.38</ele>
        <time>2024-07-03T11:47:10Z</time>
      </trkpt>
      <trkpt lat="46.6776" lon="-1.90974">
        <ele>12.97</ele>
        <time>2024-07-03T11:47:18Z</time>
      </trkpt>
      <trkpt lat="46.67759" lon="-1.90974">
        <ele>12.96</ele>
        <time>2024-07-03T11:47:19Z</time>
      </trkpt>
      <trkpt lat="46.67757" lon="-1.90974">
        <ele>12.96</ele>
        <time>2024-07-03T11:47:20Z</time>
      </trkpt>
      <trkpt lat="46.67756" lon="-1.90974">
        <ele>12.95</ele>
        <time>2024-07-03T11:47:21Z</time>
      </trkpt>
      <trkpt lat="46.67754" lon="-1.90974">
        <ele>12.95</ele>
        <time>2024-07-03T11:47:22Z</time>
      </trkpt>
      <trkpt lat="46.67734" lon="-1.90973">
        <ele>12.62</ele>
        <time>2024-07-03T11:47:35Z</time>
      </trkpt>
      <trkpt lat="46.67716" lon="-1.90973">
        <ele>12.5</ele>
        <time>2024-07-03T11:47:44Z</time>
      </trkpt>
      <trkpt lat="46.6768" lon="-1.90971">
        <ele>11.89</ele>
        <time>2024-07-03T11:47:59Z</time>
      </trkpt>
      <trkpt lat="46.67645" lon="-1.90968">
        <ele>11.58</ele>
        <time>2024-07-03T11:48:14Z</time>
      </trkpt>
      <trkpt lat="46.67599" lon="-1.90968">
        <ele>10.99</ele>
        <time>2024-07-03T11:48:31Z</time>
      </trkpt>
      <trkpt lat="46.67539" lon="-1.90962">
        <ele>10.81</ele>
        <time>2024-07-03T11:48:47Z</time>
      </trkpt>
      <trkpt lat="46.67518" lon="-1.90956">
        <ele>10.89</ele>
        <time>2024-07-03T11:48:52Z</time>
      </trkpt>
      <trkpt lat="46.67474" lon="-1.90938">
        <ele>10.96</ele>
        <time>2024-07-03T11:49:06Z</time>
      </trkpt>
      <trkpt lat="46.67456" lon="-1.90903">
        <ele>10.67</ele>
        <time>2024-07-03T11:49:17Z</time>
      </trkpt>
      <trkpt lat="46.67455" lon="-1.90902">
        <ele>10.67</ele>
        <time>2024-07-03T11:49:18Z</time>
      </trkpt>
      <trkpt lat="46.67452" lon="-1.909">
        <ele>10.67</ele>
        <time>2024-07-03T11:49:19Z</time>
      </trkpt>
      <trkpt lat="46.67422" lon="-1.90904">
        <ele>10.44</ele>
        <time>2024-07-03T11:49:30Z</time>
      </trkpt>
      <trkpt lat="46.67392" lon="-1.90886">
        <ele>10.48</ele>
        <time>2024-07-03T11:49:41Z</time>
      </trkpt>
      <trkpt lat="46.67351" lon="-1.90842">
        <ele>10.47</ele>
        <time>2024-07-03T11:49:56Z</time>
      </trkpt>
      <trkpt lat="46.67306" lon="-1.90784">
        <ele>9.37</ele>
        <time>2024-07-03T11:50:13Z</time>
      </trkpt>
      <trkpt lat="46.67273" lon="-1.90737">
        <ele>9.74</ele>
        <time>2024-07-03T11:50:27Z</time>
      </trkpt>
      <trkpt lat="46.67243" lon="-1.90698">
        <ele>10.03</ele>
        <time>2024-07-03T11:50:40Z</time>
      </trkpt>
      <trkpt lat="46.67207" lon="-1.90645">
        <ele>10.58</ele>
        <time>2024-07-03T11:50:56Z</time>
      </trkpt>
      <trkpt lat="46.67175" lon="-1.906">
        <ele>11.25</ele>
        <time>2024-07-03T11:51:10Z</time>
      </trkpt>
      <trkpt lat="46.67143" lon="-1.90557">
        <ele>12.08</ele>
        <time>2024-07-03T11:51:24Z</time>
      </trkpt>
      <trkpt lat="46.67105" lon="-1.90508">
        <ele>12.27</ele>
        <time>2024-07-03T11:51:39Z</time>
      </trkpt>
      <trkpt lat="46.67076" lon="-1.90464">
        <ele>12.25</ele>
        <time>2024-07-03T11:51:52Z</time>
      </trkpt>
      <trkpt lat="46.67065" lon="-1.90447">
        <ele>12.24</ele>
        <time>2024-07-03T11:52:05Z</time>
      </trkpt>
      <trkpt lat="46.67064" lon="-1.90448">
        <ele>12.3</ele>
        <time>2024-07-03T11:52:07Z</time>
      </trkpt>
      <trkpt lat="46.67056" lon="-1.90463">
        <ele>12.01</ele>
        <time>2024-07-03T11:52:24Z</time>
      </trkpt>
      <trkpt lat="46.67051" lon="-1.90462">
        <ele>11.73</ele>
        <time>2024-07-03T11:53:08Z</time>
      </trkpt>
      <trkpt lat="46.6705" lon="-1.9046">
        <ele>11.75</ele>
        <time>2024-07-03T11:53:09Z</time>
      </trkpt>
      <trkpt lat="46.67048" lon="-1.90457">
        <ele>11.84</ele>
        <time>2024-07-03T11:53:10Z</time>
      </trkpt>
      <trkpt lat="46.67046" lon="-1.90455">
        <ele>11.94</ele>
        <time>2024-07-03T11:53:11Z</time>
      </trkpt>
      <trkpt lat="46.67044" lon="-1.90453">
        <ele>11.98</ele>
        <time>2024-07-03T11:53:12Z</time>
      </trkpt>
      <trkpt lat="46.67012" lon="-1.90411">
        <ele>12.36</ele>
        <time>2024-07-03T11:53:27Z</time>
      </trkpt>
      <trkpt lat="46.66985" lon="-1.9038">
        <ele>12.58</ele>
        <time>2024-07-03T11:53:38Z</time>
      </trkpt>
      <trkpt lat="46.66952" lon="-1.90336">
        <ele>12.05</ele>
        <time>2024-07-03T11:53:52Z</time>
      </trkpt>
      <trkpt lat="46.66949" lon="-1.90327">
        <ele>11.29</ele>
        <time>2024-07-03T11:54:05Z</time>
      </trkpt>
      <trkpt lat="46.66949" lon="-1.90324">
        <ele>11.04</ele>
        <time>2024-07-03T11:54:14Z</time>
      </trkpt>
      <trkpt lat="46.66948" lon="-1.90323">
        <ele>11.04</ele>
        <time>2024-07-03T11:54:15Z</time>
      </trkpt>
      <trkpt lat="46.66947" lon="-1.90321">
        <ele>11.04</ele>
        <time>2024-07-03T11:54:16Z</time>
      </trkpt>
      <trkpt lat="46.66946" lon="-1.90319">
        <ele>11.04</ele>
        <time>2024-07-03T11:54:17Z</time>
      </trkpt>
      <trkpt lat="46.66944" lon="-1.90317">
        <ele>11.04</ele>
        <time>2024-07-03T11:54:18Z</time>
      </trkpt>
      <trkpt lat="46.66915" lon="-1.90283">
        <ele>11.02</ele>
        <time>2024-07-03T11:54:32Z</time>
      </trkpt>
      <trkpt lat="46.66879" lon="-1.90257">
        <ele>10.37</ele>
        <time>2024-07-03T11:54:48Z</time>
      </trkpt>
      <trkpt lat="46.66858" lon="-1.90249">
        <ele>10.31</ele>
        <time>2024-07-03T11:55:02Z</time>
      </trkpt>
      <trkpt lat="46.66854" lon="-1.90247">
        <ele>10.33</ele>
        <time>2024-07-03T11:55:08Z</time>
      </trkpt>
      <trkpt lat="46.6685" lon="-1.90246">
        <ele>10.33</ele>
        <time>2024-07-03T11:55:10Z</time>
      </trkpt>
      <trkpt lat="46.66848" lon="-1.90245">
        <ele>10.33</ele>
        <time>2024-07-03T11:55:11Z</time>
      </trkpt>
      <trkpt lat="46.66846" lon="-1.90245">
        <ele>10.33</ele>
        <time>2024-07-03T11:55:12Z</time>
      </trkpt>
      <trkpt lat="46.66844" lon="-1.90244">
        <ele>10.33</ele>
        <time>2024-07-03T11:55:13Z</time>
      </trkpt>
      <trkpt lat="46.66842" lon="-1.90244">
        <ele>10.41</ele>
        <time>2024-07-03T11:55:14Z</time>
      </trkpt>
      <trkpt lat="46.6684" lon="-1.90245">
        <ele>10.45</ele>
        <time>2024-07-03T11:55:15Z</time>
      </trkpt>
      <trkpt lat="46.66838" lon="-1.90244">
        <ele>10.46</ele>
        <time>2024-07-03T11:55:16Z</time>
      </trkpt>
      <trkpt lat="46.66836" lon="-1.90243">
        <ele>10.47</ele>
        <time>2024-07-03T11:55:17Z</time>
      </trkpt>
      <trkpt lat="46.66834" lon="-1.90243">
        <ele>10.48</ele>
        <time>2024-07-03T11:55:18Z</time>
      </trkpt>
      <trkpt lat="46.66832" lon="-1.90242">
        <ele>10.48</ele>
        <time>2024-07-03T11:55:19Z</time>
      </trkpt>
      <trkpt lat="46.66799" lon="-1.90228">
        <ele>10.34</ele>
        <time>2024-07-03T11:55:34Z</time>
      </trkpt>
      <trkpt lat="46.66768" lon="-1.90228">
        <ele>10.26</ele>
        <time>2024-07-03T11:55:48Z</time>
      </trkpt>
      <trkpt lat="46.66742" lon="-1.90217">
        <ele>10.37</ele>
        <time>2024-07-03T11:56:01Z</time>
      </trkpt>
      <trkpt lat="46.66701" lon="-1.90208">
        <ele>10.65</ele>
        <time>2024-07-03T11:56:18Z</time>
      </trkpt>
      <trkpt lat="46.66663" lon="-1.90193">
        <ele>10.63</ele>
        <time>2024-07-03T11:56:34Z</time>
      </trkpt>
      <trkpt lat="46.66639" lon="-1.90187">
        <ele>10.08</ele>
        <time>2024-07-03T11:56:47Z</time>
      </trkpt>
      <trkpt lat="46.66637" lon="-1.90188">
        <ele>9.63</ele>
        <time>2024-07-03T11:57:43Z</time>
      </trkpt>
      <trkpt lat="46.66637" lon="-1.90186">
        <ele>9.54</ele>
        <time>2024-07-03T11:58:18Z</time>
      </trkpt>
      <trkpt lat="46.66635" lon="-1.90186">
        <ele>9.51</ele>
        <time>2024-07-03T11:58:20Z</time>
      </trkpt>
      <trkpt lat="46.66633" lon="-1.90186">
        <ele>9.51</ele>
        <time>2024-07-03T11:58:22Z</time>
      </trkpt>
      <trkpt lat="46.66601" lon="-1.90182">
        <ele>9.77</ele>
        <time>2024-07-03T11:58:38Z</time>
      </trkpt>
      <trkpt lat="46.66561" lon="-1.90171">
        <ele>9.6</ele>
        <time>2024-07-03T11:58:53Z</time>
      </trkpt>
      <trkpt lat="46.66544" lon="-1.9017">
        <ele>9.57</ele>
        <time>2024-07-03T11:59:06Z</time>
      </trkpt>
      <trkpt lat="46.66545" lon="-1.9017">
        <ele>8.92</ele>
        <time>2024-07-03T11:59:27Z</time>
      </trkpt>
      <trkpt lat="46.66547" lon="-1.90168">
        <ele>8.9</ele>
        <time>2024-07-03T11:59:30Z</time>
      </trkpt>
      <trkpt lat="46.6656" lon="-1.90167">
        <ele>8.91</ele>
        <time>2024-07-03T11:59:35Z</time>
      </trkpt>
      <trkpt lat="46.66604" lon="-1.90179">
        <ele>9.1</ele>
        <time>2024-07-03T11:59:51Z</time>
      </trkpt>
      <trkpt lat="46.66639" lon="-1.90188">
        <ele>9.94</ele>
        <time>2024-07-03T12:00:03Z</time>
      </trkpt>
      <trkpt lat="46.66693" lon="-1.90202">
        <ele>10.21</ele>
        <time>2024-07-03T12:00:18Z</time>
      </trkpt>
      <trkpt lat="46.66733" lon="-1.90213">
        <ele>10.9</ele>
        <time>2024-07-03T12:00:31Z</time>
      </trkpt>
      <trkpt lat="46.66783" lon="-1.90227">
        <ele>10.75</ele>
        <time>2024-07-03T12:00:47Z</time>
      </trkpt>
      <trkpt lat="46.66801" lon="-1.9023">
        <ele>10.38</ele>
        <time>2024-07-03T12:00:58Z</time>
      </trkpt>
      <trkpt lat="46.66807" lon="-1.90233">
        <ele>9.79</ele>
        <time>2024-07-03T12:01:26Z</time>
      </trkpt>
      <trkpt lat="46.6681" lon="-1.90233">
        <ele>9.87</ele>
        <time>2024-07-03T12:01:29Z</time>
      </trkpt>
      <trkpt lat="46.66811" lon="-1.90233">
        <ele>9.92</ele>
        <time>2024-07-03T12:01:30Z</time>
      </trkpt>
      <trkpt lat="46.66814" lon="-1.90233">
        <ele>9.98</ele>
        <time>2024-07-03T12:01:31Z</time>
      </trkpt>
      <trkpt lat="46.66816" lon="-1.90233">
        <ele>10.08</ele>
        <time>2024-07-03T12:01:32Z</time>
      </trkpt>
      <trkpt lat="46.66819" lon="-1.90234">
        <ele>10.23</ele>
        <time>2024-07-03T12:01:33Z</time>
      </trkpt>
      <trkpt lat="46.66851" lon="-1.90243">
        <ele>10.51</ele>
        <time>2024-07-03T12:01:47Z</time>
      </trkpt>
      <trkpt lat="46.66854" lon="-1.90244">
        <ele>10.51</ele>
        <time>2024-07-03T12:01:52Z</time>
      </trkpt>
      <trkpt lat="46.66856" lon="-1.90245">
        <ele>10.51</ele>
        <time>2024-07-03T12:01:53Z</time>
      </trkpt>
      <trkpt lat="46.6689" lon="-1.90264">
        <ele>10.17</ele>
        <time>2024-07-03T12:02:06Z</time>
      </trkpt>
      <trkpt lat="46.66929" lon="-1.90292">
        <ele>9.7</ele>
        <time>2024-07-03T12:02:21Z</time>
      </trkpt>
      <trkpt lat="46.66948" lon="-1.90323">
        <ele>10</ele>
        <time>2024-07-03T12:02:35Z</time>
      </trkpt>
      <trkpt lat="46.6695" lon="-1.90323">
        <ele>11.28</ele>
        <time>2024-07-03T12:02:41Z</time>
      </trkpt>
      <trkpt lat="46.66959" lon="-1.90318">
        <ele>11.04</ele>
        <time>2024-07-03T12:02:52Z</time>
      </trkpt>
      <trkpt lat="46.66961" lon="-1.90314">
        <ele>10.95</ele>
        <time>2024-07-03T12:02:55Z</time>
      </trkpt>
      <trkpt lat="46.6697" lon="-1.90296">
        <ele>11.18</ele>
        <time>2024-07-03T12:03:12Z</time>
      </trkpt>
      <trkpt lat="46.66969" lon="-1.90291">
        <ele>11.87</ele>
        <time>2024-07-03T12:03:29Z</time>
      </trkpt>
      <trkpt lat="46.66968" lon="-1.90289">
        <ele>11.88</ele>
        <time>2024-07-03T12:03:30Z</time>
      </trkpt>
      <trkpt lat="46.66967" lon="-1.90287">
        <ele>11.88</ele>
        <time>2024-07-03T12:03:31Z</time>
      </trkpt>
      <trkpt lat="46.66967" lon="-1.90288">
        <ele>11.29</ele>
        <time>2024-07-03T12:03:48Z</time>
      </trkpt>
      <trkpt lat="46.66971" lon="-1.90295">
        <ele>11.21</ele>
        <time>2024-07-03T12:04:00Z</time>
      </trkpt>
      <trkpt lat="46.66972" lon="-1.90296">
        <ele>11.39</ele>
        <time>2024-07-03T12:04:23Z</time>
      </trkpt>
      <trkpt lat="46.66972" lon="-1.90296">
        <ele>11.51</ele>
        <time>2024-07-03T12:05:04Z</time>
      </trkpt>
      <trkpt lat="46.66971" lon="-1.90291">
        <ele>11.5</ele>
        <time>2024-07-03T12:05:12Z</time>
      </trkpt>
      <trkpt lat="46.6697" lon="-1.9029">
        <ele>11.51</ele>
        <time>2024-07-03T12:05:13Z</time>
      </trkpt>
      <trkpt lat="46.66969" lon="-1.90288">
        <ele>11.67</ele>
        <time>2024-07-03T12:05:28Z</time>
      </trkpt>
      <trkpt lat="46.66969" lon="-1.9029">
        <ele>11.6</ele>
        <time>2024-07-03T12:06:10Z</time>
      </trkpt>
      <trkpt lat="46.66965" lon="-1.90288">
        <ele>11.46</ele>
        <time>2024-07-03T12:06:16Z</time>
      </trkpt>
      <trkpt lat="46.66964" lon="-1.90287">
        <ele>11.46</ele>
        <time>2024-07-03T12:06:17Z</time>
      </trkpt>
      <trkpt lat="46.66963" lon="-1.90284">
        <ele>11.45</ele>
        <time>2024-07-03T12:06:18Z</time>
      </trkpt>
      <trkpt lat="46.66961" lon="-1.90282">
        <ele>11.41</ele>
        <time>2024-07-03T12:06:19Z</time>
      </trkpt>
      <trkpt lat="46.66959" lon="-1.90281">
        <ele>11.37</ele>
        <time>2024-07-03T12:06:20Z</time>
      </trkpt>
      <trkpt lat="46.66957" lon="-1.90279">
        <ele>11.35</ele>
        <time>2024-07-03T12:06:21Z</time>
      </trkpt>
      <trkpt lat="46.66954" lon="-1.90278">
        <ele>11.34</ele>
        <time>2024-07-03T12:06:22Z</time>
      </trkpt>
      <trkpt lat="46.66952" lon="-1.90276">
        <ele>11.29</ele>
        <time>2024-07-03T12:06:23Z</time>
      </trkpt>
      <trkpt lat="46.6695" lon="-1.90275">
        <ele>11.25</ele>
        <time>2024-07-03T12:06:24Z</time>
      </trkpt>
      <trkpt lat="46.66947" lon="-1.90273">
        <ele>11.2</ele>
        <time>2024-07-03T12:06:25Z</time>
      </trkpt>
      <trkpt lat="46.66945" lon="-1.90271">
        <ele>11.17</ele>
        <time>2024-07-03T12:06:26Z</time>
      </trkpt>
      <trkpt lat="46.66942" lon="-1.9027">
        <ele>11.12</ele>
        <time>2024-07-03T12:06:27Z</time>
      </trkpt>
      <trkpt lat="46.66909" lon="-1.90255">
        <ele>10.77</ele>
        <time>2024-07-03T12:06:39Z</time>
      </trkpt>
      <trkpt lat="46.66869" lon="-1.90228">
        <ele>10.85</ele>
        <time>2024-07-03T12:06:52Z</time>
      </trkpt>
      <trkpt lat="46.66826" lon="-1.9021">
        <ele>10.46</ele>
        <time>2024-07-03T12:07:04Z</time>
      </trkpt>
      <trkpt lat="46.66785" lon="-1.90208">
        <ele>10.27</ele>
        <time>2024-07-03T12:07:16Z</time>
      </trkpt>
      <trkpt lat="46.66761" lon="-1.90189">
        <ele>10.7</ele>
        <time>2024-07-03T12:07:28Z</time>
      </trkpt>
      <trkpt lat="46.66733" lon="-1.90181">
        <ele>11.23</ele>
        <time>2024-07-03T12:07:40Z</time>
      </trkpt>
      <trkpt lat="46.6673" lon="-1.90181">
        <ele>11.24</ele>
        <time>2024-07-03T12:07:41Z</time>
      </trkpt>
      <trkpt lat="46.66728" lon="-1.9018">
        <ele>11.26</ele>
        <time>2024-07-03T12:07:42Z</time>
      </trkpt>
      <trkpt lat="46.66725" lon="-1.90179">
        <ele>11.32</ele>
        <time>2024-07-03T12:07:43Z</time>
      </trkpt>
      <trkpt lat="46.66723" lon="-1.90178">
        <ele>11.38</ele>
        <time>2024-07-03T12:07:44Z</time>
      </trkpt>
      <trkpt lat="46.6672" lon="-1.90177">
        <ele>11.41</ele>
        <time>2024-07-03T12:07:45Z</time>
      </trkpt>
      <trkpt lat="46.66717" lon="-1.90176">
        <ele>11.46</ele>
        <time>2024-07-03T12:07:46Z</time>
      </trkpt>
      <trkpt lat="46.66715" lon="-1.90175">
        <ele>11.49</ele>
        <time>2024-07-03T12:07:47Z</time>
      </trkpt>
      <trkpt lat="46.66691" lon="-1.90141">
        <ele>12.32</ele>
        <time>2024-07-03T12:08:00Z</time>
      </trkpt>
      <trkpt lat="46.66678" lon="-1.901">
        <ele>13.8</ele>
        <time>2024-07-03T12:08:12Z</time>
      </trkpt>
      <trkpt lat="46.66663" lon="-1.9005">
        <ele>14.05</ele>
        <time>2024-07-03T12:08:28Z</time>
      </trkpt>
      <trkpt lat="46.66666" lon="-1.90055">
        <ele>13.89</ele>
        <time>2024-07-03T12:08:41Z</time>
      </trkpt>
      <trkpt lat="46.66666" lon="-1.90057">
        <ele>13.88</ele>
        <time>2024-07-03T12:08:43Z</time>
      </trkpt>
      <trkpt lat="46.6667" lon="-1.90073">
        <ele>13.68</ele>
        <time>2024-07-03T12:08:52Z</time>
      </trkpt>
      <trkpt lat="46.66678" lon="-1.90103">
        <ele>13.85</ele>
        <time>2024-07-03T12:09:10Z</time>
      </trkpt>
      <trkpt lat="46.6668" lon="-1.90105">
        <ele>14.26</ele>
        <time>2024-07-03T12:10:13Z</time>
      </trkpt>
      <trkpt lat="46.6668" lon="-1.90107">
        <ele>14.28</ele>
        <time>2024-07-03T12:10:47Z</time>
      </trkpt>
      <trkpt lat="46.6668" lon="-1.90107">
        <ele>14.4</ele>
        <time>2024-07-03T12:11:15Z</time>
      </trkpt>
      <trkpt lat="46.6668" lon="-1.90107">
        <ele>14.39</ele>
        <time>2024-07-03T12:11:42Z</time>
      </trkpt>
      <trkpt lat="46.6668" lon="-1.90103">
        <ele>14.2</ele>
        <time>2024-07-03T12:12:23Z</time>
      </trkpt>
      <trkpt lat="46.6668" lon="-1.90103">
        <ele>14.13</ele>
        <time>2024-07-03T12:12:27Z</time>
      </trkpt>
      <trkpt lat="46.6668" lon="-1.90107">
        <ele>14.31</ele>
        <time>2024-07-03T12:13:00Z</time>
      </trkpt>
      <trkpt lat="46.66677" lon="-1.90104">
        <ele>14.38</ele>
        <time>2024-07-03T12:13:25Z</time>
      </trkpt>
      <trkpt lat="46.66676" lon="-1.90098">
        <ele>14.56</ele>
        <time>2024-07-03T12:13:39Z</time>
      </trkpt>
      <trkpt lat="46.66663" lon="-1.90046">
        <ele>13.95</ele>
        <time>2024-07-03T12:13:54Z</time>
      </trkpt>
      <trkpt lat="46.66649" lon="-1.89987">
        <ele>13.09</ele>
        <time>2024-07-03T12:14:08Z</time>
      </trkpt>
      <trkpt lat="46.66636" lon="-1.89941">
        <ele>12.07</ele>
        <time>2024-07-03T12:14:19Z</time>
      </trkpt>
      <trkpt lat="46.66632" lon="-1.89939">
        <ele>11.9</ele>
        <time>2024-07-03T12:14:20Z</time>
      </trkpt>
      <trkpt lat="46.66629" lon="-1.89939">
        <ele>11.8</ele>
        <time>2024-07-03T12:14:21Z</time>
      </trkpt>
      <trkpt lat="46.66625" lon="-1.89939">
        <ele>11.69</ele>
        <time>2024-07-03T12:14:22Z</time>
      </trkpt>
      <trkpt lat="46.66622" lon="-1.8994">
        <ele>11.59</ele>
        <time>2024-07-03T12:14:23Z</time>
      </trkpt>
      <trkpt lat="46.66618" lon="-1.89941">
        <ele>11.46</ele>
        <time>2024-07-03T12:14:24Z</time>
      </trkpt>
      <trkpt lat="46.66602" lon="-1.89954">
        <ele>10.65</ele>
        <time>2024-07-03T12:14:30Z</time>
      </trkpt>
      <trkpt lat="46.66599" lon="-1.89955">
        <ele>10.54</ele>
        <time>2024-07-03T12:14:31Z</time>
      </trkpt>
      <trkpt lat="46.66596" lon="-1.89954">
        <ele>10.38</ele>
        <time>2024-07-03T12:14:32Z</time>
      </trkpt>
      <trkpt lat="46.66565" lon="-1.8994">
        <ele>9.35</ele>
        <time>2024-07-03T12:14:42Z</time>
      </trkpt>
      <trkpt lat="46.66563" lon="-1.89935">
        <ele>9.35</ele>
        <time>2024-07-03T12:14:43Z</time>
      </trkpt>
      <trkpt lat="46.66558" lon="-1.89857">
        <ele>9.42</ele>
        <time>2024-07-03T12:14:57Z</time>
      </trkpt>
      <trkpt lat="46.66551" lon="-1.89798">
        <ele>8.04</ele>
        <time>2024-07-03T12:15:08Z</time>
      </trkpt>
      <trkpt lat="46.66547" lon="-1.89796">
        <ele>7.91</ele>
        <time>2024-07-03T12:15:09Z</time>
      </trkpt>
      <trkpt lat="46.66544" lon="-1.89794">
        <ele>7.83</ele>
        <time>2024-07-03T12:15:10Z</time>
      </trkpt>
      <trkpt lat="46.66541" lon="-1.89791">
        <ele>7.79</ele>
        <time>2024-07-03T12:15:11Z</time>
      </trkpt>
      <trkpt lat="46.6654" lon="-1.89788">
        <ele>7.77</ele>
        <time>2024-07-03T12:15:12Z</time>
      </trkpt>
      <trkpt lat="46.6654" lon="-1.89783">
        <ele>7.66</ele>
        <time>2024-07-03T12:15:13Z</time>
      </trkpt>
      <trkpt lat="46.6654" lon="-1.89778">
        <ele>7.6</ele>
        <time>2024-07-03T12:15:14Z</time>
      </trkpt>
      <trkpt lat="46.66542" lon="-1.89772">
        <ele>7.57</ele>
        <time>2024-07-03T12:15:15Z</time>
      </trkpt>
      <trkpt lat="46.66559" lon="-1.89687">
        <ele>7.09</ele>
        <time>2024-07-03T12:15:31Z</time>
      </trkpt>
      <trkpt lat="46.66578" lon="-1.89625">
        <ele>7.33</ele>
        <time>2024-07-03T12:15:46Z</time>
      </trkpt>
      <trkpt lat="46.66605" lon="-1.89571">
        <ele>8.35</ele>
        <time>2024-07-03T12:16:00Z</time>
      </trkpt>
      <trkpt lat="46.66627" lon="-1.89523">
        <ele>9.7</ele>
        <time>2024-07-03T12:16:14Z</time>
      </trkpt>
      <trkpt lat="46.66621" lon="-1.89486">
        <ele>10.44</ele>
        <time>2024-07-03T12:16:26Z</time>
      </trkpt>
      <trkpt lat="46.66602" lon="-1.89411">
        <ele>9.89</ele>
        <time>2024-07-03T12:16:42Z</time>
      </trkpt>
      <trkpt lat="46.66579" lon="-1.89377">
        <ele>9.59</ele>
        <time>2024-07-03T12:16:52Z</time>
      </trkpt>
      <trkpt lat="46.66534" lon="-1.89383">
        <ele>8.48</ele>
        <time>2024-07-03T12:17:07Z</time>
      </trkpt>
      <trkpt lat="46.6652" lon="-1.89354">
        <ele>8.11</ele>
        <time>2024-07-03T12:17:15Z</time>
      </trkpt>
      <trkpt lat="46.66528" lon="-1.89293">
        <ele>7.9</ele>
        <time>2024-07-03T12:17:28Z</time>
      </trkpt>
      <trkpt lat="46.66544" lon="-1.89242">
        <ele>7.42</ele>
        <time>2024-07-03T12:17:41Z</time>
      </trkpt>
      <trkpt lat="46.66546" lon="-1.89196">
        <ele>7.67</ele>
        <time>2024-07-03T12:17:54Z</time>
      </trkpt>
      <trkpt lat="46.66542" lon="-1.89148">
        <ele>8.21</ele>
        <time>2024-07-03T12:18:07Z</time>
      </trkpt>
      <trkpt lat="46.66528" lon="-1.89096">
        <ele>8.23</ele>
        <time>2024-07-03T12:18:19Z</time>
      </trkpt>
      <trkpt lat="46.66531" lon="-1.89049">
        <ele>8.03</ele>
        <time>2024-07-03T12:18:30Z</time>
      </trkpt>
      <trkpt lat="46.66532" lon="-1.88992">
        <ele>8.14</ele>
        <time>2024-07-03T12:18:42Z</time>
      </trkpt>
      <trkpt lat="46.66527" lon="-1.88943">
        <ele>8.18</ele>
        <time>2024-07-03T12:18:54Z</time>
      </trkpt>
      <trkpt lat="46.66529" lon="-1.88895">
        <ele>7.71</ele>
        <time>2024-07-03T12:19:05Z</time>
      </trkpt>
      <trkpt lat="46.66546" lon="-1.88857">
        <ele>7.4</ele>
        <time>2024-07-03T12:19:19Z</time>
      </trkpt>
      <trkpt lat="46.66574" lon="-1.88821">
        <ele>7.47</ele>
        <time>2024-07-03T12:19:33Z</time>
      </trkpt>
      <trkpt lat="46.66611" lon="-1.88779">
        <ele>7.85</ele>
        <time>2024-07-03T12:19:49Z</time>
      </trkpt>
      <trkpt lat="46.66645" lon="-1.88738">
        <ele>7.82</ele>
        <time>2024-07-03T12:20:03Z</time>
      </trkpt>
      <trkpt lat="46.66685" lon="-1.88711">
        <ele>7.75</ele>
        <time>2024-07-03T12:20:17Z</time>
      </trkpt>
      <trkpt lat="46.66711" lon="-1.88712">
        <ele>7.85</ele>
        <time>2024-07-03T12:20:27Z</time>
      </trkpt>
      <trkpt lat="46.66744" lon="-1.88718">
        <ele>7.95</ele>
        <time>2024-07-03T12:20:40Z</time>
      </trkpt>
      <trkpt lat="46.66772" lon="-1.88697">
        <ele>8.56</ele>
        <time>2024-07-03T12:20:53Z</time>
      </trkpt>
      <trkpt lat="46.66767" lon="-1.88649">
        <ele>8.99</ele>
        <time>2024-07-03T12:21:08Z</time>
      </trkpt>
      <trkpt lat="46.66763" lon="-1.88645">
        <ele>8.84</ele>
        <time>2024-07-03T12:21:19Z</time>
      </trkpt>
      <trkpt lat="46.66765" lon="-1.88643">
        <ele>8.45</ele>
        <time>2024-07-03T12:22:34Z</time>
      </trkpt>
      <trkpt lat="46.66763" lon="-1.88643">
        <ele>8.56</ele>
        <time>2024-07-03T12:23:30Z</time>
      </trkpt>
      <trkpt lat="46.66764" lon="-1.88641">
        <ele>9.09</ele>
        <time>2024-07-03T12:24:15Z</time>
      </trkpt>
      <trkpt lat="46.66763" lon="-1.88636">
        <ele>8.64</ele>
        <time>2024-07-03T12:24:44Z</time>
      </trkpt>
      <trkpt lat="46.66763" lon="-1.88631">
        <ele>8.6</ele>
        <time>2024-07-03T12:24:47Z</time>
      </trkpt>
      <trkpt lat="46.66764" lon="-1.8863">
        <ele>8.6</ele>
        <time>2024-07-03T12:24:48Z</time>
      </trkpt>
      <trkpt lat="46.66765" lon="-1.88629">
        <ele>8.6</ele>
        <time>2024-07-03T12:24:49Z</time>
      </trkpt>
      <trkpt lat="46.66766" lon="-1.88629">
        <ele>8.57</ele>
        <time>2024-07-03T12:24:50Z</time>
      </trkpt>
      <trkpt lat="46.66767" lon="-1.88628">
        <ele>8.55</ele>
        <time>2024-07-03T12:24:51Z</time>
      </trkpt>
      <trkpt lat="46.66769" lon="-1.88627">
        <ele>8.56</ele>
        <time>2024-07-03T12:24:52Z</time>
      </trkpt>
      <trkpt lat="46.6677" lon="-1.88627">
        <ele>8.57</ele>
        <time>2024-07-03T12:24:53Z</time>
      </trkpt>
      <trkpt lat="46.66771" lon="-1.88625">
        <ele>8.58</ele>
        <time>2024-07-03T12:24:54Z</time>
      </trkpt>
      <trkpt lat="46.66772" lon="-1.88623">
        <ele>8.58</ele>
        <time>2024-07-03T12:24:55Z</time>
      </trkpt>
      <trkpt lat="46.66774" lon="-1.88621">
        <ele>8.58</ele>
        <time>2024-07-03T12:24:56Z</time>
      </trkpt>
      <trkpt lat="46.66775" lon="-1.88619">
        <ele>8.6</ele>
        <time>2024-07-03T12:24:57Z</time>
      </trkpt>
      <trkpt lat="46.66777" lon="-1.88617">
        <ele>8.6</ele>
        <time>2024-07-03T12:24:58Z</time>
      </trkpt>
      <trkpt lat="46.66779" lon="-1.88615">
        <ele>8.68</ele>
        <time>2024-07-03T12:24:59Z</time>
      </trkpt>
      <trkpt lat="46.66797" lon="-1.88565">
        <ele>9.56</ele>
        <time>2024-07-03T12:25:15Z</time>
      </trkpt>
      <trkpt lat="46.66819" lon="-1.88537">
        <ele>9.49</ele>
        <time>2024-07-03T12:25:27Z</time>
      </trkpt>
      <trkpt lat="46.66822" lon="-1.88532">
        <ele>10</ele>
        <time>2024-07-03T12:25:43Z</time>
      </trkpt>
      <trkpt lat="46.66821" lon="-1.88529">
        <ele>9.89</ele>
        <time>2024-07-03T12:25:44Z</time>
      </trkpt>
      <trkpt lat="46.6682" lon="-1.88527">
        <ele>9.82</ele>
        <time>2024-07-03T12:25:45Z</time>
      </trkpt>
      <trkpt lat="46.6682" lon="-1.88523">
        <ele>9.7</ele>
        <time>2024-07-03T12:25:46Z</time>
      </trkpt>
      <trkpt lat="46.66819" lon="-1.88519">
        <ele>9.55</ele>
        <time>2024-07-03T12:25:47Z</time>
      </trkpt>
      <trkpt lat="46.66818" lon="-1.88514">
        <ele>9.38</ele>
        <time>2024-07-03T12:25:48Z</time>
      </trkpt>
      <trkpt lat="46.66828" lon="-1.88469">
        <ele>8.11</ele>
        <time>2024-07-03T12:25:58Z</time>
      </trkpt>
      <trkpt lat="46.66852" lon="-1.88429">
        <ele>7.53</ele>
        <time>2024-07-03T12:26:11Z</time>
      </trkpt>
      <trkpt lat="46.66868" lon="-1.88396">
        <ele>7.36</ele>
        <time>2024-07-03T12:26:21Z</time>
      </trkpt>
      <trkpt lat="46.66867" lon="-1.88391">
        <ele>7.37</ele>
        <time>2024-07-03T12:26:22Z</time>
      </trkpt>
      <trkpt lat="46.66866" lon="-1.88387">
        <ele>7.4</ele>
        <time>2024-07-03T12:26:23Z</time>
      </trkpt>
      <trkpt lat="46.66863" lon="-1.88377">
        <ele>7.52</ele>
        <time>2024-07-03T12:26:26Z</time>
      </trkpt>
      <trkpt lat="46.66865" lon="-1.88375">
        <ele>7.55</ele>
        <time>2024-07-03T12:26:27Z</time>
      </trkpt>
      <trkpt lat="46.66867" lon="-1.88373">
        <ele>7.67</ele>
        <time>2024-07-03T12:26:28Z</time>
      </trkpt>
      <trkpt lat="46.6687" lon="-1.88372">
        <ele>7.74</ele>
        <time>2024-07-03T12:26:29Z</time>
      </trkpt>
      <trkpt lat="46.66872" lon="-1.88372">
        <ele>7.77</ele>
        <time>2024-07-03T12:26:30Z</time>
      </trkpt>
      <trkpt lat="46.66875" lon="-1.88373">
        <ele>7.79</ele>
        <time>2024-07-03T12:26:31Z</time>
      </trkpt>
      <trkpt lat="46.66877" lon="-1.88372">
        <ele>7.77</ele>
        <time>2024-07-03T12:26:32Z</time>
      </trkpt>
      <trkpt lat="46.6688" lon="-1.88371">
        <ele>7.76</ele>
        <time>2024-07-03T12:26:33Z</time>
      </trkpt>
      <trkpt lat="46.66882" lon="-1.88369">
        <ele>7.75</ele>
        <time>2024-07-03T12:26:34Z</time>
      </trkpt>
      <trkpt lat="46.66904" lon="-1.88329">
        <ele>7.78</ele>
        <time>2024-07-03T12:26:47Z</time>
      </trkpt>
      <trkpt lat="46.66923" lon="-1.88278">
        <ele>6.67</ele>
        <time>2024-07-03T12:27:03Z</time>
      </trkpt>
      <trkpt lat="46.66957" lon="-1.88244">
        <ele>9</ele>
        <time>2024-07-03T12:27:20Z</time>
      </trkpt>
      <trkpt lat="46.66978" lon="-1.88226">
        <ele>10.56</ele>
        <time>2024-07-03T12:27:33Z</time>
      </trkpt>
      <trkpt lat="46.66981" lon="-1.88225">
        <ele>10.6</ele>
        <time>2024-07-03T12:27:35Z</time>
      </trkpt>
      <trkpt lat="46.67006" lon="-1.88202">
        <ele>9.96</ele>
        <time>2024-07-03T12:27:51Z</time>
      </trkpt>
      <trkpt lat="46.67031" lon="-1.8818">
        <ele>9.59</ele>
        <time>2024-07-03T12:28:04Z</time>
      </trkpt>
      <trkpt lat="46.67062" lon="-1.88164">
        <ele>9.75</ele>
        <time>2024-07-03T12:28:16Z</time>
      </trkpt>
      <trkpt lat="46.67086" lon="-1.88185">
        <ele>10.38</ele>
        <time>2024-07-03T12:28:28Z</time>
      </trkpt>
      <trkpt lat="46.67115" lon="-1.88209">
        <ele>10.63</ele>
        <time>2024-07-03T12:28:41Z</time>
      </trkpt>
      <trkpt lat="46.67144" lon="-1.88219">
        <ele>10.61</ele>
        <time>2024-07-03T12:28:54Z</time>
      </trkpt>
      <trkpt lat="46.67147" lon="-1.88219">
        <ele>11.9</ele>
        <time>2024-07-03T12:29:09Z</time>
      </trkpt>
      <trkpt lat="46.6715" lon="-1.88219">
        <ele>12.14</ele>
        <time>2024-07-03T12:29:48Z</time>
      </trkpt>
      <trkpt lat="46.67152" lon="-1.88219">
        <ele>12.12</ele>
        <time>2024-07-03T12:30:30Z</time>
      </trkpt>
      <trkpt lat="46.6715" lon="-1.88221">
        <ele>11.89</ele>
        <time>2024-07-03T12:31:21Z</time>
      </trkpt>
      <trkpt lat="46.67147" lon="-1.88222">
        <ele>11.79</ele>
        <time>2024-07-03T12:31:24Z</time>
      </trkpt>
      <trkpt lat="46.67145" lon="-1.88221">
        <ele>11.78</ele>
        <time>2024-07-03T12:31:25Z</time>
      </trkpt>
      <trkpt lat="46.67142" lon="-1.88221">
        <ele>11.83</ele>
        <time>2024-07-03T12:31:26Z</time>
      </trkpt>
      <trkpt lat="46.67139" lon="-1.8822">
        <ele>11.85</ele>
        <time>2024-07-03T12:31:27Z</time>
      </trkpt>
      <trkpt lat="46.67136" lon="-1.88218">
        <ele>11.86</ele>
        <time>2024-07-03T12:31:28Z</time>
      </trkpt>
      <trkpt lat="46.67133" lon="-1.88218">
        <ele>11.87</ele>
        <time>2024-07-03T12:31:29Z</time>
      </trkpt>
      <trkpt lat="46.67129" lon="-1.88217">
        <ele>11.87</ele>
        <time>2024-07-03T12:31:30Z</time>
      </trkpt>
      <trkpt lat="46.67083" lon="-1.88184">
        <ele>10.96</ele>
        <time>2024-07-03T12:31:47Z</time>
      </trkpt>
      <trkpt lat="46.67057" lon="-1.88163">
        <ele>10.95</ele>
        <time>2024-07-03T12:31:58Z</time>
      </trkpt>
      <trkpt lat="46.67054" lon="-1.88164">
        <ele>10.95</ele>
        <time>2024-07-03T12:31:59Z</time>
      </trkpt>
      <trkpt lat="46.67021" lon="-1.88187">
        <ele>10.77</ele>
        <time>2024-07-03T12:32:13Z</time>
      </trkpt>
      <trkpt lat="46.67012" lon="-1.88194">
        <ele>11.2</ele>
        <time>2024-07-03T12:32:19Z</time>
      </trkpt>
      <trkpt lat="46.67011" lon="-1.88194">
        <ele>11.21</ele>
        <time>2024-07-03T12:32:20Z</time>
      </trkpt>
      <trkpt lat="46.67009" lon="-1.88195">
        <ele>11.22</ele>
        <time>2024-07-03T12:32:21Z</time>
      </trkpt>
      <trkpt lat="46.67008" lon="-1.88201">
        <ele>11.78</ele>
        <time>2024-07-03T12:32:36Z</time>
      </trkpt>
      <trkpt lat="46.67006" lon="-1.88201">
        <ele>11.97</ele>
        <time>2024-07-03T12:33:35Z</time>
      </trkpt>
      <trkpt lat="46.67004" lon="-1.88206">
        <ele>11.69</ele>
        <time>2024-07-03T12:34:07Z</time>
      </trkpt>
      <trkpt lat="46.67002" lon="-1.88208">
        <ele>11.68</ele>
        <time>2024-07-03T12:34:08Z</time>
      </trkpt>
      <trkpt lat="46.66999" lon="-1.88209">
        <ele>11.67</ele>
        <time>2024-07-03T12:34:09Z</time>
      </trkpt>
      <trkpt lat="46.66996" lon="-1.88211">
        <ele>11.65</ele>
        <time>2024-07-03T12:34:10Z</time>
      </trkpt>
      <trkpt lat="46.66993" lon="-1.88213">
        <ele>11.63</ele>
        <time>2024-07-03T12:34:11Z</time>
      </trkpt>
      <trkpt lat="46.6699" lon="-1.88216">
        <ele>11.62</ele>
        <time>2024-07-03T12:34:12Z</time>
      </trkpt>
      <trkpt lat="46.66987" lon="-1.8822">
        <ele>11.54</ele>
        <time>2024-07-03T12:34:13Z</time>
      </trkpt>
      <trkpt lat="46.66984" lon="-1.88223">
        <ele>11.33</ele>
        <time>2024-07-03T12:34:14Z</time>
      </trkpt>
      <trkpt lat="46.6698" lon="-1.88227">
        <ele>11.16</ele>
        <time>2024-07-03T12:34:15Z</time>
      </trkpt>
      <trkpt lat="46.66923" lon="-1.88273">
        <ele>9.77</ele>
        <time>2024-07-03T12:34:30Z</time>
      </trkpt>
      <trkpt lat="46.6692" lon="-1.88276">
        <ele>9.75</ele>
        <time>2024-07-03T12:34:31Z</time>
      </trkpt>
      <trkpt lat="46.66918" lon="-1.8828">
        <ele>9.73</ele>
        <time>2024-07-03T12:34:32Z</time>
      </trkpt>
      <trkpt lat="46.66916" lon="-1.88283">
        <ele>9.72</ele>
        <time>2024-07-03T12:34:33Z</time>
      </trkpt>
      <trkpt lat="46.66914" lon="-1.88287">
        <ele>9.63</ele>
        <time>2024-07-03T12:34:34Z</time>
      </trkpt>
      <trkpt lat="46.66913" lon="-1.88292">
        <ele>9.52</ele>
        <time>2024-07-03T12:34:35Z</time>
      </trkpt>
      <trkpt lat="46.66912" lon="-1.88297">
        <ele>9.41</ele>
        <time>2024-07-03T12:34:36Z</time>
      </trkpt>
      <trkpt lat="46.66891" lon="-1.88359">
        <ele>8.09</ele>
        <time>2024-07-03T12:34:45Z</time>
      </trkpt>
      <trkpt lat="46.66887" lon="-1.88364">
        <ele>8.36</ele>
        <time>2024-07-03T12:34:46Z</time>
      </trkpt>
      <trkpt lat="46.66883" lon="-1.88369">
        <ele>8.5</ele>
        <time>2024-07-03T12:34:47Z</time>
      </trkpt>
      <trkpt lat="46.66878" lon="-1.88372">
        <ele>8.38</ele>
        <time>2024-07-03T12:34:48Z</time>
      </trkpt>
      <trkpt lat="46.66873" lon="-1.88372">
        <ele>8.3</ele>
        <time>2024-07-03T12:34:49Z</time>
      </trkpt>
      <trkpt lat="46.66868" lon="-1.88372">
        <ele>8.18</ele>
        <time>2024-07-03T12:34:50Z</time>
      </trkpt>
      <trkpt lat="46.66864" lon="-1.88374">
        <ele>8.12</ele>
        <time>2024-07-03T12:34:51Z</time>
      </trkpt>
      <trkpt lat="46.66861" lon="-1.88377">
        <ele>8.17</ele>
        <time>2024-07-03T12:34:52Z</time>
      </trkpt>
      <trkpt lat="46.66861" lon="-1.88379">
        <ele>8.19</ele>
        <time>2024-07-03T12:34:53Z</time>
      </trkpt>
      <trkpt lat="46.66864" lon="-1.88383">
        <ele>8.08</ele>
        <time>2024-07-03T12:35:04Z</time>
      </trkpt>
      <trkpt lat="46.66865" lon="-1.88385">
        <ele>8.07</ele>
        <time>2024-07-03T12:35:05Z</time>
      </trkpt>
      <trkpt lat="46.66867" lon="-1.88388">
        <ele>8.02</ele>
        <time>2024-07-03T12:35:06Z</time>
      </trkpt>
      <trkpt lat="46.66868" lon="-1.88391">
        <ele>7.84</ele>
        <time>2024-07-03T12:35:07Z</time>
      </trkpt>
      <trkpt lat="46.66868" lon="-1.88396">
        <ele>7.84</ele>
        <time>2024-07-03T12:35:08Z</time>
      </trkpt>
      <trkpt lat="46.66868" lon="-1.88401">
        <ele>7.8</ele>
        <time>2024-07-03T12:35:09Z</time>
      </trkpt>
      <trkpt lat="46.66866" lon="-1.88406">
        <ele>7.79</ele>
        <time>2024-07-03T12:35:10Z</time>
      </trkpt>
      <trkpt lat="46.66863" lon="-1.88412">
        <ele>7.96</ele>
        <time>2024-07-03T12:35:11Z</time>
      </trkpt>
      <trkpt lat="46.6686" lon="-1.88417">
        <ele>8.15</ele>
        <time>2024-07-03T12:35:12Z</time>
      </trkpt>
      <trkpt lat="46.66826" lon="-1.88472">
        <ele>8.12</ele>
        <time>2024-07-03T12:35:23Z</time>
      </trkpt>
      <trkpt lat="46.66823" lon="-1.88478">
        <ele>8.11</ele>
        <time>2024-07-03T12:35:24Z</time>
      </trkpt>
      <trkpt lat="46.66819" lon="-1.88524">
        <ele>7.91</ele>
        <time>2024-07-03T12:35:34Z</time>
      </trkpt>
      <trkpt lat="46.66821" lon="-1.88529">
        <ele>9.45</ele>
        <time>2024-07-03T12:35:45Z</time>
      </trkpt>
      <trkpt lat="46.66824" lon="-1.88531">
        <ele>10.38</ele>
        <time>2024-07-03T12:36:10Z</time>
      </trkpt>
      <trkpt lat="46.66824" lon="-1.88528">
        <ele>10.3</ele>
        <time>2024-07-03T12:36:50Z</time>
      </trkpt>
      <trkpt lat="46.66822" lon="-1.8853">
        <ele>10.14</ele>
        <time>2024-07-03T12:37:18Z</time>
      </trkpt>
      <trkpt lat="46.6682" lon="-1.88522">
        <ele>10.15</ele>
        <time>2024-07-03T12:37:46Z</time>
      </trkpt>
      <trkpt lat="46.6682" lon="-1.88518">
        <ele>10.24</ele>
        <time>2024-07-03T12:37:47Z</time>
      </trkpt>
      <trkpt lat="46.66822" lon="-1.8848">
        <ele>9.32</ele>
        <time>2024-07-03T12:37:58Z</time>
      </trkpt>
      <trkpt lat="46.6685" lon="-1.88436">
        <ele>8.81</ele>
        <time>2024-07-03T12:38:14Z</time>
      </trkpt>
      <trkpt lat="46.66867" lon="-1.8839">
        <ele>8.93</ele>
        <time>2024-07-03T12:38:27Z</time>
      </trkpt>
      <trkpt lat="46.66866" lon="-1.88387">
        <ele>8.92</ele>
        <time>2024-07-03T12:38:28Z</time>
      </trkpt>
      <trkpt lat="46.66864" lon="-1.88383">
        <ele>8.91</ele>
        <time>2024-07-03T12:38:29Z</time>
      </trkpt>
      <trkpt lat="46.66863" lon="-1.88379">
        <ele>8.93</ele>
        <time>2024-07-03T12:38:30Z</time>
      </trkpt>
      <trkpt lat="46.66864" lon="-1.88376">
        <ele>8.94</ele>
        <time>2024-07-03T12:38:31Z</time>
      </trkpt>
      <trkpt lat="46.66866" lon="-1.88374">
        <ele>8.95</ele>
        <time>2024-07-03T12:38:32Z</time>
      </trkpt>
      <trkpt lat="46.66869" lon="-1.88373">
        <ele>8.95</ele>
        <time>2024-07-03T12:38:33Z</time>
      </trkpt>
      <trkpt lat="46.66872" lon="-1.88373">
        <ele>8.95</ele>
        <time>2024-07-03T12:38:34Z</time>
      </trkpt>
      <trkpt lat="46.66875" lon="-1.88372">
        <ele>8.95</ele>
        <time>2024-07-03T12:38:35Z</time>
      </trkpt>
      <trkpt lat="46.66878" lon="-1.88371">
        <ele>8.94</ele>
        <time>2024-07-03T12:38:36Z</time>
      </trkpt>
      <trkpt lat="46.66881" lon="-1.88369">
        <ele>8.94</ele>
        <time>2024-07-03T12:38:37Z</time>
      </trkpt>
      <trkpt lat="46.66884" lon="-1.88367">
        <ele>8.92</ele>
        <time>2024-07-03T12:38:38Z</time>
      </trkpt>
      <trkpt lat="46.66887" lon="-1.88364">
        <ele>8.92</ele>
        <time>2024-07-03T12:38:39Z</time>
      </trkpt>
      <trkpt lat="46.66889" lon="-1.8836">
        <ele>8.91</ele>
        <time>2024-07-03T12:38:40Z</time>
      </trkpt>
      <trkpt lat="46.66891" lon="-1.88357">
        <ele>8.9</ele>
        <time>2024-07-03T12:38:41Z</time>
      </trkpt>
      <trkpt lat="46.66913" lon="-1.88302">
        <ele>9.04</ele>
        <time>2024-07-03T12:38:56Z</time>
      </trkpt>
      <trkpt lat="46.66933" lon="-1.88269">
        <ele>9.22</ele>
        <time>2024-07-03T12:39:07Z</time>
      </trkpt>
      <trkpt lat="46.66967" lon="-1.88238">
        <ele>10.22</ele>
        <time>2024-07-03T12:39:21Z</time>
      </trkpt>
      <trkpt lat="46.66998" lon="-1.8821">
        <ele>11.01</ele>
        <time>2024-07-03T12:39:34Z</time>
      </trkpt>
      <trkpt lat="46.6703" lon="-1.8818">
        <ele>11.72</ele>
        <time>2024-07-03T12:39:48Z</time>
      </trkpt>
      <trkpt lat="46.67066" lon="-1.88164">
        <ele>11.68</ele>
        <time>2024-07-03T12:40:01Z</time>
      </trkpt>
      <trkpt lat="46.67071" lon="-1.88169">
        <ele>11.56</ele>
        <time>2024-07-03T12:40:12Z</time>
      </trkpt>
      <trkpt lat="46.67074" lon="-1.88173">
        <ele>11.76</ele>
        <time>2024-07-03T12:40:50Z</time>
      </trkpt>
      <trkpt lat="46.67075" lon="-1.88175">
        <ele>11.82</ele>
        <time>2024-07-03T12:40:51Z</time>
      </trkpt>
      <trkpt lat="46.67076" lon="-1.88177">
        <ele>11.84</ele>
        <time>2024-07-03T12:40:52Z</time>
      </trkpt>
      <trkpt lat="46.67079" lon="-1.8818">
        <ele>11.87</ele>
        <time>2024-07-03T12:40:53Z</time>
      </trkpt>
      <trkpt lat="46.67082" lon="-1.88182">
        <ele>11.89</ele>
        <time>2024-07-03T12:40:54Z</time>
      </trkpt>
      <trkpt lat="46.6712" lon="-1.88212">
        <ele>11.58</ele>
        <time>2024-07-03T12:41:09Z</time>
      </trkpt>
      <trkpt lat="46.67147" lon="-1.88218">
        <ele>12.15</ele>
        <time>2024-07-03T12:41:21Z</time>
      </trkpt>
      <trkpt lat="46.67152" lon="-1.88212">
        <ele>13.06</ele>
        <time>2024-07-03T12:41:50Z</time>
      </trkpt>
      <trkpt lat="46.67152" lon="-1.8821">
        <ele>13.06</ele>
        <time>2024-07-03T12:41:51Z</time>
      </trkpt>
      <trkpt lat="46.67151" lon="-1.88207">
        <ele>13.07</ele>
        <time>2024-07-03T12:41:52Z</time>
      </trkpt>
      <trkpt lat="46.67151" lon="-1.88204">
        <ele>13.07</ele>
        <time>2024-07-03T12:41:53Z</time>
      </trkpt>
      <trkpt lat="46.67151" lon="-1.882">
        <ele>13.1</ele>
        <time>2024-07-03T12:41:54Z</time>
      </trkpt>
      <trkpt lat="46.6717" lon="-1.88172">
        <ele>12.99</ele>
        <time>2024-07-03T12:42:04Z</time>
      </trkpt>
      <trkpt lat="46.67171" lon="-1.88169">
        <ele>12.74</ele>
        <time>2024-07-03T12:42:05Z</time>
      </trkpt>
      <trkpt lat="46.67171" lon="-1.88165">
        <ele>12.93</ele>
        <time>2024-07-03T12:42:06Z</time>
      </trkpt>
      <trkpt lat="46.67172" lon="-1.88162">
        <ele>13.02</ele>
        <time>2024-07-03T12:42:07Z</time>
      </trkpt>
      <trkpt lat="46.67172" lon="-1.88158">
        <ele>12.83</ele>
        <time>2024-07-03T12:42:08Z</time>
      </trkpt>
      <trkpt lat="46.67173" lon="-1.88155">
        <ele>12.74</ele>
        <time>2024-07-03T12:42:09Z</time>
      </trkpt>
      <trkpt lat="46.67174" lon="-1.88151">
        <ele>12.69</ele>
        <time>2024-07-03T12:42:10Z</time>
      </trkpt>
      <trkpt lat="46.67174" lon="-1.88147">
        <ele>12.88</ele>
        <time>2024-07-03T12:42:11Z</time>
      </trkpt>
      <trkpt lat="46.67179" lon="-1.88114">
        <ele>13.38</ele>
        <time>2024-07-03T12:42:19Z</time>
      </trkpt>
      <trkpt lat="46.67187" lon="-1.88074">
        <ele>14.73</ele>
        <time>2024-07-03T12:42:33Z</time>
      </trkpt>
      <trkpt lat="46.67189" lon="-1.88069">
        <ele>15.05</ele>
        <time>2024-07-03T12:43:41Z</time>
      </trkpt>
      <trkpt lat="46.67189" lon="-1.88067">
        <ele>15.05</ele>
        <time>2024-07-03T12:43:42Z</time>
      </trkpt>
      <trkpt lat="46.6719" lon="-1.88064">
        <ele>15.04</ele>
        <time>2024-07-03T12:43:43Z</time>
      </trkpt>
      <trkpt lat="46.6719" lon="-1.8806">
        <ele>15.03</ele>
        <time>2024-07-03T12:43:44Z</time>
      </trkpt>
      <trkpt lat="46.6719" lon="-1.88057">
        <ele>15.03</ele>
        <time>2024-07-03T12:43:45Z</time>
      </trkpt>
      <trkpt lat="46.67191" lon="-1.88053">
        <ele>14.93</ele>
        <time>2024-07-03T12:43:46Z</time>
      </trkpt>
      <trkpt lat="46.67192" lon="-1.8805">
        <ele>14.7</ele>
        <time>2024-07-03T12:43:47Z</time>
      </trkpt>
      <trkpt lat="46.67193" lon="-1.88047">
        <ele>14.58</ele>
        <time>2024-07-03T12:43:48Z</time>
      </trkpt>
      <trkpt lat="46.67194" lon="-1.88044">
        <ele>14.51</ele>
        <time>2024-07-03T12:43:49Z</time>
      </trkpt>
      <trkpt lat="46.67194" lon="-1.8804">
        <ele>14.48</ele>
        <time>2024-07-03T12:43:50Z</time>
      </trkpt>
      <trkpt lat="46.67203" lon="-1.87981">
        <ele>15.72</ele>
        <time>2024-07-03T12:44:05Z</time>
      </trkpt>
      <trkpt lat="46.6721" lon="-1.87934">
        <ele>16.39</ele>
        <time>2024-07-03T12:44:19Z</time>
      </trkpt>
      <trkpt lat="46.67209" lon="-1.87931">
        <ele>17.61</ele>
        <time>2024-07-03T12:44:32Z</time>
      </trkpt>
      <trkpt lat="46.67207" lon="-1.87925">
        <ele>17.42</ele>
        <time>2024-07-03T12:45:29Z</time>
      </trkpt>
      <trkpt lat="46.67209" lon="-1.87924">
        <ele>17.07</ele>
        <time>2024-07-03T12:45:54Z</time>
      </trkpt>
      <trkpt lat="46.6721" lon="-1.87917">
        <ele>17.47</ele>
        <time>2024-07-03T12:45:58Z</time>
      </trkpt>
      <trkpt lat="46.67211" lon="-1.87907">
        <ele>17.76</ele>
        <time>2024-07-03T12:46:01Z</time>
      </trkpt>
      <trkpt lat="46.67212" lon="-1.87905">
        <ele>18.02</ele>
        <time>2024-07-03T12:46:02Z</time>
      </trkpt>
      <trkpt lat="46.67213" lon="-1.87901">
        <ele>18.16</ele>
        <time>2024-07-03T12:46:03Z</time>
      </trkpt>
      <trkpt lat="46.67213" lon="-1.87898">
        <ele>18.38</ele>
        <time>2024-07-03T12:46:04Z</time>
      </trkpt>
      <trkpt lat="46.67213" lon="-1.87894">
        <ele>18.49</ele>
        <time>2024-07-03T12:46:05Z</time>
      </trkpt>
      <trkpt lat="46.67213" lon="-1.8789">
        <ele>18.54</ele>
        <time>2024-07-03T12:46:06Z</time>
      </trkpt>
      <trkpt lat="46.67214" lon="-1.87823">
        <ele>18.5</ele>
        <time>2024-07-03T12:46:22Z</time>
      </trkpt>
      <trkpt lat="46.67212" lon="-1.87759">
        <ele>18.42</ele>
        <time>2024-07-03T12:46:37Z</time>
      </trkpt>
      <trkpt lat="46.67212" lon="-1.87692">
        <ele>19.64</ele>
        <time>2024-07-03T12:46:53Z</time>
      </trkpt>
      <trkpt lat="46.67219" lon="-1.87618">
        <ele>20.16</ele>
        <time>2024-07-03T12:47:09Z</time>
      </trkpt>
      <trkpt lat="46.67229" lon="-1.87546">
        <ele>20.54</ele>
        <time>2024-07-03T12:47:24Z</time>
      </trkpt>
      <trkpt lat="46.67238" lon="-1.87473">
        <ele>20.59</ele>
        <time>2024-07-03T12:47:39Z</time>
      </trkpt>
      <trkpt lat="46.67249" lon="-1.87383">
        <ele>20.47</ele>
        <time>2024-07-03T12:47:56Z</time>
      </trkpt>
      <trkpt lat="46.67257" lon="-1.87286">
        <ele>19.77</ele>
        <time>2024-07-03T12:48:12Z</time>
      </trkpt>
      <trkpt lat="46.67269" lon="-1.87161">
        <ele>17.59</ele>
        <time>2024-07-03T12:48:28Z</time>
      </trkpt>
      <trkpt lat="46.67273" lon="-1.87119">
        <ele>14.57</ele>
        <time>2024-07-03T12:48:33Z</time>
      </trkpt>
      <trkpt lat="46.67269" lon="-1.87013">
        <ele>13.53</ele>
        <time>2024-07-03T12:48:49Z</time>
      </trkpt>
      <trkpt lat="46.67237" lon="-1.86934">
        <ele>13.67</ele>
        <time>2024-07-03T12:49:02Z</time>
      </trkpt>
      <trkpt lat="46.67204" lon="-1.86874">
        <ele>12.23</ele>
        <time>2024-07-03T12:49:17Z</time>
      </trkpt>
      <trkpt lat="46.67173" lon="-1.86809">
        <ele>12.4</ele>
        <time>2024-07-03T12:49:32Z</time>
      </trkpt>
      <trkpt lat="46.67164" lon="-1.86744">
        <ele>12.2</ele>
        <time>2024-07-03T12:49:47Z</time>
      </trkpt>
      <trkpt lat="46.67161" lon="-1.86735">
        <ele>12.62</ele>
        <time>2024-07-03T12:49:57Z</time>
      </trkpt>
      <trkpt lat="46.67157" lon="-1.86728">
        <ele>13.29</ele>
        <time>2024-07-03T12:50:17Z</time>
      </trkpt>
      <trkpt lat="46.67155" lon="-1.86727">
        <ele>13.24</ele>
        <time>2024-07-03T12:50:18Z</time>
      </trkpt>
      <trkpt lat="46.67151" lon="-1.86723">
        <ele>12.96</ele>
        <time>2024-07-03T12:50:22Z</time>
      </trkpt>
      <trkpt lat="46.6715" lon="-1.86722">
        <ele>12.91</ele>
        <time>2024-07-03T12:50:23Z</time>
      </trkpt>
      <trkpt lat="46.67149" lon="-1.86721">
        <ele>12.96</ele>
        <time>2024-07-03T12:50:24Z</time>
      </trkpt>
      <trkpt lat="46.67148" lon="-1.8672">
        <ele>13.01</ele>
        <time>2024-07-03T12:50:25Z</time>
      </trkpt>
      <trkpt lat="46.67146" lon="-1.86718">
        <ele>13.04</ele>
        <time>2024-07-03T12:50:26Z</time>
      </trkpt>
      <trkpt lat="46.67145" lon="-1.86717">
        <ele>13.05</ele>
        <time>2024-07-03T12:50:27Z</time>
      </trkpt>
      <trkpt lat="46.67124" lon="-1.86696">
        <ele>15.86</ele>
        <time>2024-07-03T12:50:40Z</time>
      </trkpt>
      <trkpt lat="46.67114" lon="-1.86686">
        <ele>17.22</ele>
        <time>2024-07-03T12:50:50Z</time>
      </trkpt>
      <trkpt lat="46.67112" lon="-1.86685">
        <ele>17.7</ele>
        <time>2024-07-03T12:50:52Z</time>
      </trkpt>
      <trkpt lat="46.671" lon="-1.86674">
        <ele>18.71</ele>
        <time>2024-07-03T12:51:04Z</time>
      </trkpt>
      <trkpt lat="46.67089" lon="-1.86662">
        <ele>19.79</ele>
        <time>2024-07-03T12:51:15Z</time>
      </trkpt>
      <trkpt lat="46.67075" lon="-1.86652">
        <ele>21.15</ele>
        <time>2024-07-03T12:51:30Z</time>
      </trkpt>
      <trkpt lat="46.67073" lon="-1.8665">
        <ele>21.48</ele>
        <time>2024-07-03T12:51:33Z</time>
      </trkpt>
      <trkpt lat="46.67068" lon="-1.86647">
        <ele>22.19</ele>
        <time>2024-07-03T12:51:37Z</time>
      </trkpt>
      <trkpt lat="46.67067" lon="-1.86646">
        <ele>22.4</ele>
        <time>2024-07-03T12:51:38Z</time>
      </trkpt>
      <trkpt lat="46.67066" lon="-1.86645">
        <ele>22.61</ele>
        <time>2024-07-03T12:51:39Z</time>
      </trkpt>
      <trkpt lat="46.67066" lon="-1.86644">
        <ele>22.74</ele>
        <time>2024-07-03T12:51:40Z</time>
      </trkpt>
      <trkpt lat="46.67065" lon="-1.86643">
        <ele>22.87</ele>
        <time>2024-07-03T12:51:41Z</time>
      </trkpt>
      <trkpt lat="46.67033" lon="-1.86612">
        <ele>24.67</ele>
        <time>2024-07-03T12:52:08Z</time>
      </trkpt>
      <trkpt lat="46.67003" lon="-1.86588">
        <ele>26.35</ele>
        <time>2024-07-03T12:52:35Z</time>
      </trkpt>
      <trkpt lat="46.67002" lon="-1.86589">
        <ele>26.57</ele>
        <time>2024-07-03T12:53:01Z</time>
      </trkpt>
      <trkpt lat="46.66999" lon="-1.86583">
        <ele>26.59</ele>
        <time>2024-07-03T12:53:45Z</time>
      </trkpt>
      <trkpt lat="46.66999" lon="-1.86579">
        <ele>26.63</ele>
        <time>2024-07-03T12:53:46Z</time>
      </trkpt>
      <trkpt lat="46.66998" lon="-1.86575">
        <ele>26.65</ele>
        <time>2024-07-03T12:53:47Z</time>
      </trkpt>
      <trkpt lat="46.66998" lon="-1.86571">
        <ele>26.66</ele>
        <time>2024-07-03T12:53:48Z</time>
      </trkpt>
      <trkpt lat="46.66997" lon="-1.86567">
        <ele>26.67</ele>
        <time>2024-07-03T12:53:49Z</time>
      </trkpt>
      <trkpt lat="46.66995" lon="-1.86564">
        <ele>26.64</ele>
        <time>2024-07-03T12:53:50Z</time>
      </trkpt>
      <trkpt lat="46.6697" lon="-1.86509">
        <ele>26.1</ele>
        <time>2024-07-03T12:54:06Z</time>
      </trkpt>
      <trkpt lat="46.66938" lon="-1.86447">
        <ele>25.79</ele>
        <time>2024-07-03T12:54:21Z</time>
      </trkpt>
      <trkpt lat="46.66922" lon="-1.86425">
        <ele>25.8</ele>
        <time>2024-07-03T12:54:30Z</time>
      </trkpt>
      <trkpt lat="46.66923" lon="-1.8642">
        <ele>25.09</ele>
        <time>2024-07-03T12:54:38Z</time>
      </trkpt>
      <trkpt lat="46.66915" lon="-1.86406">
        <ele>24.92</ele>
        <time>2024-07-03T12:54:43Z</time>
      </trkpt>
      <trkpt lat="46.66883" lon="-1.8634">
        <ele>23.66</ele>
        <time>2024-07-03T12:54:57Z</time>
      </trkpt>
      <trkpt lat="46.66857" lon="-1.86264">
        <ele>22.43</ele>
        <time>2024-07-03T12:55:15Z</time>
      </trkpt>
      <trkpt lat="46.6684" lon="-1.86214">
        <ele>22.12</ele>
        <time>2024-07-03T12:55:28Z</time>
      </trkpt>
      <trkpt lat="46.66823" lon="-1.86151">
        <ele>23.1</ele>
        <time>2024-07-03T12:55:44Z</time>
      </trkpt>
      <trkpt lat="46.66802" lon="-1.86084">
        <ele>23.2</ele>
        <time>2024-07-03T12:56:01Z</time>
      </trkpt>
      <trkpt lat="46.6679" lon="-1.86009">
        <ele>23.34</ele>
        <time>2024-07-03T12:56:19Z</time>
      </trkpt>
      <trkpt lat="46.66779" lon="-1.85942">
        <ele>24.42</ele>
        <time>2024-07-03T12:56:35Z</time>
      </trkpt>
      <trkpt lat="46.66779" lon="-1.85933">
        <ele>24.82</ele>
        <time>2024-07-03T12:56:47Z</time>
      </trkpt>
      <trkpt lat="46.66778" lon="-1.85929">
        <ele>25.21</ele>
        <time>2024-07-03T12:57:01Z</time>
      </trkpt>
      <trkpt lat="46.66778" lon="-1.85927">
        <ele>25.23</ele>
        <time>2024-07-03T12:57:02Z</time>
      </trkpt>
      <trkpt lat="46.66777" lon="-1.85924">
        <ele>25.23</ele>
        <time>2024-07-03T12:57:03Z</time>
      </trkpt>
      <trkpt lat="46.66776" lon="-1.8592">
        <ele>25.23</ele>
        <time>2024-07-03T12:57:04Z</time>
      </trkpt>
      <trkpt lat="46.66776" lon="-1.85916">
        <ele>25.23</ele>
        <time>2024-07-03T12:57:05Z</time>
      </trkpt>
      <trkpt lat="46.66756" lon="-1.85851">
        <ele>25.07</ele>
        <time>2024-07-03T12:57:20Z</time>
      </trkpt>
      <trkpt lat="46.66735" lon="-1.85761">
        <ele>24.39</ele>
        <time>2024-07-03T12:57:38Z</time>
      </trkpt>
      <trkpt lat="46.66733" lon="-1.8575">
        <ele>24.36</ele>
        <time>2024-07-03T12:57:40Z</time>
      </trkpt>
      <trkpt lat="46.66732" lon="-1.85744">
        <ele>24.32</ele>
        <time>2024-07-03T12:57:41Z</time>
      </trkpt>
      <trkpt lat="46.66725" lon="-1.85701">
        <ele>24.08</ele>
        <time>2024-07-03T12:57:48Z</time>
      </trkpt>
      <trkpt lat="46.6672" lon="-1.85677">
        <ele>23.83</ele>
        <time>2024-07-03T12:57:52Z</time>
      </trkpt>
      <trkpt lat="46.66718" lon="-1.85671">
        <ele>23.71</ele>
        <time>2024-07-03T12:57:53Z</time>
      </trkpt>
      <trkpt lat="46.66716" lon="-1.85666">
        <ele>23.61</ele>
        <time>2024-07-03T12:57:54Z</time>
      </trkpt>
      <trkpt lat="46.66695" lon="-1.85582">
        <ele>22.89</ele>
        <time>2024-07-03T12:58:09Z</time>
      </trkpt>
      <trkpt lat="46.66694" lon="-1.85576">
        <ele>22.87</ele>
        <time>2024-07-03T12:58:10Z</time>
      </trkpt>
      <trkpt lat="46.66686" lon="-1.85521">
        <ele>22.67</ele>
        <time>2024-07-03T12:58:20Z</time>
      </trkpt>
      <trkpt lat="46.66687" lon="-1.85455">
        <ele>21.83</ele>
        <time>2024-07-03T12:58:33Z</time>
      </trkpt>
      <trkpt lat="46.66686" lon="-1.85388">
        <ele>22.02</ele>
        <time>2024-07-03T12:58:47Z</time>
      </trkpt>
      <trkpt lat="46.66684" lon="-1.85322">
        <ele>22.02</ele>
        <time>2024-07-03T12:59:01Z</time>
      </trkpt>
      <trkpt lat="46.66681" lon="-1.85246">
        <ele>21.73</ele>
        <time>2024-07-03T12:59:15Z</time>
      </trkpt>
      <trkpt lat="46.66665" lon="-1.85163">
        <ele>21.48</ele>
        <time>2024-07-03T12:59:31Z</time>
      </trkpt>
      <trkpt lat="46.66648" lon="-1.85109">
        <ele>21.05</ele>
        <time>2024-07-03T12:59:44Z</time>
      </trkpt>
      <trkpt lat="46.66637" lon="-1.85038">
        <ele>20.6</ele>
        <time>2024-07-03T12:59:57Z</time>
      </trkpt>
      <trkpt lat="46.66627" lon="-1.84985">
        <ele>18.61</ele>
        <time>2024-07-03T13:00:08Z</time>
      </trkpt>
      <trkpt lat="46.66619" lon="-1.84926">
        <ele>17.22</ele>
        <time>2024-07-03T13:00:21Z</time>
      </trkpt>
      <trkpt lat="46.66607" lon="-1.84881">
        <ele>16.25</ele>
        <time>2024-07-03T13:00:34Z</time>
      </trkpt>
      <trkpt lat="46.66596" lon="-1.84838">
        <ele>16.26</ele>
        <time>2024-07-03T13:00:45Z</time>
      </trkpt>
      <trkpt lat="46.6659" lon="-1.84824">
        <ele>16.55</ele>
        <time>2024-07-03T13:00:51Z</time>
      </trkpt>
      <trkpt lat="46.66589" lon="-1.84821">
        <ele>16.65</ele>
        <time>2024-07-03T13:00:52Z</time>
      </trkpt>
      <trkpt lat="46.66589" lon="-1.84818">
        <ele>16.77</ele>
        <time>2024-07-03T13:00:53Z</time>
      </trkpt>
      <trkpt lat="46.66587" lon="-1.84816">
        <ele>16.84</ele>
        <time>2024-07-03T13:00:54Z</time>
      </trkpt>
      <trkpt lat="46.66586" lon="-1.84813">
        <ele>16.88</ele>
        <time>2024-07-03T13:00:55Z</time>
      </trkpt>
      <trkpt lat="46.66585" lon="-1.8481">
        <ele>16.94</ele>
        <time>2024-07-03T13:00:56Z</time>
      </trkpt>
      <trkpt lat="46.66586" lon="-1.84764">
        <ele>18.22</ele>
        <time>2024-07-03T13:01:10Z</time>
      </trkpt>
      <trkpt lat="46.666" lon="-1.84725">
        <ele>18.89</ele>
        <time>2024-07-03T13:01:22Z</time>
      </trkpt>
      <trkpt lat="46.66612" lon="-1.84704">
        <ele>19.28</ele>
        <time>2024-07-03T13:01:35Z</time>
      </trkpt>
      <trkpt lat="46.66615" lon="-1.84706">
        <ele>19.95</ele>
        <time>2024-07-03T13:02:48Z</time>
      </trkpt>
      <trkpt lat="46.66619" lon="-1.84702">
        <ele>19.5</ele>
        <time>2024-07-03T13:03:42Z</time>
      </trkpt>
      <trkpt lat="46.6662" lon="-1.84697">
        <ele>19.42</ele>
        <time>2024-07-03T13:03:45Z</time>
      </trkpt>
      <trkpt lat="46.6662" lon="-1.84694">
        <ele>19.42</ele>
        <time>2024-07-03T13:03:46Z</time>
      </trkpt>
      <trkpt lat="46.6662" lon="-1.84691">
        <ele>19.35</ele>
        <time>2024-07-03T13:03:47Z</time>
      </trkpt>
      <trkpt lat="46.66625" lon="-1.84639">
        <ele>18.88</ele>
        <time>2024-07-03T13:04:00Z</time>
      </trkpt>
      <trkpt lat="46.66628" lon="-1.84566">
        <ele>17.85</ele>
        <time>2024-07-03T13:04:13Z</time>
      </trkpt>
      <trkpt lat="46.6663" lon="-1.84557">
        <ele>17.84</ele>
        <time>2024-07-03T13:04:14Z</time>
      </trkpt>
      <trkpt lat="46.66631" lon="-1.84549">
        <ele>17.82</ele>
        <time>2024-07-03T13:04:15Z</time>
      </trkpt>
      <trkpt lat="46.66631" lon="-1.84541">
        <ele>17.62</ele>
        <time>2024-07-03T13:04:16Z</time>
      </trkpt>
      <trkpt lat="46.6663" lon="-1.84533">
        <ele>17.52</ele>
        <time>2024-07-03T13:04:17Z</time>
      </trkpt>
      <trkpt lat="46.66631" lon="-1.84522">
        <ele>17.42</ele>
        <time>2024-07-03T13:04:18Z</time>
      </trkpt>
      <trkpt lat="46.66629" lon="-1.84513">
        <ele>17.32</ele>
        <time>2024-07-03T13:04:19Z</time>
      </trkpt>
      <trkpt lat="46.6661" lon="-1.84423">
        <ele>15.41</ele>
        <time>2024-07-03T13:04:33Z</time>
      </trkpt>
      <trkpt lat="46.66586" lon="-1.84336">
        <ele>15.99</ele>
        <time>2024-07-03T13:04:49Z</time>
      </trkpt>
      <trkpt lat="46.66573" lon="-1.84287">
        <ele>18.2</ele>
        <time>2024-07-03T13:05:02Z</time>
      </trkpt>
      <trkpt lat="46.66559" lon="-1.84238">
        <ele>20.35</ele>
        <time>2024-07-03T13:05:17Z</time>
      </trkpt>
      <trkpt lat="46.66544" lon="-1.84187">
        <ele>21.86</ele>
        <time>2024-07-03T13:05:31Z</time>
      </trkpt>
      <trkpt lat="46.66523" lon="-1.84136">
        <ele>23.6</ele>
        <time>2024-07-03T13:05:47Z</time>
      </trkpt>
      <trkpt lat="46.66497" lon="-1.84086">
        <ele>24.93</ele>
        <time>2024-07-03T13:06:03Z</time>
      </trkpt>
      <trkpt lat="46.66469" lon="-1.84026">
        <ele>25.34</ele>
        <time>2024-07-03T13:06:21Z</time>
      </trkpt>
      <trkpt lat="46.66443" lon="-1.83974">
        <ele>26.17</ele>
        <time>2024-07-03T13:06:36Z</time>
      </trkpt>
      <trkpt lat="46.6642" lon="-1.83936">
        <ele>27.43</ele>
        <time>2024-07-03T13:06:49Z</time>
      </trkpt>
      <trkpt lat="46.66389" lon="-1.83902">
        <ele>28.22</ele>
        <time>2024-07-03T13:07:05Z</time>
      </trkpt>
      <trkpt lat="46.66384" lon="-1.83899">
        <ele>28.28</ele>
        <time>2024-07-03T13:07:17Z</time>
      </trkpt>
      <trkpt lat="46.66382" lon="-1.839">
        <ele>28.7</ele>
        <time>2024-07-03T13:08:25Z</time>
      </trkpt>
      <trkpt lat="46.66382" lon="-1.83899">
        <ele>28.36</ele>
        <time>2024-07-03T13:09:13Z</time>
      </trkpt>
      <trkpt lat="46.66378" lon="-1.83896">
        <ele>28.47</ele>
        <time>2024-07-03T13:09:48Z</time>
      </trkpt>
      <trkpt lat="46.66375" lon="-1.83893">
        <ele>28.42</ele>
        <time>2024-07-03T13:09:49Z</time>
      </trkpt>
      <trkpt lat="46.66373" lon="-1.83891">
        <ele>28.51</ele>
        <time>2024-07-03T13:09:50Z</time>
      </trkpt>
      <trkpt lat="46.66341" lon="-1.83857">
        <ele>28.4</ele>
        <time>2024-07-03T13:10:03Z</time>
      </trkpt>
      <trkpt lat="46.66294" lon="-1.83798">
        <ele>27.22</ele>
        <time>2024-07-03T13:10:18Z</time>
      </trkpt>
      <trkpt lat="46.66287" lon="-1.83788">
        <ele>27.18</ele>
        <time>2024-07-03T13:10:20Z</time>
      </trkpt>
      <trkpt lat="46.66249" lon="-1.83692">
        <ele>25.71</ele>
        <time>2024-07-03T13:10:35Z</time>
      </trkpt>
      <trkpt lat="46.66222" lon="-1.83594">
        <ele>24.67</ele>
        <time>2024-07-03T13:10:51Z</time>
      </trkpt>
      <trkpt lat="46.66184" lon="-1.83485">
        <ele>24.76</ele>
        <time>2024-07-03T13:11:08Z</time>
      </trkpt>
      <trkpt lat="46.66169" lon="-1.83458">
        <ele>24.81</ele>
        <time>2024-07-03T13:11:13Z</time>
      </trkpt>
      <trkpt lat="46.66157" lon="-1.83442">
        <ele>24.83</ele>
        <time>2024-07-03T13:11:17Z</time>
      </trkpt>
      <trkpt lat="46.66111" lon="-1.83369">
        <ele>24.97</ele>
        <time>2024-07-03T13:11:34Z</time>
      </trkpt>
      <trkpt lat="46.66109" lon="-1.83364">
        <ele>25.06</ele>
        <time>2024-07-03T13:11:35Z</time>
      </trkpt>
      <trkpt lat="46.66098" lon="-1.83332">
        <ele>25.63</ele>
        <time>2024-07-03T13:11:41Z</time>
      </trkpt>
      <trkpt lat="46.6609" lon="-1.83266">
        <ele>25.25</ele>
        <time>2024-07-03T13:11:52Z</time>
      </trkpt>
      <trkpt lat="46.6609" lon="-1.8326">
        <ele>25.11</ele>
        <time>2024-07-03T13:11:53Z</time>
      </trkpt>
      <trkpt lat="46.66089" lon="-1.83253">
        <ele>24.93</ele>
        <time>2024-07-03T13:11:54Z</time>
      </trkpt>
      <trkpt lat="46.66089" lon="-1.83246">
        <ele>24.67</ele>
        <time>2024-07-03T13:11:55Z</time>
      </trkpt>
      <trkpt lat="46.6609" lon="-1.83239">
        <ele>24.52</ele>
        <time>2024-07-03T13:11:56Z</time>
      </trkpt>
      <trkpt lat="46.66091" lon="-1.83232">
        <ele>24.25</ele>
        <time>2024-07-03T13:11:57Z</time>
      </trkpt>
      <trkpt lat="46.66099" lon="-1.83114">
        <ele>22.85</ele>
        <time>2024-07-03T13:12:12Z</time>
      </trkpt>
      <trkpt lat="46.66097" lon="-1.83098">
        <ele>22.62</ele>
        <time>2024-07-03T13:12:14Z</time>
      </trkpt>
      <trkpt lat="46.66077" lon="-1.83039">
        <ele>22.08</ele>
        <time>2024-07-03T13:12:26Z</time>
      </trkpt>
      <trkpt lat="46.66069" lon="-1.83024">
        <ele>22.25</ele>
        <time>2024-07-03T13:12:37Z</time>
      </trkpt>
      <trkpt lat="46.66068" lon="-1.83023">
        <ele>22.3</ele>
        <time>2024-07-03T13:12:38Z</time>
      </trkpt>
      <trkpt lat="46.66069" lon="-1.83021">
        <ele>22.08</ele>
        <time>2024-07-03T13:12:39Z</time>
      </trkpt>
      <trkpt lat="46.66076" lon="-1.83019">
        <ele>23.15</ele>
        <time>2024-07-03T13:13:23Z</time>
      </trkpt>
      <trkpt lat="46.66077" lon="-1.83019">
        <ele>23.18</ele>
        <time>2024-07-03T13:13:24Z</time>
      </trkpt>
      <trkpt lat="46.66079" lon="-1.83019">
        <ele>23.2</ele>
        <time>2024-07-03T13:13:25Z</time>
      </trkpt>
      <trkpt lat="46.66082" lon="-1.83019">
        <ele>23.21</ele>
        <time>2024-07-03T13:13:26Z</time>
      </trkpt>
      <trkpt lat="46.66085" lon="-1.83018">
        <ele>23.21</ele>
        <time>2024-07-03T13:13:27Z</time>
      </trkpt>
      <trkpt lat="46.66087" lon="-1.83017">
        <ele>23.21</ele>
        <time>2024-07-03T13:13:28Z</time>
      </trkpt>
      <trkpt lat="46.66089" lon="-1.83016">
        <ele>23.21</ele>
        <time>2024-07-03T13:13:29Z</time>
      </trkpt>
      <trkpt lat="46.6609" lon="-1.83015">
        <ele>23.23</ele>
        <time>2024-07-03T13:13:30Z</time>
      </trkpt>
      <trkpt lat="46.66086" lon="-1.8302">
        <ele>23.88</ele>
        <time>2024-07-03T13:13:45Z</time>
      </trkpt>
      <trkpt lat="46.6608" lon="-1.83019">
        <ele>23.89</ele>
        <time>2024-07-03T13:13:47Z</time>
      </trkpt>
      <trkpt lat="46.66076" lon="-1.83018">
        <ele>23.73</ele>
        <time>2024-07-03T13:13:49Z</time>
      </trkpt>
      <trkpt lat="46.66074" lon="-1.83019">
        <ele>23.34</ele>
        <time>2024-07-03T13:13:50Z</time>
      </trkpt>
      <trkpt lat="46.66073" lon="-1.8302">
        <ele>23.14</ele>
        <time>2024-07-03T13:13:51Z</time>
      </trkpt>
      <trkpt lat="46.66071" lon="-1.8302">
        <ele>22.88</ele>
        <time>2024-07-03T13:13:52Z</time>
      </trkpt>
      <trkpt lat="46.66069" lon="-1.8302">
        <ele>22.75</ele>
        <time>2024-07-03T13:13:53Z</time>
      </trkpt>
      <trkpt lat="46.66067" lon="-1.8302">
        <ele>22.65</ele>
        <time>2024-07-03T13:13:54Z</time>
      </trkpt>
      <trkpt lat="46.66064" lon="-1.8302">
        <ele>22.6</ele>
        <time>2024-07-03T13:13:55Z</time>
      </trkpt>
      <trkpt lat="46.6604" lon="-1.82998">
        <ele>22.21</ele>
        <time>2024-07-03T13:14:05Z</time>
      </trkpt>
      <trkpt lat="46.66024" lon="-1.82946">
        <ele>22.47</ele>
        <time>2024-07-03T13:14:19Z</time>
      </trkpt>
      <trkpt lat="46.66021" lon="-1.82889">
        <ele>22.04</ele>
        <time>2024-07-03T13:14:34Z</time>
      </trkpt>
      <trkpt lat="46.66017" lon="-1.82841">
        <ele>22.22</ele>
        <time>2024-07-03T13:14:46Z</time>
      </trkpt>
      <trkpt lat="46.66014" lon="-1.8278">
        <ele>23.15</ele>
        <time>2024-07-03T13:14:59Z</time>
      </trkpt>
      <trkpt lat="46.66019" lon="-1.82713">
        <ele>23.36</ele>
        <time>2024-07-03T13:15:14Z</time>
      </trkpt>
      <trkpt lat="46.6602" lon="-1.82652">
        <ele>24</ele>
        <time>2024-07-03T13:15:27Z</time>
      </trkpt>
      <trkpt lat="46.66014" lon="-1.82603">
        <ele>24.41</ele>
        <time>2024-07-03T13:15:40Z</time>
      </trkpt>
      <trkpt lat="46.66004" lon="-1.82559">
        <ele>24.67</ele>
        <time>2024-07-03T13:15:53Z</time>
      </trkpt>
      <trkpt lat="46.65988" lon="-1.82501">
        <ele>24.93</ele>
        <time>2024-07-03T13:16:05Z</time>
      </trkpt>
      <trkpt lat="46.65973" lon="-1.82417">
        <ele>24.12</ele>
        <time>2024-07-03T13:16:21Z</time>
      </trkpt>
      <trkpt lat="46.6594" lon="-1.824">
        <ele>24.22</ele>
        <time>2024-07-03T13:16:31Z</time>
      </trkpt>
      <trkpt lat="46.6591" lon="-1.8241">
        <ele>24.4</ele>
        <time>2024-07-03T13:16:44Z</time>
      </trkpt>
      <trkpt lat="46.65875" lon="-1.82407">
        <ele>24.5</ele>
        <time>2024-07-03T13:16:57Z</time>
      </trkpt>
      <trkpt lat="46.65858" lon="-1.82394">
        <ele>25</ele>
        <time>2024-07-03T13:17:09Z</time>
      </trkpt>
      <trkpt lat="46.65857" lon="-1.82391">
        <ele>25.87</ele>
        <time>2024-07-03T13:18:07Z</time>
      </trkpt>
      <trkpt lat="46.65856" lon="-1.82391">
        <ele>26.07</ele>
        <time>2024-07-03T13:19:05Z</time>
      </trkpt>
      <trkpt lat="46.65848" lon="-1.82385">
        <ele>26.25</ele>
        <time>2024-07-03T13:19:33Z</time>
      </trkpt>
      <trkpt lat="46.65847" lon="-1.82383">
        <ele>26.3</ele>
        <time>2024-07-03T13:19:34Z</time>
      </trkpt>
      <trkpt lat="46.65845" lon="-1.82381">
        <ele>26.34</ele>
        <time>2024-07-03T13:19:35Z</time>
      </trkpt>
      <trkpt lat="46.65843" lon="-1.82378">
        <ele>26.34</ele>
        <time>2024-07-03T13:19:36Z</time>
      </trkpt>
      <trkpt lat="46.65841" lon="-1.82376">
        <ele>26.34</ele>
        <time>2024-07-03T13:19:37Z</time>
      </trkpt>
      <trkpt lat="46.65838" lon="-1.82373">
        <ele>26.31</ele>
        <time>2024-07-03T13:19:38Z</time>
      </trkpt>
      <trkpt lat="46.65835" lon="-1.82371">
        <ele>26.33</ele>
        <time>2024-07-03T13:19:39Z</time>
      </trkpt>
      <trkpt lat="46.65832" lon="-1.82369">
        <ele>26.34</ele>
        <time>2024-07-03T13:19:40Z</time>
      </trkpt>
      <trkpt lat="46.65799" lon="-1.82335">
        <ele>26.8</ele>
        <time>2024-07-03T13:19:53Z</time>
      </trkpt>
      <trkpt lat="46.65766" lon="-1.82302">
        <ele>27.58</ele>
        <time>2024-07-03T13:20:06Z</time>
      </trkpt>
      <trkpt lat="46.65747" lon="-1.8227">
        <ele>28.79</ele>
        <time>2024-07-03T13:20:17Z</time>
      </trkpt>
      <trkpt lat="46.65723" lon="-1.82226">
        <ele>29.55</ele>
        <time>2024-07-03T13:20:31Z</time>
      </trkpt>
      <trkpt lat="46.65703" lon="-1.82188">
        <ele>30.26</ele>
        <time>2024-07-03T13:20:44Z</time>
      </trkpt>
      <trkpt lat="46.65688" lon="-1.82171">
        <ele>31.11</ele>
        <time>2024-07-03T13:20:55Z</time>
      </trkpt>
      <trkpt lat="46.65688" lon="-1.8217">
        <ele>30.98</ele>
        <time>2024-07-03T13:22:07Z</time>
      </trkpt>
      <trkpt lat="46.65686" lon="-1.82165">
        <ele>30.8</ele>
        <time>2024-07-03T13:22:25Z</time>
      </trkpt>
      <trkpt lat="46.65685" lon="-1.82164">
        <ele>30.79</ele>
        <time>2024-07-03T13:22:26Z</time>
      </trkpt>
      <trkpt lat="46.65684" lon="-1.82163">
        <ele>30.75</ele>
        <time>2024-07-03T13:22:27Z</time>
      </trkpt>
      <trkpt lat="46.65683" lon="-1.82162">
        <ele>30.73</ele>
        <time>2024-07-03T13:22:28Z</time>
      </trkpt>
      <trkpt lat="46.65681" lon="-1.8216">
        <ele>30.67</ele>
        <time>2024-07-03T13:22:29Z</time>
      </trkpt>
      <trkpt lat="46.6568" lon="-1.82159">
        <ele>30.65</ele>
        <time>2024-07-03T13:22:30Z</time>
      </trkpt>
      <trkpt lat="46.65671" lon="-1.82149">
        <ele>30.25</ele>
        <time>2024-07-03T13:22:36Z</time>
      </trkpt>
      <trkpt lat="46.65668" lon="-1.82145">
        <ele>30.18</ele>
        <time>2024-07-03T13:22:38Z</time>
      </trkpt>
      <trkpt lat="46.65667" lon="-1.82142">
        <ele>30.74</ele>
        <time>2024-07-03T13:22:39Z</time>
      </trkpt>
      <trkpt lat="46.65665" lon="-1.82139">
        <ele>31.19</ele>
        <time>2024-07-03T13:22:40Z</time>
      </trkpt>
      <trkpt lat="46.65663" lon="-1.82137">
        <ele>31.58</ele>
        <time>2024-07-03T13:22:41Z</time>
      </trkpt>
      <trkpt lat="46.65662" lon="-1.82135">
        <ele>31.78</ele>
        <time>2024-07-03T13:22:42Z</time>
      </trkpt>
      <trkpt lat="46.65635" lon="-1.82094">
        <ele>31.34</ele>
        <time>2024-07-03T13:22:57Z</time>
      </trkpt>
      <trkpt lat="46.65601" lon="-1.82018">
        <ele>29.28</ele>
        <time>2024-07-03T13:23:12Z</time>
      </trkpt>
      <trkpt lat="46.65589" lon="-1.8195">
        <ele>26.61</ele>
        <time>2024-07-03T13:23:25Z</time>
      </trkpt>
      <trkpt lat="46.65586" lon="-1.81898">
        <ele>23.6</ele>
        <time>2024-07-03T13:23:34Z</time>
      </trkpt>
      <trkpt lat="46.65578" lon="-1.81826">
        <ele>20.5</ele>
        <time>2024-07-03T13:23:46Z</time>
      </trkpt>
      <trkpt lat="46.6557" lon="-1.81763">
        <ele>17.59</ele>
        <time>2024-07-03T13:23:58Z</time>
      </trkpt>
      <trkpt lat="46.65579" lon="-1.81705">
        <ele>16.18</ele>
        <time>2024-07-03T13:24:10Z</time>
      </trkpt>
      <trkpt lat="46.65603" lon="-1.81627">
        <ele>16.31</ele>
        <time>2024-07-03T13:24:25Z</time>
      </trkpt>
      <trkpt lat="46.65604" lon="-1.81565">
        <ele>17.6</ele>
        <time>2024-07-03T13:24:37Z</time>
      </trkpt>
      <trkpt lat="46.65593" lon="-1.81507">
        <ele>16.36</ele>
        <time>2024-07-03T13:24:50Z</time>
      </trkpt>
      <trkpt lat="46.65557" lon="-1.81434">
        <ele>16.26</ele>
        <time>2024-07-03T13:25:03Z</time>
      </trkpt>
      <trkpt lat="46.65543" lon="-1.81411">
        <ele>16.11</ele>
        <time>2024-07-03T13:25:14Z</time>
      </trkpt>
      <trkpt lat="46.65542" lon="-1.81409">
        <ele>16.37</ele>
        <time>2024-07-03T13:25:15Z</time>
      </trkpt>
      <trkpt lat="46.65539" lon="-1.81401">
        <ele>17.02</ele>
        <time>2024-07-03T13:25:19Z</time>
      </trkpt>
      <trkpt lat="46.65538" lon="-1.81399">
        <ele>17.11</ele>
        <time>2024-07-03T13:25:20Z</time>
      </trkpt>
      <trkpt lat="46.65537" lon="-1.81397">
        <ele>17.19</ele>
        <time>2024-07-03T13:25:21Z</time>
      </trkpt>
      <trkpt lat="46.65535" lon="-1.81395">
        <ele>17.25</ele>
        <time>2024-07-03T13:25:22Z</time>
      </trkpt>
      <trkpt lat="46.65534" lon="-1.81393">
        <ele>17.28</ele>
        <time>2024-07-03T13:25:23Z</time>
      </trkpt>
      <trkpt lat="46.65521" lon="-1.81367">
        <ele>18.22</ele>
        <time>2024-07-03T13:25:38Z</time>
      </trkpt>
      <trkpt lat="46.6552" lon="-1.81366">
        <ele>18.44</ele>
        <time>2024-07-03T13:25:39Z</time>
      </trkpt>
      <trkpt lat="46.65519" lon="-1.81365">
        <ele>18.56</ele>
        <time>2024-07-03T13:25:40Z</time>
      </trkpt>
      <trkpt lat="46.65513" lon="-1.81348">
        <ele>20</ele>
        <time>2024-07-03T13:25:52Z</time>
      </trkpt>
      <trkpt lat="46.65507" lon="-1.81337">
        <ele>23.05</ele>
        <time>2024-07-03T13:26:13Z</time>
      </trkpt>
      <trkpt lat="46.65506" lon="-1.81334">
        <ele>23.29</ele>
        <time>2024-07-03T13:26:55Z</time>
      </trkpt>
      <trkpt lat="46.655" lon="-1.8133">
        <ele>22.83</ele>
        <time>2024-07-03T13:27:20Z</time>
      </trkpt>
      <trkpt lat="46.65498" lon="-1.81329">
        <ele>22.83</ele>
        <time>2024-07-03T13:27:21Z</time>
      </trkpt>
      <trkpt lat="46.65497" lon="-1.81329">
        <ele>22.83</ele>
        <time>2024-07-03T13:27:22Z</time>
      </trkpt>
      <trkpt lat="46.65494" lon="-1.81329">
        <ele>22.9</ele>
        <time>2024-07-03T13:27:23Z</time>
      </trkpt>
      <trkpt lat="46.65491" lon="-1.81329">
        <ele>22.94</ele>
        <time>2024-07-03T13:27:24Z</time>
      </trkpt>
      <trkpt lat="46.65432" lon="-1.81324">
        <ele>21.9</ele>
        <time>2024-07-03T13:27:39Z</time>
      </trkpt>
      <trkpt lat="46.65357" lon="-1.81316">
        <ele>18.88</ele>
        <time>2024-07-03T13:27:55Z</time>
      </trkpt>
      <trkpt lat="46.65302" lon="-1.81321">
        <ele>17.88</ele>
        <time>2024-07-03T13:28:09Z</time>
      </trkpt>
      <trkpt lat="46.6526" lon="-1.8134">
        <ele>18.14</ele>
        <time>2024-07-03T13:28:23Z</time>
      </trkpt>
      <trkpt lat="46.65255" lon="-1.81342">
        <ele>19.37</ele>
        <time>2024-07-03T13:28:36Z</time>
      </trkpt>
      <trkpt lat="46.65251" lon="-1.81345">
        <ele>19.07</ele>
        <time>2024-07-03T13:28:42Z</time>
      </trkpt>
      <trkpt lat="46.6525" lon="-1.81345">
        <ele>19.19</ele>
        <time>2024-07-03T13:28:43Z</time>
      </trkpt>
      <trkpt lat="46.65248" lon="-1.81345">
        <ele>19.15</ele>
        <time>2024-07-03T13:28:45Z</time>
      </trkpt>
      <trkpt lat="46.65244" lon="-1.81345">
        <ele>19.65</ele>
        <time>2024-07-03T13:28:59Z</time>
      </trkpt>
      <trkpt lat="46.65236" lon="-1.81345">
        <ele>20.14</ele>
        <time>2024-07-03T13:29:38Z</time>
      </trkpt>
      <trkpt lat="46.65231" lon="-1.81333">
        <ele>19.6</ele>
        <time>2024-07-03T13:30:16Z</time>
      </trkpt>
      <trkpt lat="46.65234" lon="-1.81331">
        <ele>19.85</ele>
        <time>2024-07-03T13:30:52Z</time>
      </trkpt>
      <trkpt lat="46.6523" lon="-1.81335">
        <ele>19.73</ele>
        <time>2024-07-03T13:31:00Z</time>
      </trkpt>
      <trkpt lat="46.65228" lon="-1.81335">
        <ele>19.72</ele>
        <time>2024-07-03T13:31:01Z</time>
      </trkpt>
      <trkpt lat="46.65227" lon="-1.81336">
        <ele>19.69</ele>
        <time>2024-07-03T13:31:02Z</time>
      </trkpt>
      <trkpt lat="46.65226" lon="-1.81336">
        <ele>19.67</ele>
        <time>2024-07-03T13:31:03Z</time>
      </trkpt>
      <trkpt lat="46.65225" lon="-1.81336">
        <ele>19.65</ele>
        <time>2024-07-03T13:31:04Z</time>
      </trkpt>
      <trkpt lat="46.65195" lon="-1.81346">
        <ele>19.75</ele>
        <time>2024-07-03T13:31:26Z</time>
      </trkpt>
      <trkpt lat="46.65177" lon="-1.81355">
        <ele>20.28</ele>
        <time>2024-07-03T13:31:42Z</time>
      </trkpt>
      <trkpt lat="46.65177" lon="-1.81356">
        <ele>20.3</ele>
        <time>2024-07-03T13:31:43Z</time>
      </trkpt>
      <trkpt lat="46.65178" lon="-1.81358">
        <ele>20.31</ele>
        <time>2024-07-03T13:31:44Z</time>
      </trkpt>
      <trkpt lat="46.65174" lon="-1.8137">
        <ele>20.66</ele>
        <time>2024-07-03T13:31:56Z</time>
      </trkpt>
      <trkpt lat="46.65173" lon="-1.8137">
        <ele>21.31</ele>
        <time>2024-07-03T13:32:41Z</time>
      </trkpt>
      <trkpt lat="46.6517" lon="-1.81372">
        <ele>21.22</ele>
        <time>2024-07-03T13:32:47Z</time>
      </trkpt>
      <trkpt lat="46.65164" lon="-1.81374">
        <ele>21.19</ele>
        <time>2024-07-03T13:32:50Z</time>
      </trkpt>
      <trkpt lat="46.65162" lon="-1.81375">
        <ele>21.18</ele>
        <time>2024-07-03T13:32:51Z</time>
      </trkpt>
      <trkpt lat="46.6516" lon="-1.81375">
        <ele>21.17</ele>
        <time>2024-07-03T13:32:52Z</time>
      </trkpt>
      <trkpt lat="46.65145" lon="-1.81383">
        <ele>21.23</ele>
        <time>2024-07-03T13:33:00Z</time>
      </trkpt>
      <trkpt lat="46.65143" lon="-1.81385">
        <ele>21.37</ele>
        <time>2024-07-03T13:33:01Z</time>
      </trkpt>
      <trkpt lat="46.65142" lon="-1.81387">
        <ele>21.46</ele>
        <time>2024-07-03T13:33:02Z</time>
      </trkpt>
      <trkpt lat="46.65141" lon="-1.8139">
        <ele>21.52</ele>
        <time>2024-07-03T13:33:03Z</time>
      </trkpt>
      <trkpt lat="46.65141" lon="-1.81393">
        <ele>21.56</ele>
        <time>2024-07-03T13:33:04Z</time>
      </trkpt>
      <trkpt lat="46.65142" lon="-1.81396">
        <ele>21.62</ele>
        <time>2024-07-03T13:33:05Z</time>
      </trkpt>
      <trkpt lat="46.65143" lon="-1.81441">
        <ele>21.89</ele>
        <time>2024-07-03T13:33:18Z</time>
      </trkpt>
      <trkpt lat="46.65121" lon="-1.81465">
        <ele>21.68</ele>
        <time>2024-07-03T13:33:28Z</time>
      </trkpt>
      <trkpt lat="46.65119" lon="-1.81466">
        <ele>21.69</ele>
        <time>2024-07-03T13:33:29Z</time>
      </trkpt>
      <trkpt lat="46.65117" lon="-1.81468">
        <ele>21.77</ele>
        <time>2024-07-03T13:33:30Z</time>
      </trkpt>
      <trkpt lat="46.65115" lon="-1.8147">
        <ele>21.86</ele>
        <time>2024-07-03T13:33:31Z</time>
      </trkpt>
      <trkpt lat="46.65114" lon="-1.81473">
        <ele>21.91</ele>
        <time>2024-07-03T13:33:32Z</time>
      </trkpt>
      <trkpt lat="46.65108" lon="-1.81476">
        <ele>22.21</ele>
        <time>2024-07-03T13:33:40Z</time>
      </trkpt>
      <trkpt lat="46.65106" lon="-1.81478">
        <ele>22.28</ele>
        <time>2024-07-03T13:33:41Z</time>
      </trkpt>
      <trkpt lat="46.65105" lon="-1.81481">
        <ele>22.31</ele>
        <time>2024-07-03T13:33:42Z</time>
      </trkpt>
      <trkpt lat="46.65103" lon="-1.81483">
        <ele>22.34</ele>
        <time>2024-07-03T13:33:43Z</time>
      </trkpt>
      <trkpt lat="46.65101" lon="-1.81486">
        <ele>22.35</ele>
        <time>2024-07-03T13:33:44Z</time>
      </trkpt>
      <trkpt lat="46.6507" lon="-1.81534">
        <ele>23.56</ele>
        <time>2024-07-03T13:33:59Z</time>
      </trkpt>
      <trkpt lat="46.65041" lon="-1.8159">
        <ele>24.52</ele>
        <time>2024-07-03T13:34:13Z</time>
      </trkpt>
      <trkpt lat="46.6502" lon="-1.81648">
        <ele>24.7</ele>
        <time>2024-07-03T13:34:27Z</time>
      </trkpt>
      <trkpt lat="46.65006" lon="-1.81683">
        <ele>24.7</ele>
        <time>2024-07-03T13:34:38Z</time>
      </trkpt>
      <trkpt lat="46.64999" lon="-1.817">
        <ele>24.71</ele>
        <time>2024-07-03T13:34:44Z</time>
      </trkpt>
      <trkpt lat="46.64997" lon="-1.81703">
        <ele>25.82</ele>
        <time>2024-07-03T13:35:00Z</time>
      </trkpt>
      <trkpt lat="46.6498" lon="-1.8171">
        <ele>26.22</ele>
        <time>2024-07-03T13:35:20Z</time>
      </trkpt>
      <trkpt lat="46.6495" lon="-1.81719">
        <ele>27.99</ele>
        <time>2024-07-03T13:35:43Z</time>
      </trkpt>
      <trkpt lat="46.64937" lon="-1.8173">
        <ele>29.73</ele>
        <time>2024-07-03T13:35:52Z</time>
      </trkpt>
      <trkpt lat="46.64922" lon="-1.81757">
        <ele>31.39</ele>
        <time>2024-07-03T13:36:11Z</time>
      </trkpt>
      <trkpt lat="46.64913" lon="-1.81774">
        <ele>33.97</ele>
        <time>2024-07-03T13:36:36Z</time>
      </trkpt>
      <trkpt lat="46.64901" lon="-1.81776">
        <ele>33.63</ele>
        <time>2024-07-03T13:37:12Z</time>
      </trkpt>
      <trkpt lat="46.64899" lon="-1.81776">
        <ele>33.63</ele>
        <time>2024-07-03T13:37:13Z</time>
      </trkpt>
      <trkpt lat="46.64875" lon="-1.81781">
        <ele>35.96</ele>
        <time>2024-07-03T13:37:39Z</time>
      </trkpt>
      <trkpt lat="46.64867" lon="-1.81787">
        <ele>37.52</ele>
        <time>2024-07-03T13:37:48Z</time>
      </trkpt>
      <trkpt lat="46.64866" lon="-1.81788">
        <ele>37.69</ele>
        <time>2024-07-03T13:37:49Z</time>
      </trkpt>
      <trkpt lat="46.64865" lon="-1.8179">
        <ele>37.78</ele>
        <time>2024-07-03T13:37:50Z</time>
      </trkpt>
      <trkpt lat="46.64864" lon="-1.81791">
        <ele>37.9</ele>
        <time>2024-07-03T13:37:51Z</time>
      </trkpt>
      <trkpt lat="46.64862" lon="-1.81795">
        <ele>38.03</ele>
        <time>2024-07-03T13:37:53Z</time>
      </trkpt>
      <trkpt lat="46.64861" lon="-1.81796">
        <ele>38.05</ele>
        <time>2024-07-03T13:37:54Z</time>
      </trkpt>
      <trkpt lat="46.64859" lon="-1.81797">
        <ele>38.24</ele>
        <time>2024-07-03T13:37:55Z</time>
      </trkpt>
      <trkpt lat="46.64845" lon="-1.81814">
        <ele>40.62</ele>
        <time>2024-07-03T13:38:11Z</time>
      </trkpt>
      <trkpt lat="46.64843" lon="-1.81818">
        <ele>40.74</ele>
        <time>2024-07-03T13:38:13Z</time>
      </trkpt>
      <trkpt lat="46.64842" lon="-1.81819">
        <ele>40.78</ele>
        <time>2024-07-03T13:38:14Z</time>
      </trkpt>
      <trkpt lat="46.64842" lon="-1.8182">
        <ele>40.8</ele>
        <time>2024-07-03T13:38:15Z</time>
      </trkpt>
      <trkpt lat="46.64841" lon="-1.81821">
        <ele>40.85</ele>
        <time>2024-07-03T13:38:16Z</time>
      </trkpt>
      <trkpt lat="46.64841" lon="-1.81822">
        <ele>40.93</ele>
        <time>2024-07-03T13:38:17Z</time>
      </trkpt>
      <trkpt lat="46.6484" lon="-1.81823">
        <ele>40.97</ele>
        <time>2024-07-03T13:38:18Z</time>
      </trkpt>
      <trkpt lat="46.64835" lon="-1.81836">
        <ele>41.66</ele>
        <time>2024-07-03T13:38:31Z</time>
      </trkpt>
      <trkpt lat="46.64833" lon="-1.81838">
        <ele>42.38</ele>
        <time>2024-07-03T13:39:11Z</time>
      </trkpt>
      <trkpt lat="46.64834" lon="-1.81842">
        <ele>42.38</ele>
        <time>2024-07-03T13:39:14Z</time>
      </trkpt>
      <trkpt lat="46.64834" lon="-1.81844">
        <ele>42.4</ele>
        <time>2024-07-03T13:39:15Z</time>
      </trkpt>
      <trkpt lat="46.64835" lon="-1.81846">
        <ele>42.41</ele>
        <time>2024-07-03T13:39:16Z</time>
      </trkpt>
      <trkpt lat="46.64836" lon="-1.81859">
        <ele>42.3</ele>
        <time>2024-07-03T13:39:21Z</time>
      </trkpt>
      <trkpt lat="46.64836" lon="-1.81861">
        <ele>42.1</ele>
        <time>2024-07-03T13:39:22Z</time>
      </trkpt>
      <trkpt lat="46.64836" lon="-1.81863">
        <ele>41.99</ele>
        <time>2024-07-03T13:39:23Z</time>
      </trkpt>
      <trkpt lat="46.64836" lon="-1.81865">
        <ele>41.91</ele>
        <time>2024-07-03T13:39:24Z</time>
      </trkpt>
      <trkpt lat="46.64835" lon="-1.81866">
        <ele>41.74</ele>
        <time>2024-07-03T13:39:25Z</time>
      </trkpt>
      <trkpt lat="46.64833" lon="-1.81867">
        <ele>41.57</ele>
        <time>2024-07-03T13:39:26Z</time>
      </trkpt>
      <trkpt lat="46.64831" lon="-1.81868">
        <ele>41.47</ele>
        <time>2024-07-03T13:39:27Z</time>
      </trkpt>
      <trkpt lat="46.64829" lon="-1.8187">
        <ele>41.41</ele>
        <time>2024-07-03T13:39:28Z</time>
      </trkpt>
      <trkpt lat="46.64793" lon="-1.81896">
        <ele>41.64</ele>
        <time>2024-07-03T13:39:42Z</time>
      </trkpt>
      <trkpt lat="46.64787" lon="-1.81901">
        <ele>42.06</ele>
        <time>2024-07-03T13:39:45Z</time>
      </trkpt>
      <trkpt lat="46.64776" lon="-1.81924">
        <ele>43.71</ele>
        <time>2024-07-03T13:39:55Z</time>
      </trkpt>
      <trkpt lat="46.64775" lon="-1.81924">
        <ele>44.61</ele>
        <time>2024-07-03T13:40:18Z</time>
      </trkpt>
      <trkpt lat="46.64773" lon="-1.81923">
        <ele>44.64</ele>
        <time>2024-07-03T13:40:32Z</time>
      </trkpt>
      <trkpt lat="46.64772" lon="-1.81921">
        <ele>44.63</ele>
        <time>2024-07-03T13:40:33Z</time>
      </trkpt>
      <trkpt lat="46.64769" lon="-1.81917">
        <ele>44.57</ele>
        <time>2024-07-03T13:40:35Z</time>
      </trkpt>
      <trkpt lat="46.64767" lon="-1.81917">
        <ele>44.54</ele>
        <time>2024-07-03T13:40:36Z</time>
      </trkpt>
      <trkpt lat="46.64765" lon="-1.81919">
        <ele>44.52</ele>
        <time>2024-07-03T13:40:37Z</time>
      </trkpt>
      <trkpt lat="46.64763" lon="-1.8192">
        <ele>44.5</ele>
        <time>2024-07-03T13:40:38Z</time>
      </trkpt>
      <trkpt lat="46.6476" lon="-1.81921">
        <ele>44.49</ele>
        <time>2024-07-03T13:40:39Z</time>
      </trkpt>
      <trkpt lat="46.64758" lon="-1.81923">
        <ele>44.49</ele>
        <time>2024-07-03T13:40:40Z</time>
      </trkpt>
      <trkpt lat="46.64733" lon="-1.81942">
        <ele>45.34</ele>
        <time>2024-07-03T13:40:50Z</time>
      </trkpt>
      <trkpt lat="46.64691" lon="-1.81956">
        <ele>46.41</ele>
        <time>2024-07-03T13:41:04Z</time>
      </trkpt>
      <trkpt lat="46.6465" lon="-1.81962">
        <ele>47.62</ele>
        <time>2024-07-03T13:41:18Z</time>
      </trkpt>
      <trkpt lat="46.64608" lon="-1.81962">
        <ele>48.39</ele>
        <time>2024-07-03T13:41:32Z</time>
      </trkpt>
      <trkpt lat="46.64574" lon="-1.81957">
        <ele>48.92</ele>
        <time>2024-07-03T13:41:44Z</time>
      </trkpt>
      <trkpt lat="46.64541" lon="-1.81955">
        <ele>49.03</ele>
        <time>2024-07-03T13:41:56Z</time>
      </trkpt>
      <trkpt lat="46.64487" lon="-1.8195">
        <ele>48.38</ele>
        <time>2024-07-03T13:42:13Z</time>
      </trkpt>
      <trkpt lat="46.6444" lon="-1.81952">
        <ele>48.09</ele>
        <time>2024-07-03T13:42:27Z</time>
      </trkpt>
      <trkpt lat="46.64425" lon="-1.8195">
        <ele>47.26</ele>
        <time>2024-07-03T13:42:39Z</time>
      </trkpt>
      <trkpt lat="46.64423" lon="-1.81949">
        <ele>47.4</ele>
        <time>2024-07-03T13:42:53Z</time>
      </trkpt>
      <trkpt lat="46.64421" lon="-1.81948">
        <ele>47.38</ele>
        <time>2024-07-03T13:42:54Z</time>
      </trkpt>
      <trkpt lat="46.64419" lon="-1.81946">
        <ele>47.36</ele>
        <time>2024-07-03T13:42:55Z</time>
      </trkpt>
      <trkpt lat="46.64416" lon="-1.81947">
        <ele>47.35</ele>
        <time>2024-07-03T13:42:56Z</time>
      </trkpt>
      <trkpt lat="46.64414" lon="-1.81947">
        <ele>47.35</ele>
        <time>2024-07-03T13:42:57Z</time>
      </trkpt>
      <trkpt lat="46.64371" lon="-1.81955">
        <ele>46.72</ele>
        <time>2024-07-03T13:43:11Z</time>
      </trkpt>
      <trkpt lat="46.64315" lon="-1.81965">
        <ele>46.28</ele>
        <time>2024-07-03T13:43:25Z</time>
      </trkpt>
      <trkpt lat="46.64311" lon="-1.81965">
        <ele>46.18</ele>
        <time>2024-07-03T13:43:26Z</time>
      </trkpt>
      <trkpt lat="46.64302" lon="-1.81965">
        <ele>46.12</ele>
        <time>2024-07-03T13:43:28Z</time>
      </trkpt>
      <trkpt lat="46.64298" lon="-1.81965">
        <ele>46.03</ele>
        <time>2024-07-03T13:43:29Z</time>
      </trkpt>
      <trkpt lat="46.64285" lon="-1.81969">
        <ele>45.85</ele>
        <time>2024-07-03T13:43:32Z</time>
      </trkpt>
      <trkpt lat="46.64258" lon="-1.81973">
        <ele>45.62</ele>
        <time>2024-07-03T13:43:38Z</time>
      </trkpt>
      <trkpt lat="46.64188" lon="-1.81985">
        <ele>44.9</ele>
        <time>2024-07-03T13:43:53Z</time>
      </trkpt>
      <trkpt lat="46.64183" lon="-1.81985">
        <ele>44.87</ele>
        <time>2024-07-03T13:43:54Z</time>
      </trkpt>
      <trkpt lat="46.64179" lon="-1.81985">
        <ele>44.81</ele>
        <time>2024-07-03T13:43:55Z</time>
      </trkpt>
      <trkpt lat="46.64157" lon="-1.81981">
        <ele>44.51</ele>
        <time>2024-07-03T13:44:00Z</time>
      </trkpt>
      <trkpt lat="46.64153" lon="-1.81979">
        <ele>44.31</ele>
        <time>2024-07-03T13:44:01Z</time>
      </trkpt>
      <trkpt lat="46.6415" lon="-1.81977">
        <ele>44.31</ele>
        <time>2024-07-03T13:44:02Z</time>
      </trkpt>
      <trkpt lat="46.64146" lon="-1.81974">
        <ele>44.11</ele>
        <time>2024-07-03T13:44:03Z</time>
      </trkpt>
      <trkpt lat="46.64143" lon="-1.81972">
        <ele>44</ele>
        <time>2024-07-03T13:44:04Z</time>
      </trkpt>
      <trkpt lat="46.64139" lon="-1.81972">
        <ele>43.88</ele>
        <time>2024-07-03T13:44:05Z</time>
      </trkpt>
      <trkpt lat="46.64135" lon="-1.81972">
        <ele>43.82</ele>
        <time>2024-07-03T13:44:06Z</time>
      </trkpt>
      <trkpt lat="46.64117" lon="-1.81977">
        <ele>43.44</ele>
        <time>2024-07-03T13:44:14Z</time>
      </trkpt>
      <trkpt lat="46.64116" lon="-1.81975">
        <ele>43.45</ele>
        <time>2024-07-03T13:44:15Z</time>
      </trkpt>
      <trkpt lat="46.64117" lon="-1.81973">
        <ele>43.48</ele>
        <time>2024-07-03T13:44:16Z</time>
      </trkpt>
      <trkpt lat="46.64118" lon="-1.81972">
        <ele>43.47</ele>
        <time>2024-07-03T13:44:17Z</time>
      </trkpt>
      <trkpt lat="46.6412" lon="-1.81973">
        <ele>43.44</ele>
        <time>2024-07-03T13:44:18Z</time>
      </trkpt>
      <trkpt lat="46.64121" lon="-1.81973">
        <ele>43.41</ele>
        <time>2024-07-03T13:44:19Z</time>
      </trkpt>
      <trkpt lat="46.64123" lon="-1.81973">
        <ele>42.85</ele>
        <time>2024-07-03T13:44:41Z</time>
      </trkpt>
      <trkpt lat="46.64119" lon="-1.81975">
        <ele>43.07</ele>
        <time>2024-07-03T13:45:29Z</time>
      </trkpt>
      <trkpt lat="46.64117" lon="-1.81976">
        <ele>43.05</ele>
        <time>2024-07-03T13:45:30Z</time>
      </trkpt>
      <trkpt lat="46.64115" lon="-1.81978">
        <ele>43.02</ele>
        <time>2024-07-03T13:45:31Z</time>
      </trkpt>
      <trkpt lat="46.64075" lon="-1.82003">
        <ele>42.56</ele>
        <time>2024-07-03T13:45:44Z</time>
      </trkpt>
      <trkpt lat="46.64019" lon="-1.82011">
        <ele>43.35</ele>
        <time>2024-07-03T13:46:00Z</time>
      </trkpt>
      <trkpt lat="46.63959" lon="-1.82026">
        <ele>44.15</ele>
        <time>2024-07-03T13:46:17Z</time>
      </trkpt>
      <trkpt lat="46.63915" lon="-1.82045">
        <ele>44.21</ele>
        <time>2024-07-03T13:46:31Z</time>
      </trkpt>
      <trkpt lat="46.63871" lon="-1.82061">
        <ele>46.27</ele>
        <time>2024-07-03T13:46:46Z</time>
      </trkpt>
      <trkpt lat="46.63828" lon="-1.82084">
        <ele>46.7</ele>
        <time>2024-07-03T13:46:59Z</time>
      </trkpt>
      <trkpt lat="46.63788" lon="-1.82086">
        <ele>46.67</ele>
        <time>2024-07-03T13:47:11Z</time>
      </trkpt>
      <trkpt lat="46.63781" lon="-1.82091">
        <ele>46.7</ele>
        <time>2024-07-03T13:47:14Z</time>
      </trkpt>
      <trkpt lat="46.6378" lon="-1.82094">
        <ele>46.71</ele>
        <time>2024-07-03T13:47:15Z</time>
      </trkpt>
      <trkpt lat="46.6378" lon="-1.821">
        <ele>46.62</ele>
        <time>2024-07-03T13:47:27Z</time>
      </trkpt>
      <trkpt lat="46.63779" lon="-1.82105">
        <ele>46.34</ele>
        <time>2024-07-03T13:47:31Z</time>
      </trkpt>
      <trkpt lat="46.63778" lon="-1.82108">
        <ele>46.27</ele>
        <time>2024-07-03T13:47:32Z</time>
      </trkpt>
      <trkpt lat="46.63777" lon="-1.82111">
        <ele>46.23</ele>
        <time>2024-07-03T13:47:33Z</time>
      </trkpt>
      <trkpt lat="46.63771" lon="-1.8216">
        <ele>46.21</ele>
        <time>2024-07-03T13:47:43Z</time>
      </trkpt>
      <trkpt lat="46.63781" lon="-1.82214">
        <ele>46.79</ele>
        <time>2024-07-03T13:47:55Z</time>
      </trkpt>
      <trkpt lat="46.63769" lon="-1.82263">
        <ele>47.3</ele>
        <time>2024-07-03T13:48:07Z</time>
      </trkpt>
      <trkpt lat="46.63753" lon="-1.82306">
        <ele>47.8</ele>
        <time>2024-07-03T13:48:18Z</time>
      </trkpt>
      <trkpt lat="46.63727" lon="-1.82369">
        <ele>48.29</ele>
        <time>2024-07-03T13:48:33Z</time>
      </trkpt>
      <trkpt lat="46.63704" lon="-1.82424">
        <ele>48.34</ele>
        <time>2024-07-03T13:48:47Z</time>
      </trkpt>
      <trkpt lat="46.63679" lon="-1.82482">
        <ele>48.48</ele>
        <time>2024-07-03T13:49:00Z</time>
      </trkpt>
      <trkpt lat="46.63656" lon="-1.82537">
        <ele>47.67</ele>
        <time>2024-07-03T13:49:13Z</time>
      </trkpt>
      <trkpt lat="46.63624" lon="-1.82598">
        <ele>46.06</ele>
        <time>2024-07-03T13:49:28Z</time>
      </trkpt>
      <trkpt lat="46.6359" lon="-1.82642">
        <ele>45.44</ele>
        <time>2024-07-03T13:49:42Z</time>
      </trkpt>
      <trkpt lat="46.63571" lon="-1.82689">
        <ele>44.92</ele>
        <time>2024-07-03T13:49:56Z</time>
      </trkpt>
      <trkpt lat="46.63582" lon="-1.82742">
        <ele>44.44</ele>
        <time>2024-07-03T13:50:08Z</time>
      </trkpt>
      <trkpt lat="46.63581" lon="-1.82791">
        <ele>43.99</ele>
        <time>2024-07-03T13:50:19Z</time>
      </trkpt>
      <trkpt lat="46.63565" lon="-1.8287">
        <ele>43.51</ele>
        <time>2024-07-03T13:50:36Z</time>
      </trkpt>
      <trkpt lat="46.63553" lon="-1.82936">
        <ele>43.13</ele>
        <time>2024-07-03T13:50:51Z</time>
      </trkpt>
      <trkpt lat="46.6354" lon="-1.83003">
        <ele>42.92</ele>
        <time>2024-07-03T13:51:05Z</time>
      </trkpt>
      <trkpt lat="46.63527" lon="-1.83065">
        <ele>43.1</ele>
        <time>2024-07-03T13:51:19Z</time>
      </trkpt>
      <trkpt lat="46.63516" lon="-1.83131">
        <ele>42.32</ele>
        <time>2024-07-03T13:51:34Z</time>
      </trkpt>
      <trkpt lat="46.63507" lon="-1.83195">
        <ele>42.72</ele>
        <time>2024-07-03T13:51:48Z</time>
      </trkpt>
      <trkpt lat="46.63494" lon="-1.83258">
        <ele>42.74</ele>
        <time>2024-07-03T13:52:01Z</time>
      </trkpt>
      <trkpt lat="46.63482" lon="-1.83335">
        <ele>42.65</ele>
        <time>2024-07-03T13:52:18Z</time>
      </trkpt>
      <trkpt lat="46.63466" lon="-1.83395">
        <ele>42.19</ele>
        <time>2024-07-03T13:52:30Z</time>
      </trkpt>
      <trkpt lat="46.63449" lon="-1.83463">
        <ele>42.84</ele>
        <time>2024-07-03T13:52:45Z</time>
      </trkpt>
      <trkpt lat="46.63433" lon="-1.83527">
        <ele>42.73</ele>
        <time>2024-07-03T13:52:59Z</time>
      </trkpt>
      <trkpt lat="46.63426" lon="-1.8355">
        <ele>40.6</ele>
        <time>2024-07-03T13:53:04Z</time>
      </trkpt>
      <trkpt lat="46.63403" lon="-1.83626">
        <ele>40.71</ele>
        <time>2024-07-03T13:53:19Z</time>
      </trkpt>
      <trkpt lat="46.63374" lon="-1.83708">
        <ele>37.72</ele>
        <time>2024-07-03T13:53:33Z</time>
      </trkpt>
      <trkpt lat="46.63347" lon="-1.83771">
        <ele>36.42</ele>
        <time>2024-07-03T13:53:45Z</time>
      </trkpt>
      <trkpt lat="46.63331" lon="-1.83802">
        <ele>36.36</ele>
        <time>2024-07-03T13:53:56Z</time>
      </trkpt>
      <trkpt lat="46.63333" lon="-1.83802">
        <ele>35.57</ele>
        <time>2024-07-03T13:54:46Z</time>
      </trkpt>
      <trkpt lat="46.63332" lon="-1.83803">
        <ele>35.95</ele>
        <time>2024-07-03T13:55:36Z</time>
      </trkpt>
      <trkpt lat="46.63331" lon="-1.83799">
        <ele>36.15</ele>
        <time>2024-07-03T13:56:02Z</time>
      </trkpt>
      <trkpt lat="46.63334" lon="-1.838">
        <ele>35.91</ele>
        <time>2024-07-03T13:56:24Z</time>
      </trkpt>
      <trkpt lat="46.63337" lon="-1.83799">
        <ele>36.21</ele>
        <time>2024-07-03T13:57:09Z</time>
      </trkpt>
      <trkpt lat="46.63334" lon="-1.83796">
        <ele>36.46</ele>
        <time>2024-07-03T13:57:40Z</time>
      </trkpt>
      <trkpt lat="46.63335" lon="-1.83797">
        <ele>35.93</ele>
        <time>2024-07-03T13:58:14Z</time>
      </trkpt>
      <trkpt lat="46.63338" lon="-1.83799">
        <ele>35.89</ele>
        <time>2024-07-03T13:58:45Z</time>
      </trkpt>
      <trkpt lat="46.63341" lon="-1.83794">
        <ele>35.63</ele>
        <time>2024-07-03T13:59:12Z</time>
      </trkpt>
      <trkpt lat="46.63335" lon="-1.83791">
        <ele>35.75</ele>
        <time>2024-07-03T13:59:51Z</time>
      </trkpt>
      <trkpt lat="46.63336" lon="-1.8379">
        <ele>35.43</ele>
        <time>2024-07-03T14:00:18Z</time>
      </trkpt>
      <trkpt lat="46.63338" lon="-1.83792">
        <ele>35.65</ele>
        <time>2024-07-03T14:00:40Z</time>
      </trkpt>
      <trkpt lat="46.63337" lon="-1.83794">
        <ele>35.26</ele>
        <time>2024-07-03T14:01:10Z</time>
      </trkpt>
      <trkpt lat="46.63342" lon="-1.83795">
        <ele>35.27</ele>
        <time>2024-07-03T14:01:35Z</time>
      </trkpt>
      <trkpt lat="46.6334" lon="-1.83795">
        <ele>35.3</ele>
        <time>2024-07-03T14:01:59Z</time>
      </trkpt>
      <trkpt lat="46.63334" lon="-1.83799">
        <ele>35.44</ele>
        <time>2024-07-03T14:02:30Z</time>
      </trkpt>
      <trkpt lat="46.6333" lon="-1.83801">
        <ele>35.28</ele>
        <time>2024-07-03T14:02:34Z</time>
      </trkpt>
      <trkpt lat="46.63329" lon="-1.83802">
        <ele>34.71</ele>
        <time>2024-07-03T14:02:51Z</time>
      </trkpt>
      <trkpt lat="46.63331" lon="-1.83796">
        <ele>34.71</ele>
        <time>2024-07-03T14:02:56Z</time>
      </trkpt>
      <trkpt lat="46.63332" lon="-1.83794">
        <ele>34.72</ele>
        <time>2024-07-03T14:02:57Z</time>
      </trkpt>
      <trkpt lat="46.63333" lon="-1.83791">
        <ele>34.73</ele>
        <time>2024-07-03T14:02:58Z</time>
      </trkpt>
      <trkpt lat="46.63335" lon="-1.83789">
        <ele>34.78</ele>
        <time>2024-07-03T14:02:59Z</time>
      </trkpt>
      <trkpt lat="46.63336" lon="-1.83785">
        <ele>34.81</ele>
        <time>2024-07-03T14:03:00Z</time>
      </trkpt>
      <trkpt lat="46.63338" lon="-1.83782">
        <ele>34.84</ele>
        <time>2024-07-03T14:03:01Z</time>
      </trkpt>
      <trkpt lat="46.63339" lon="-1.83779">
        <ele>34.85</ele>
        <time>2024-07-03T14:03:02Z</time>
      </trkpt>
      <trkpt lat="46.63341" lon="-1.83776">
        <ele>34.89</ele>
        <time>2024-07-03T14:03:03Z</time>
      </trkpt>
      <trkpt lat="46.63342" lon="-1.83773">
        <ele>34.92</ele>
        <time>2024-07-03T14:03:04Z</time>
      </trkpt>
      <trkpt lat="46.63364" lon="-1.83727">
        <ele>35.3</ele>
        <time>2024-07-03T14:03:19Z</time>
      </trkpt>
      <trkpt lat="46.63383" lon="-1.83673">
        <ele>35.92</ele>
        <time>2024-07-03T14:03:34Z</time>
      </trkpt>
      <trkpt lat="46.63401" lon="-1.83624">
        <ele>37.49</ele>
        <time>2024-07-03T14:03:48Z</time>
      </trkpt>
      <trkpt lat="46.6342" lon="-1.83558">
        <ele>38.67</ele>
        <time>2024-07-03T14:04:04Z</time>
      </trkpt>
      <trkpt lat="46.63439" lon="-1.83498">
        <ele>39.95</ele>
        <time>2024-07-03T14:04:19Z</time>
      </trkpt>
      <trkpt lat="46.63458" lon="-1.83423">
        <ele>40.28</ele>
        <time>2024-07-03T14:04:34Z</time>
      </trkpt>
      <trkpt lat="46.63476" lon="-1.83346">
        <ele>40.46</ele>
        <time>2024-07-03T14:04:49Z</time>
      </trkpt>
      <trkpt lat="46.63492" lon="-1.83262">
        <ele>40.88</ele>
        <time>2024-07-03T14:05:05Z</time>
      </trkpt>
      <trkpt lat="46.63508" lon="-1.83177">
        <ele>41.2</ele>
        <time>2024-07-03T14:05:21Z</time>
      </trkpt>
      <trkpt lat="46.63519" lon="-1.83094">
        <ele>41.2</ele>
        <time>2024-07-03T14:05:36Z</time>
      </trkpt>
      <trkpt lat="46.63526" lon="-1.83066">
        <ele>41.16</ele>
        <time>2024-07-03T14:05:41Z</time>
      </trkpt>
      <trkpt lat="46.63532" lon="-1.8305">
        <ele>41.21</ele>
        <time>2024-07-03T14:05:44Z</time>
      </trkpt>
      <trkpt lat="46.63533" lon="-1.83044">
        <ele>41.23</ele>
        <time>2024-07-03T14:05:45Z</time>
      </trkpt>
      <trkpt lat="46.63534" lon="-1.83039">
        <ele>41.27</ele>
        <time>2024-07-03T14:05:46Z</time>
      </trkpt>
      <trkpt lat="46.63548" lon="-1.82954">
        <ele>41.96</ele>
        <time>2024-07-03T14:06:02Z</time>
      </trkpt>
      <trkpt lat="46.63551" lon="-1.82932">
        <ele>42</ele>
        <time>2024-07-03T14:06:06Z</time>
      </trkpt>
      <trkpt lat="46.63553" lon="-1.82926">
        <ele>42.02</ele>
        <time>2024-07-03T14:06:07Z</time>
      </trkpt>
      <trkpt lat="46.63556" lon="-1.82907">
        <ele>42.1</ele>
        <time>2024-07-03T14:06:10Z</time>
      </trkpt>
      <trkpt lat="46.63573" lon="-1.82821">
        <ele>42.45</ele>
        <time>2024-07-03T14:06:26Z</time>
      </trkpt>
      <trkpt lat="46.63581" lon="-1.82758">
        <ele>42.95</ele>
        <time>2024-07-03T14:06:37Z</time>
      </trkpt>
      <trkpt lat="46.63581" lon="-1.82751">
        <ele>42.98</ele>
        <time>2024-07-03T14:06:38Z</time>
      </trkpt>
      <trkpt lat="46.6358" lon="-1.82745">
        <ele>42.99</ele>
        <time>2024-07-03T14:06:39Z</time>
      </trkpt>
      <trkpt lat="46.63572" lon="-1.82673">
        <ele>43.23</ele>
        <time>2024-07-03T14:06:53Z</time>
      </trkpt>
      <trkpt lat="46.63604" lon="-1.82625">
        <ele>44.1</ele>
        <time>2024-07-03T14:07:06Z</time>
      </trkpt>
      <trkpt lat="46.63635" lon="-1.82582">
        <ele>44.94</ele>
        <time>2024-07-03T14:07:18Z</time>
      </trkpt>
      <trkpt lat="46.6366" lon="-1.82524">
        <ele>45.24</ele>
        <time>2024-07-03T14:07:31Z</time>
      </trkpt>
      <trkpt lat="46.63683" lon="-1.82466">
        <ele>46.11</ele>
        <time>2024-07-03T14:07:45Z</time>
      </trkpt>
      <trkpt lat="46.63715" lon="-1.82386">
        <ele>46.87</ele>
        <time>2024-07-03T14:08:03Z</time>
      </trkpt>
      <trkpt lat="46.63746" lon="-1.82313">
        <ele>46.98</ele>
        <time>2024-07-03T14:08:18Z</time>
      </trkpt>
      <trkpt lat="46.63776" lon="-1.82237">
        <ele>46.94</ele>
        <time>2024-07-03T14:08:30Z</time>
      </trkpt>
      <trkpt lat="46.63777" lon="-1.8223">
        <ele>46.85</ele>
        <time>2024-07-03T14:08:31Z</time>
      </trkpt>
      <trkpt lat="46.63778" lon="-1.82223">
        <ele>46.84</ele>
        <time>2024-07-03T14:08:32Z</time>
      </trkpt>
      <trkpt lat="46.63779" lon="-1.82216">
        <ele>46.8</ele>
        <time>2024-07-03T14:08:33Z</time>
      </trkpt>
      <trkpt lat="46.63779" lon="-1.82208">
        <ele>46.7</ele>
        <time>2024-07-03T14:08:34Z</time>
      </trkpt>
      <trkpt lat="46.63778" lon="-1.82201">
        <ele>46.65</ele>
        <time>2024-07-03T14:08:35Z</time>
      </trkpt>
      <trkpt lat="46.63777" lon="-1.82186">
        <ele>46.56</ele>
        <time>2024-07-03T14:08:37Z</time>
      </trkpt>
      <trkpt lat="46.63775" lon="-1.82178">
        <ele>46.54</ele>
        <time>2024-07-03T14:08:38Z</time>
      </trkpt>
      <trkpt lat="46.6377" lon="-1.82157">
        <ele>46.44</ele>
        <time>2024-07-03T14:08:41Z</time>
      </trkpt>
      <trkpt lat="46.63767" lon="-1.82143">
        <ele>46.32</ele>
        <time>2024-07-03T14:08:43Z</time>
      </trkpt>
      <trkpt lat="46.63767" lon="-1.82136">
        <ele>46.19</ele>
        <time>2024-07-03T14:08:44Z</time>
      </trkpt>
      <trkpt lat="46.63768" lon="-1.8213">
        <ele>46.13</ele>
        <time>2024-07-03T14:08:45Z</time>
      </trkpt>
      <trkpt lat="46.63772" lon="-1.82117">
        <ele>45.97</ele>
        <time>2024-07-03T14:08:53Z</time>
      </trkpt>
      <trkpt lat="46.63773" lon="-1.82115">
        <ele>45.96</ele>
        <time>2024-07-03T14:08:54Z</time>
      </trkpt>
      <trkpt lat="46.63774" lon="-1.82112">
        <ele>45.95</ele>
        <time>2024-07-03T14:08:55Z</time>
      </trkpt>
      <trkpt lat="46.63774" lon="-1.82108">
        <ele>45.95</ele>
        <time>2024-07-03T14:08:56Z</time>
      </trkpt>
      <trkpt lat="46.63775" lon="-1.82103">
        <ele>45.95</ele>
        <time>2024-07-03T14:08:57Z</time>
      </trkpt>
      <trkpt lat="46.63777" lon="-1.82099">
        <ele>45.95</ele>
        <time>2024-07-03T14:08:58Z</time>
      </trkpt>
      <trkpt lat="46.63779" lon="-1.82094">
        <ele>45.97</ele>
        <time>2024-07-03T14:08:59Z</time>
      </trkpt>
      <trkpt lat="46.63781" lon="-1.8209">
        <ele>45.98</ele>
        <time>2024-07-03T14:09:00Z</time>
      </trkpt>
      <trkpt lat="46.63784" lon="-1.82087">
        <ele>45.99</ele>
        <time>2024-07-03T14:09:01Z</time>
      </trkpt>
      <trkpt lat="46.63787" lon="-1.82087">
        <ele>45.99</ele>
        <time>2024-07-03T14:09:02Z</time>
      </trkpt>
      <trkpt lat="46.63791" lon="-1.82087">
        <ele>45.99</ele>
        <time>2024-07-03T14:09:03Z</time>
      </trkpt>
      <trkpt lat="46.63804" lon="-1.82087">
        <ele>46.02</ele>
        <time>2024-07-03T14:09:06Z</time>
      </trkpt>
      <trkpt lat="46.63808" lon="-1.82087">
        <ele>46.05</ele>
        <time>2024-07-03T14:09:07Z</time>
      </trkpt>
      <trkpt lat="46.63813" lon="-1.82086">
        <ele>46.06</ele>
        <time>2024-07-03T14:09:08Z</time>
      </trkpt>
      <trkpt lat="46.63817" lon="-1.82086">
        <ele>46.03</ele>
        <time>2024-07-03T14:09:09Z</time>
      </trkpt>
      <trkpt lat="46.63822" lon="-1.82086">
        <ele>46.01</ele>
        <time>2024-07-03T14:09:10Z</time>
      </trkpt>
      <trkpt lat="46.63827" lon="-1.82085">
        <ele>46</ele>
        <time>2024-07-03T14:09:11Z</time>
      </trkpt>
      <trkpt lat="46.63831" lon="-1.82084">
        <ele>46</ele>
        <time>2024-07-03T14:09:12Z</time>
      </trkpt>
      <trkpt lat="46.63835" lon="-1.82082">
        <ele>46</ele>
        <time>2024-07-03T14:09:13Z</time>
      </trkpt>
      <trkpt lat="46.63886" lon="-1.82057">
        <ele>45.82</ele>
        <time>2024-07-03T14:09:24Z</time>
      </trkpt>
      <trkpt lat="46.63933" lon="-1.82034">
        <ele>45.59</ele>
        <time>2024-07-03T14:09:33Z</time>
      </trkpt>
      <trkpt lat="46.64032" lon="-1.82009">
        <ele>43.86</ele>
        <time>2024-07-03T14:09:50Z</time>
      </trkpt>
      <trkpt lat="46.64102" lon="-1.81989">
        <ele>42.95</ele>
        <time>2024-07-03T14:10:04Z</time>
      </trkpt>
      <trkpt lat="46.64107" lon="-1.81985">
        <ele>42.92</ele>
        <time>2024-07-03T14:10:05Z</time>
      </trkpt>
      <trkpt lat="46.64115" lon="-1.81979">
        <ele>42.81</ele>
        <time>2024-07-03T14:10:07Z</time>
      </trkpt>
      <trkpt lat="46.64119" lon="-1.81977">
        <ele>42.81</ele>
        <time>2024-07-03T14:10:08Z</time>
      </trkpt>
      <trkpt lat="46.64145" lon="-1.81974">
        <ele>42.65</ele>
        <time>2024-07-03T14:10:14Z</time>
      </trkpt>
      <trkpt lat="46.64149" lon="-1.81975">
        <ele>42.63</ele>
        <time>2024-07-03T14:10:15Z</time>
      </trkpt>
      <trkpt lat="46.64152" lon="-1.81978">
        <ele>42.6</ele>
        <time>2024-07-03T14:10:16Z</time>
      </trkpt>
      <trkpt lat="46.64156" lon="-1.8198">
        <ele>42.59</ele>
        <time>2024-07-03T14:10:17Z</time>
      </trkpt>
      <trkpt lat="46.64161" lon="-1.81983">
        <ele>42.52</ele>
        <time>2024-07-03T14:10:18Z</time>
      </trkpt>
      <trkpt lat="46.64165" lon="-1.81984">
        <ele>42.49</ele>
        <time>2024-07-03T14:10:19Z</time>
      </trkpt>
      <trkpt lat="46.6417" lon="-1.81985">
        <ele>42.47</ele>
        <time>2024-07-03T14:10:20Z</time>
      </trkpt>
      <trkpt lat="46.64175" lon="-1.81985">
        <ele>42.45</ele>
        <time>2024-07-03T14:10:21Z</time>
      </trkpt>
      <trkpt lat="46.642" lon="-1.81985">
        <ele>42.45</ele>
        <time>2024-07-03T14:10:26Z</time>
      </trkpt>
      <trkpt lat="46.64204" lon="-1.81983">
        <ele>42.45</ele>
        <time>2024-07-03T14:10:27Z</time>
      </trkpt>
      <trkpt lat="46.64208" lon="-1.81983">
        <ele>42.45</ele>
        <time>2024-07-03T14:10:28Z</time>
      </trkpt>
      <trkpt lat="46.6423" lon="-1.8198">
        <ele>43.02</ele>
        <time>2024-07-03T14:10:33Z</time>
      </trkpt>
      <trkpt lat="46.64304" lon="-1.81967">
        <ele>43.88</ele>
        <time>2024-07-03T14:10:51Z</time>
      </trkpt>
      <trkpt lat="46.6436" lon="-1.81958">
        <ele>45.02</ele>
        <time>2024-07-03T14:11:06Z</time>
      </trkpt>
      <trkpt lat="46.64414" lon="-1.81949">
        <ele>45.96</ele>
        <time>2024-07-03T14:11:21Z</time>
      </trkpt>
      <trkpt lat="46.64428" lon="-1.8195">
        <ele>46.22</ele>
        <time>2024-07-03T14:11:30Z</time>
      </trkpt>
      <trkpt lat="46.64433" lon="-1.81951">
        <ele>46.54</ele>
        <time>2024-07-03T14:12:19Z</time>
      </trkpt>
      <trkpt lat="46.64433" lon="-1.81954">
        <ele>46.53</ele>
        <time>2024-07-03T14:12:46Z</time>
      </trkpt>
      <trkpt lat="46.64431" lon="-1.81949">
        <ele>46.67</ele>
        <time>2024-07-03T14:13:25Z</time>
      </trkpt>
      <trkpt lat="46.64423" lon="-1.81947">
        <ele>46.26</ele>
        <time>2024-07-03T14:13:42Z</time>
      </trkpt>
      <trkpt lat="46.64421" lon="-1.81947">
        <ele>46.26</ele>
        <time>2024-07-03T14:13:43Z</time>
      </trkpt>
      <trkpt lat="46.64418" lon="-1.81947">
        <ele>46.26</ele>
        <time>2024-07-03T14:13:44Z</time>
      </trkpt>
      <trkpt lat="46.64415" lon="-1.81948">
        <ele>46.24</ele>
        <time>2024-07-03T14:13:45Z</time>
      </trkpt>
      <trkpt lat="46.64411" lon="-1.8195">
        <ele>46.23</ele>
        <time>2024-07-03T14:13:46Z</time>
      </trkpt>
      <trkpt lat="46.64407" lon="-1.81951">
        <ele>46.19</ele>
        <time>2024-07-03T14:13:47Z</time>
      </trkpt>
      <trkpt lat="46.64402" lon="-1.81952">
        <ele>46.16</ele>
        <time>2024-07-03T14:13:48Z</time>
      </trkpt>
      <trkpt lat="46.64398" lon="-1.81952">
        <ele>46.15</ele>
        <time>2024-07-03T14:13:49Z</time>
      </trkpt>
      <trkpt lat="46.64385" lon="-1.81955">
        <ele>46.12</ele>
        <time>2024-07-03T14:13:52Z</time>
      </trkpt>
      <trkpt lat="46.6438" lon="-1.81956">
        <ele>46.05</ele>
        <time>2024-07-03T14:13:53Z</time>
      </trkpt>
      <trkpt lat="46.64364" lon="-1.81958">
        <ele>46.09</ele>
        <time>2024-07-03T14:13:56Z</time>
      </trkpt>
      <trkpt lat="46.64293" lon="-1.81969">
        <ele>45.16</ele>
        <time>2024-07-03T14:14:11Z</time>
      </trkpt>
      <trkpt lat="46.64257" lon="-1.81975">
        <ele>44.5</ele>
        <time>2024-07-03T14:14:18Z</time>
      </trkpt>
      <trkpt lat="46.64247" lon="-1.81978">
        <ele>44.23</ele>
        <time>2024-07-03T14:14:20Z</time>
      </trkpt>
      <trkpt lat="46.64163" lon="-1.81986">
        <ele>43.22</ele>
        <time>2024-07-03T14:14:36Z</time>
      </trkpt>
      <trkpt lat="46.64158" lon="-1.81984">
        <ele>43.03</ele>
        <time>2024-07-03T14:14:37Z</time>
      </trkpt>
      <trkpt lat="46.64153" lon="-1.81982">
        <ele>43.03</ele>
        <time>2024-07-03T14:14:38Z</time>
      </trkpt>
      <trkpt lat="46.64148" lon="-1.81978">
        <ele>42.86</ele>
        <time>2024-07-03T14:14:39Z</time>
      </trkpt>
      <trkpt lat="46.64144" lon="-1.81976">
        <ele>42.74</ele>
        <time>2024-07-03T14:14:40Z</time>
      </trkpt>
      <trkpt lat="46.64139" lon="-1.81976">
        <ele>42.64</ele>
        <time>2024-07-03T14:14:41Z</time>
      </trkpt>
      <trkpt lat="46.64134" lon="-1.81977">
        <ele>42.54</ele>
        <time>2024-07-03T14:14:42Z</time>
      </trkpt>
      <trkpt lat="46.64131" lon="-1.81977">
        <ele>42.49</ele>
        <time>2024-07-03T14:14:43Z</time>
      </trkpt>
      <trkpt lat="46.64114" lon="-1.81981">
        <ele>42.33</ele>
        <time>2024-07-03T14:14:47Z</time>
      </trkpt>
      <trkpt lat="46.6411" lon="-1.81983">
        <ele>42.38</ele>
        <time>2024-07-03T14:14:48Z</time>
      </trkpt>
      <trkpt lat="46.64106" lon="-1.81987">
        <ele>42.41</ele>
        <time>2024-07-03T14:14:49Z</time>
      </trkpt>
      <trkpt lat="46.64103" lon="-1.81991">
        <ele>42.43</ele>
        <time>2024-07-03T14:14:50Z</time>
      </trkpt>
      <trkpt lat="46.64098" lon="-1.81993">
        <ele>42.44</ele>
        <time>2024-07-03T14:14:51Z</time>
      </trkpt>
      <trkpt lat="46.64094" lon="-1.81996">
        <ele>42.43</ele>
        <time>2024-07-03T14:14:52Z</time>
      </trkpt>
      <trkpt lat="46.64067" lon="-1.82005">
        <ele>42.09</ele>
        <time>2024-07-03T14:14:58Z</time>
      </trkpt>
      <trkpt lat="46.64044" lon="-1.82009">
        <ele>42.1</ele>
        <time>2024-07-03T14:15:03Z</time>
      </trkpt>
      <trkpt lat="46.63998" lon="-1.82014">
        <ele>43.29</ele>
        <time>2024-07-03T14:15:16Z</time>
      </trkpt>
      <trkpt lat="46.63969" lon="-1.82023">
        <ele>43.84</ele>
        <time>2024-07-03T14:15:27Z</time>
      </trkpt>
      <trkpt lat="46.63964" lon="-1.82023">
        <ele>43.9</ele>
        <time>2024-07-03T14:15:39Z</time>
      </trkpt>
      <trkpt lat="46.63959" lon="-1.82023">
        <ele>43.76</ele>
        <time>2024-07-03T14:15:57Z</time>
      </trkpt>
      <trkpt lat="46.63957" lon="-1.82023">
        <ele>43.76</ele>
        <time>2024-07-03T14:15:58Z</time>
      </trkpt>
      <trkpt lat="46.63956" lon="-1.82023">
        <ele>43.76</ele>
        <time>2024-07-03T14:15:59Z</time>
      </trkpt>
      <trkpt lat="46.63953" lon="-1.82024">
        <ele>43.76</ele>
        <time>2024-07-03T14:16:01Z</time>
      </trkpt>
      <trkpt lat="46.63952" lon="-1.82025">
        <ele>43.76</ele>
        <time>2024-07-03T14:16:02Z</time>
      </trkpt>
      <trkpt lat="46.6395" lon="-1.82026">
        <ele>43.76</ele>
        <time>2024-07-03T14:16:03Z</time>
      </trkpt>
      <trkpt lat="46.63948" lon="-1.82028">
        <ele>43.77</ele>
        <time>2024-07-03T14:16:04Z</time>
      </trkpt>
      <trkpt lat="46.63946" lon="-1.82029">
        <ele>43.77</ele>
        <time>2024-07-03T14:16:05Z</time>
      </trkpt>
      <trkpt lat="46.63944" lon="-1.8203">
        <ele>43.77</ele>
        <time>2024-07-03T14:16:06Z</time>
      </trkpt>
      <trkpt lat="46.63914" lon="-1.82043">
        <ele>43.81</ele>
        <time>2024-07-03T14:16:17Z</time>
      </trkpt>
      <trkpt lat="46.63881" lon="-1.82059">
        <ele>45.06</ele>
        <time>2024-07-03T14:16:29Z</time>
      </trkpt>
      <trkpt lat="46.63842" lon="-1.82081">
        <ele>46.17</ele>
        <time>2024-07-03T14:16:41Z</time>
      </trkpt>
      <trkpt lat="46.63803" lon="-1.82089">
        <ele>46.22</ele>
        <time>2024-07-03T14:16:52Z</time>
      </trkpt>
      <trkpt lat="46.63777" lon="-1.82096">
        <ele>46.25</ele>
        <time>2024-07-03T14:17:00Z</time>
      </trkpt>
      <trkpt lat="46.63776" lon="-1.82099">
        <ele>46.25</ele>
        <time>2024-07-03T14:17:01Z</time>
      </trkpt>
      <trkpt lat="46.63769" lon="-1.82152">
        <ele>46.51</ele>
        <time>2024-07-03T14:17:14Z</time>
      </trkpt>
      <trkpt lat="46.6378" lon="-1.82214">
        <ele>45.88</ele>
        <time>2024-07-03T14:17:27Z</time>
      </trkpt>
      <trkpt lat="46.63768" lon="-1.82267">
        <ele>45.63</ele>
        <time>2024-07-03T14:17:39Z</time>
      </trkpt>
      <trkpt lat="46.63743" lon="-1.8233">
        <ele>45.85</ele>
        <time>2024-07-03T14:17:54Z</time>
      </trkpt>
      <trkpt lat="46.6371" lon="-1.82407">
        <ele>46.54</ele>
        <time>2024-07-03T14:18:12Z</time>
      </trkpt>
      <trkpt lat="46.63685" lon="-1.82467">
        <ele>46.27</ele>
        <time>2024-07-03T14:18:25Z</time>
      </trkpt>
      <trkpt lat="46.63677" lon="-1.82487">
        <ele>46.12</ele>
        <time>2024-07-03T14:18:29Z</time>
      </trkpt>
      <trkpt lat="46.63669" lon="-1.82508">
        <ele>45.98</ele>
        <time>2024-07-03T14:18:33Z</time>
      </trkpt>
      <trkpt lat="46.63664" lon="-1.82519">
        <ele>45.9</ele>
        <time>2024-07-03T14:18:35Z</time>
      </trkpt>
      <trkpt lat="46.63661" lon="-1.82525">
        <ele>45.87</ele>
        <time>2024-07-03T14:18:36Z</time>
      </trkpt>
      <trkpt lat="46.63657" lon="-1.82538">
        <ele>45.75</ele>
        <time>2024-07-03T14:18:38Z</time>
      </trkpt>
      <trkpt lat="46.63646" lon="-1.82562">
        <ele>45.36</ele>
        <time>2024-07-03T14:18:42Z</time>
      </trkpt>
      <trkpt lat="46.63636" lon="-1.82586">
        <ele>44.8</ele>
        <time>2024-07-03T14:18:46Z</time>
      </trkpt>
      <trkpt lat="46.63632" lon="-1.8259">
        <ele>44.73</ele>
        <time>2024-07-03T14:18:47Z</time>
      </trkpt>
      <trkpt lat="46.63625" lon="-1.82598">
        <ele>44.67</ele>
        <time>2024-07-03T14:18:49Z</time>
      </trkpt>
      <trkpt lat="46.63622" lon="-1.82603">
        <ele>44.66</ele>
        <time>2024-07-03T14:18:50Z</time>
      </trkpt>
      <trkpt lat="46.63616" lon="-1.82614">
        <ele>44.63</ele>
        <time>2024-07-03T14:18:52Z</time>
      </trkpt>
      <trkpt lat="46.63613" lon="-1.82619">
        <ele>44.62</ele>
        <time>2024-07-03T14:18:53Z</time>
      </trkpt>
      <trkpt lat="46.63609" lon="-1.82623">
        <ele>44.61</ele>
        <time>2024-07-03T14:18:54Z</time>
      </trkpt>
      <trkpt lat="46.63596" lon="-1.82636">
        <ele>44.54</ele>
        <time>2024-07-03T14:18:58Z</time>
      </trkpt>
      <trkpt lat="46.6357" lon="-1.82685">
        <ele>43.86</ele>
        <time>2024-07-03T14:19:07Z</time>
      </trkpt>
      <trkpt lat="46.6357" lon="-1.82691">
        <ele>43.79</ele>
        <time>2024-07-03T14:19:08Z</time>
      </trkpt>
      <trkpt lat="46.6357" lon="-1.82699">
        <ele>43.41</ele>
        <time>2024-07-03T14:19:09Z</time>
      </trkpt>
      <trkpt lat="46.63572" lon="-1.82707">
        <ele>43.21</ele>
        <time>2024-07-03T14:19:10Z</time>
      </trkpt>
      <trkpt lat="46.63573" lon="-1.82714">
        <ele>43.11</ele>
        <time>2024-07-03T14:19:11Z</time>
      </trkpt>
      <trkpt lat="46.63575" lon="-1.82722">
        <ele>43</ele>
        <time>2024-07-03T14:19:12Z</time>
      </trkpt>
      <trkpt lat="46.63576" lon="-1.82729">
        <ele>42.93</ele>
        <time>2024-07-03T14:19:13Z</time>
      </trkpt>
      <trkpt lat="46.63577" lon="-1.82736">
        <ele>42.54</ele>
        <time>2024-07-03T14:19:14Z</time>
      </trkpt>
      <trkpt lat="46.63579" lon="-1.82743">
        <ele>42.35</ele>
        <time>2024-07-03T14:19:15Z</time>
      </trkpt>
      <trkpt lat="46.63582" lon="-1.82758">
        <ele>42.2</ele>
        <time>2024-07-03T14:19:17Z</time>
      </trkpt>
      <trkpt lat="46.63582" lon="-1.82765">
        <ele>42.04</ele>
        <time>2024-07-03T14:19:18Z</time>
      </trkpt>
      <trkpt lat="46.63582" lon="-1.82772">
        <ele>41.93</ele>
        <time>2024-07-03T14:19:19Z</time>
      </trkpt>
      <trkpt lat="46.63581" lon="-1.82778">
        <ele>41.62</ele>
        <time>2024-07-03T14:19:20Z</time>
      </trkpt>
      <trkpt lat="46.63579" lon="-1.82784">
        <ele>41.41</ele>
        <time>2024-07-03T14:19:21Z</time>
      </trkpt>
      <trkpt lat="46.63578" lon="-1.82791">
        <ele>41.31</ele>
        <time>2024-07-03T14:19:22Z</time>
      </trkpt>
      <trkpt lat="46.63577" lon="-1.82798">
        <ele>41.21</ele>
        <time>2024-07-03T14:19:23Z</time>
      </trkpt>
      <trkpt lat="46.63575" lon="-1.82811">
        <ele>41.03</ele>
        <time>2024-07-03T14:19:25Z</time>
      </trkpt>
      <trkpt lat="46.63574" lon="-1.82817">
        <ele>40.98</ele>
        <time>2024-07-03T14:19:26Z</time>
      </trkpt>
      <trkpt lat="46.63573" lon="-1.82824">
        <ele>40.84</ele>
        <time>2024-07-03T14:19:27Z</time>
      </trkpt>
      <trkpt lat="46.63573" lon="-1.8283">
        <ele>40.75</ele>
        <time>2024-07-03T14:19:28Z</time>
      </trkpt>
      <trkpt lat="46.63571" lon="-1.82836">
        <ele>40.55</ele>
        <time>2024-07-03T14:19:29Z</time>
      </trkpt>
      <trkpt lat="46.6357" lon="-1.82842">
        <ele>40.44</ele>
        <time>2024-07-03T14:19:30Z</time>
      </trkpt>
      <trkpt lat="46.63561" lon="-1.82895">
        <ele>40.28</ele>
        <time>2024-07-03T14:19:39Z</time>
      </trkpt>
      <trkpt lat="46.63549" lon="-1.82959">
        <ele>40.96</ele>
        <time>2024-07-03T14:19:50Z</time>
      </trkpt>
      <trkpt lat="46.63546" lon="-1.82977">
        <ele>40.94</ele>
        <time>2024-07-03T14:19:53Z</time>
      </trkpt>
      <trkpt lat="46.63544" lon="-1.82983">
        <ele>40.94</ele>
        <time>2024-07-03T14:19:54Z</time>
      </trkpt>
      <trkpt lat="46.63543" lon="-1.82989">
        <ele>40.94</ele>
        <time>2024-07-03T14:19:55Z</time>
      </trkpt>
      <trkpt lat="46.63524" lon="-1.83073">
        <ele>42.05</ele>
        <time>2024-07-03T14:20:10Z</time>
      </trkpt>
      <trkpt lat="46.63522" lon="-1.83082">
        <ele>41.51</ele>
        <time>2024-07-03T14:20:19Z</time>
      </trkpt>
      <trkpt lat="46.63524" lon="-1.83082">
        <ele>41.87</ele>
        <time>2024-07-03T14:20:56Z</time>
      </trkpt>
      <trkpt lat="46.63523" lon="-1.83081">
        <ele>41.54</ele>
        <time>2024-07-03T14:21:38Z</time>
      </trkpt>
      <trkpt lat="46.63524" lon="-1.8308">
        <ele>41.68</ele>
        <time>2024-07-03T14:22:01Z</time>
      </trkpt>
      <trkpt lat="46.63524" lon="-1.83076">
        <ele>41.4</ele>
        <time>2024-07-03T14:22:12Z</time>
      </trkpt>
      <trkpt lat="46.63526" lon="-1.8307">
        <ele>41.36</ele>
        <time>2024-07-03T14:22:14Z</time>
      </trkpt>
      <trkpt lat="46.63528" lon="-1.83066">
        <ele>41.35</ele>
        <time>2024-07-03T14:22:15Z</time>
      </trkpt>
      <trkpt lat="46.63529" lon="-1.8306">
        <ele>41.31</ele>
        <time>2024-07-03T14:22:16Z</time>
      </trkpt>
      <trkpt lat="46.63531" lon="-1.83055">
        <ele>41.28</ele>
        <time>2024-07-03T14:22:17Z</time>
      </trkpt>
      <trkpt lat="46.63535" lon="-1.83043">
        <ele>41.24</ele>
        <time>2024-07-03T14:22:19Z</time>
      </trkpt>
      <trkpt lat="46.63536" lon="-1.83036">
        <ele>41.23</ele>
        <time>2024-07-03T14:22:20Z</time>
      </trkpt>
      <trkpt lat="46.63539" lon="-1.83014">
        <ele>41.25</ele>
        <time>2024-07-03T14:22:23Z</time>
      </trkpt>
      <trkpt lat="46.63541" lon="-1.83007">
        <ele>41.27</ele>
        <time>2024-07-03T14:22:24Z</time>
      </trkpt>
      <trkpt lat="46.63542" lon="-1.83">
        <ele>41.3</ele>
        <time>2024-07-03T14:22:25Z</time>
      </trkpt>
      <trkpt lat="46.63544" lon="-1.82993">
        <ele>41.34</ele>
        <time>2024-07-03T14:22:26Z</time>
      </trkpt>
      <trkpt lat="46.63545" lon="-1.82986">
        <ele>41.38</ele>
        <time>2024-07-03T14:22:27Z</time>
      </trkpt>
      <trkpt lat="46.63546" lon="-1.82979">
        <ele>41.4</ele>
        <time>2024-07-03T14:22:28Z</time>
      </trkpt>
      <trkpt lat="46.63563" lon="-1.82876">
        <ele>42.05</ele>
        <time>2024-07-03T14:22:41Z</time>
      </trkpt>
      <trkpt lat="46.63573" lon="-1.82823">
        <ele>42.3</ele>
        <time>2024-07-03T14:22:48Z</time>
      </trkpt>
      <trkpt lat="46.63583" lon="-1.82758">
        <ele>42.65</ele>
        <time>2024-07-03T14:22:57Z</time>
      </trkpt>
      <trkpt lat="46.63583" lon="-1.82751">
        <ele>42.67</ele>
        <time>2024-07-03T14:22:58Z</time>
      </trkpt>
      <trkpt lat="46.63581" lon="-1.82743">
        <ele>42.69</ele>
        <time>2024-07-03T14:22:59Z</time>
      </trkpt>
      <trkpt lat="46.63579" lon="-1.82736">
        <ele>42.7</ele>
        <time>2024-07-03T14:23:00Z</time>
      </trkpt>
      <trkpt lat="46.63577" lon="-1.82728">
        <ele>42.71</ele>
        <time>2024-07-03T14:23:01Z</time>
      </trkpt>
      <trkpt lat="46.63576" lon="-1.82721">
        <ele>42.72</ele>
        <time>2024-07-03T14:23:02Z</time>
      </trkpt>
      <trkpt lat="46.6357" lon="-1.82692">
        <ele>42.75</ele>
        <time>2024-07-03T14:23:06Z</time>
      </trkpt>
      <trkpt lat="46.63571" lon="-1.82685">
        <ele>42.8</ele>
        <time>2024-07-03T14:23:07Z</time>
      </trkpt>
      <trkpt lat="46.63572" lon="-1.82678">
        <ele>42.85</ele>
        <time>2024-07-03T14:23:08Z</time>
      </trkpt>
      <trkpt lat="46.63574" lon="-1.82671">
        <ele>42.94</ele>
        <time>2024-07-03T14:23:09Z</time>
      </trkpt>
      <trkpt lat="46.63576" lon="-1.82663">
        <ele>43</ele>
        <time>2024-07-03T14:23:10Z</time>
      </trkpt>
      <trkpt lat="46.63579" lon="-1.82657">
        <ele>43.04</ele>
        <time>2024-07-03T14:23:11Z</time>
      </trkpt>
      <trkpt lat="46.63582" lon="-1.8265">
        <ele>43.08</ele>
        <time>2024-07-03T14:23:12Z</time>
      </trkpt>
      <trkpt lat="46.63586" lon="-1.82645">
        <ele>43.25</ele>
        <time>2024-07-03T14:23:13Z</time>
      </trkpt>
      <trkpt lat="46.6359" lon="-1.8264">
        <ele>43.34</ele>
        <time>2024-07-03T14:23:14Z</time>
      </trkpt>
      <trkpt lat="46.63595" lon="-1.82636">
        <ele>43.39</ele>
        <time>2024-07-03T14:23:15Z</time>
      </trkpt>
      <trkpt lat="46.636" lon="-1.82631">
        <ele>43.44</ele>
        <time>2024-07-03T14:23:16Z</time>
      </trkpt>
      <trkpt lat="46.63619" lon="-1.82608">
        <ele>43.87</ele>
        <time>2024-07-03T14:23:21Z</time>
      </trkpt>
      <trkpt lat="46.63622" lon="-1.82602">
        <ele>43.91</ele>
        <time>2024-07-03T14:23:22Z</time>
      </trkpt>
      <trkpt lat="46.63636" lon="-1.82584">
        <ele>44.21</ele>
        <time>2024-07-03T14:23:27Z</time>
      </trkpt>
      <trkpt lat="46.63639" lon="-1.82579">
        <ele>44.24</ele>
        <time>2024-07-03T14:23:28Z</time>
      </trkpt>
      <trkpt lat="46.63667" lon="-1.82512">
        <ele>45.37</ele>
        <time>2024-07-03T14:23:42Z</time>
      </trkpt>
      <trkpt lat="46.63699" lon="-1.82431">
        <ele>46.19</ele>
        <time>2024-07-03T14:23:58Z</time>
      </trkpt>
      <trkpt lat="46.63742" lon="-1.82328">
        <ele>46.6</ele>
        <time>2024-07-03T14:24:16Z</time>
      </trkpt>
      <trkpt lat="46.63778" lon="-1.82235">
        <ele>46.14</ele>
        <time>2024-07-03T14:24:29Z</time>
      </trkpt>
      <trkpt lat="46.63778" lon="-1.82227">
        <ele>46.37</ele>
        <time>2024-07-03T14:24:30Z</time>
      </trkpt>
      <trkpt lat="46.63778" lon="-1.82218">
        <ele>46.49</ele>
        <time>2024-07-03T14:24:31Z</time>
      </trkpt>
      <trkpt lat="46.63776" lon="-1.82184">
        <ele>46.35</ele>
        <time>2024-07-03T14:24:35Z</time>
      </trkpt>
      <trkpt lat="46.63774" lon="-1.82177">
        <ele>46.3</ele>
        <time>2024-07-03T14:24:36Z</time>
      </trkpt>
      <trkpt lat="46.63766" lon="-1.8214">
        <ele>45.52</ele>
        <time>2024-07-03T14:24:41Z</time>
      </trkpt>
      <trkpt lat="46.63767" lon="-1.82133">
        <ele>45.37</ele>
        <time>2024-07-03T14:24:42Z</time>
      </trkpt>
      <trkpt lat="46.63768" lon="-1.82128">
        <ele>45.3</ele>
        <time>2024-07-03T14:24:43Z</time>
      </trkpt>
      <trkpt lat="46.6377" lon="-1.82117">
        <ele>45.07</ele>
        <time>2024-07-03T14:24:52Z</time>
      </trkpt>
      <trkpt lat="46.63769" lon="-1.82116">
        <ele>45.07</ele>
        <time>2024-07-03T14:24:53Z</time>
      </trkpt>
      <trkpt lat="46.63767" lon="-1.82113">
        <ele>45.07</ele>
        <time>2024-07-03T14:24:54Z</time>
      </trkpt>
      <trkpt lat="46.63764" lon="-1.82111">
        <ele>45.08</ele>
        <time>2024-07-03T14:24:55Z</time>
      </trkpt>
      <trkpt lat="46.6376" lon="-1.82109">
        <ele>45.08</ele>
        <time>2024-07-03T14:24:56Z</time>
      </trkpt>
      <trkpt lat="46.63756" lon="-1.82107">
        <ele>45.08</ele>
        <time>2024-07-03T14:24:57Z</time>
      </trkpt>
      <trkpt lat="46.63747" lon="-1.82103">
        <ele>45.07</ele>
        <time>2024-07-03T14:24:59Z</time>
      </trkpt>
      <trkpt lat="46.63743" lon="-1.82102">
        <ele>45.03</ele>
        <time>2024-07-03T14:25:00Z</time>
      </trkpt>
      <trkpt lat="46.63712" lon="-1.82097">
        <ele>45.03</ele>
        <time>2024-07-03T14:25:06Z</time>
      </trkpt>
      <trkpt lat="46.63629" lon="-1.82099">
        <ele>44.47</ele>
        <time>2024-07-03T14:25:22Z</time>
      </trkpt>
      <trkpt lat="46.63613" lon="-1.82099">
        <ele>44.47</ele>
        <time>2024-07-03T14:25:25Z</time>
      </trkpt>
      <trkpt lat="46.63602" lon="-1.821">
        <ele>44.47</ele>
        <time>2024-07-03T14:25:27Z</time>
      </trkpt>
      <trkpt lat="46.63531" lon="-1.82099">
        <ele>44.36</ele>
        <time>2024-07-03T14:25:41Z</time>
      </trkpt>
      <trkpt lat="46.63511" lon="-1.82099">
        <ele>44.3</ele>
        <time>2024-07-03T14:25:45Z</time>
      </trkpt>
      <trkpt lat="46.63507" lon="-1.82099">
        <ele>44.28</ele>
        <time>2024-07-03T14:25:46Z</time>
      </trkpt>
      <trkpt lat="46.63503" lon="-1.82099">
        <ele>44.26</ele>
        <time>2024-07-03T14:25:47Z</time>
      </trkpt>
      <trkpt lat="46.6344" lon="-1.8209">
        <ele>43.86</ele>
        <time>2024-07-03T14:26:02Z</time>
      </trkpt>
      <trkpt lat="46.63373" lon="-1.82086">
        <ele>44.06</ele>
        <time>2024-07-03T14:26:16Z</time>
      </trkpt>
      <trkpt lat="46.63367" lon="-1.82086">
        <ele>44.18</ele>
        <time>2024-07-03T14:26:17Z</time>
      </trkpt>
      <trkpt lat="46.63337" lon="-1.82087">
        <ele>44.53</ele>
        <time>2024-07-03T14:26:23Z</time>
      </trkpt>
      <trkpt lat="46.63272" lon="-1.82106">
        <ele>44.81</ele>
        <time>2024-07-03T14:26:38Z</time>
      </trkpt>
      <trkpt lat="46.63212" lon="-1.82132">
        <ele>45.21</ele>
        <time>2024-07-03T14:26:55Z</time>
      </trkpt>
      <trkpt lat="46.63163" lon="-1.82157">
        <ele>46.39</ele>
        <time>2024-07-03T14:27:08Z</time>
      </trkpt>
      <trkpt lat="46.6311" lon="-1.82174">
        <ele>47.11</ele>
        <time>2024-07-03T14:27:22Z</time>
      </trkpt>
      <trkpt lat="46.63048" lon="-1.82195">
        <ele>46.86</ele>
        <time>2024-07-03T14:27:39Z</time>
      </trkpt>
      <trkpt lat="46.63044" lon="-1.82196">
        <ele>46.85</ele>
        <time>2024-07-03T14:27:40Z</time>
      </trkpt>
      <trkpt lat="46.63002" lon="-1.82191">
        <ele>46.44</ele>
        <time>2024-07-03T14:27:51Z</time>
      </trkpt>
      <trkpt lat="46.62948" lon="-1.8214">
        <ele>45.25</ele>
        <time>2024-07-03T14:28:04Z</time>
      </trkpt>
      <trkpt lat="46.6293" lon="-1.82126">
        <ele>43.49</ele>
        <time>2024-07-03T14:28:08Z</time>
      </trkpt>
      <trkpt lat="46.62923" lon="-1.82124">
        <ele>43.26</ele>
        <time>2024-07-03T14:28:09Z</time>
      </trkpt>
      <trkpt lat="46.62916" lon="-1.82122">
        <ele>43.08</ele>
        <time>2024-07-03T14:28:10Z</time>
      </trkpt>
      <trkpt lat="46.62909" lon="-1.82123">
        <ele>42.97</ele>
        <time>2024-07-03T14:28:11Z</time>
      </trkpt>
      <trkpt lat="46.62901" lon="-1.82125">
        <ele>42.92</ele>
        <time>2024-07-03T14:28:12Z</time>
      </trkpt>
      <trkpt lat="46.62893" lon="-1.82129">
        <ele>42.76</ele>
        <time>2024-07-03T14:28:13Z</time>
      </trkpt>
      <trkpt lat="46.62886" lon="-1.82133">
        <ele>42.58</ele>
        <time>2024-07-03T14:28:14Z</time>
      </trkpt>
      <trkpt lat="46.62879" lon="-1.82138">
        <ele>42.42</ele>
        <time>2024-07-03T14:28:15Z</time>
      </trkpt>
      <trkpt lat="46.62872" lon="-1.82144">
        <ele>41.99</ele>
        <time>2024-07-03T14:28:16Z</time>
      </trkpt>
      <trkpt lat="46.62866" lon="-1.8215">
        <ele>40.88</ele>
        <time>2024-07-03T14:28:17Z</time>
      </trkpt>
      <trkpt lat="46.62832" lon="-1.82191">
        <ele>37.68</ele>
        <time>2024-07-03T14:28:23Z</time>
      </trkpt>
      <trkpt lat="46.62796" lon="-1.82239">
        <ele>36.14</ele>
        <time>2024-07-03T14:28:32Z</time>
      </trkpt>
      <trkpt lat="46.62792" lon="-1.82242">
        <ele>35.98</ele>
        <time>2024-07-03T14:28:33Z</time>
      </trkpt>
      <trkpt lat="46.62782" lon="-1.82247">
        <ele>35.76</ele>
        <time>2024-07-03T14:28:35Z</time>
      </trkpt>
      <trkpt lat="46.62777" lon="-1.82248">
        <ele>35.68</ele>
        <time>2024-07-03T14:28:36Z</time>
      </trkpt>
      <trkpt lat="46.62688" lon="-1.82253">
        <ele>33.17</ele>
        <time>2024-07-03T14:28:48Z</time>
      </trkpt>
      <trkpt lat="46.62652" lon="-1.82256">
        <ele>28.93</ele>
        <time>2024-07-03T14:28:53Z</time>
      </trkpt>
      <trkpt lat="46.62612" lon="-1.82259">
        <ele>25.33</ele>
        <time>2024-07-03T14:28:58Z</time>
      </trkpt>
      <trkpt lat="46.62561" lon="-1.82269">
        <ele>22.24</ele>
        <time>2024-07-03T14:29:04Z</time>
      </trkpt>
      <trkpt lat="46.62525" lon="-1.82277">
        <ele>19.11</ele>
        <time>2024-07-03T14:29:09Z</time>
      </trkpt>
      <trkpt lat="46.62519" lon="-1.82278">
        <ele>18.82</ele>
        <time>2024-07-03T14:29:10Z</time>
      </trkpt>
      <trkpt lat="46.62466" lon="-1.82295">
        <ele>19.63</ele>
        <time>2024-07-03T14:29:23Z</time>
      </trkpt>
      <trkpt lat="46.62433" lon="-1.82307">
        <ele>22.83</ele>
        <time>2024-07-03T14:29:36Z</time>
      </trkpt>
      <trkpt lat="46.62402" lon="-1.82317">
        <ele>24.9</ele>
        <time>2024-07-03T14:29:49Z</time>
      </trkpt>
      <trkpt lat="46.62397" lon="-1.82316">
        <ele>25.87</ele>
        <time>2024-07-03T14:29:55Z</time>
      </trkpt>
      <trkpt lat="46.6239" lon="-1.82317">
        <ele>26.15</ele>
        <time>2024-07-03T14:30:00Z</time>
      </trkpt>
      <trkpt lat="46.62388" lon="-1.82317">
        <ele>26.24</ele>
        <time>2024-07-03T14:30:01Z</time>
      </trkpt>
      <trkpt lat="46.62387" lon="-1.82318">
        <ele>26.29</ele>
        <time>2024-07-03T14:30:02Z</time>
      </trkpt>
      <trkpt lat="46.62362" lon="-1.82328">
        <ele>27.21</ele>
        <time>2024-07-03T14:30:21Z</time>
      </trkpt>
      <trkpt lat="46.62361" lon="-1.82329">
        <ele>27.36</ele>
        <time>2024-07-03T14:30:22Z</time>
      </trkpt>
      <trkpt lat="46.62358" lon="-1.8233">
        <ele>27.55</ele>
        <time>2024-07-03T14:30:24Z</time>
      </trkpt>
      <trkpt lat="46.62357" lon="-1.82331">
        <ele>27.72</ele>
        <time>2024-07-03T14:30:25Z</time>
      </trkpt>
      <trkpt lat="46.62355" lon="-1.82331">
        <ele>27.86</ele>
        <time>2024-07-03T14:30:26Z</time>
      </trkpt>
      <trkpt lat="46.62354" lon="-1.82332">
        <ele>27.93</ele>
        <time>2024-07-03T14:30:27Z</time>
      </trkpt>
      <trkpt lat="46.62352" lon="-1.82332">
        <ele>27.97</ele>
        <time>2024-07-03T14:30:28Z</time>
      </trkpt>
      <trkpt lat="46.62343" lon="-1.82337">
        <ele>28.56</ele>
        <time>2024-07-03T14:30:38Z</time>
      </trkpt>
      <trkpt lat="46.62342" lon="-1.82338">
        <ele>28.62</ele>
        <time>2024-07-03T14:30:39Z</time>
      </trkpt>
      <trkpt lat="46.6234" lon="-1.82339">
        <ele>28.7</ele>
        <time>2024-07-03T14:30:41Z</time>
      </trkpt>
      <trkpt lat="46.62337" lon="-1.82341">
        <ele>28.76</ele>
        <time>2024-07-03T14:30:43Z</time>
      </trkpt>
      <trkpt lat="46.62329" lon="-1.82332">
        <ele>29.55</ele>
        <time>2024-07-03T14:31:01Z</time>
      </trkpt>
      <trkpt lat="46.62327" lon="-1.82337">
        <ele>29.62</ele>
        <time>2024-07-03T14:31:10Z</time>
      </trkpt>
      <trkpt lat="46.62329" lon="-1.82342">
        <ele>29.26</ele>
        <time>2024-07-03T14:31:38Z</time>
      </trkpt>
      <trkpt lat="46.62329" lon="-1.82346">
        <ele>29.05</ele>
        <time>2024-07-03T14:31:40Z</time>
      </trkpt>
      <trkpt lat="46.62328" lon="-1.82349">
        <ele>28.99</ele>
        <time>2024-07-03T14:31:42Z</time>
      </trkpt>
      <trkpt lat="46.62327" lon="-1.8235">
        <ele>28.99</ele>
        <time>2024-07-03T14:31:43Z</time>
      </trkpt>
      <trkpt lat="46.62325" lon="-1.82353">
        <ele>28.99</ele>
        <time>2024-07-03T14:31:44Z</time>
      </trkpt>
      <trkpt lat="46.62287" lon="-1.82393">
        <ele>29.4</ele>
        <time>2024-07-03T14:31:57Z</time>
      </trkpt>
      <trkpt lat="46.62238" lon="-1.82454">
        <ele>29.76</ele>
        <time>2024-07-03T14:32:13Z</time>
      </trkpt>
      <trkpt lat="46.62203" lon="-1.82496">
        <ele>30.47</ele>
        <time>2024-07-03T14:32:25Z</time>
      </trkpt>
      <trkpt lat="46.62152" lon="-1.82555">
        <ele>30.93</ele>
        <time>2024-07-03T14:32:41Z</time>
      </trkpt>
      <trkpt lat="46.62116" lon="-1.82586">
        <ele>30.81</ele>
        <time>2024-07-03T14:32:49Z</time>
      </trkpt>
      <trkpt lat="46.62062" lon="-1.82601">
        <ele>27.8</ele>
        <time>2024-07-03T14:32:58Z</time>
      </trkpt>
      <trkpt lat="46.62021" lon="-1.82612">
        <ele>27.22</ele>
        <time>2024-07-03T14:33:09Z</time>
      </trkpt>
      <trkpt lat="46.61971" lon="-1.82623">
        <ele>29.4</ele>
        <time>2024-07-03T14:33:23Z</time>
      </trkpt>
      <trkpt lat="46.61928" lon="-1.82631">
        <ele>29.27</ele>
        <time>2024-07-03T14:33:35Z</time>
      </trkpt>
      <trkpt lat="46.61895" lon="-1.82638">
        <ele>29.88</ele>
        <time>2024-07-03T14:33:47Z</time>
      </trkpt>
      <trkpt lat="46.61894" lon="-1.82638">
        <ele>29.93</ele>
        <time>2024-07-03T14:33:48Z</time>
      </trkpt>
      <trkpt lat="46.6189" lon="-1.82639">
        <ele>30.18</ele>
        <time>2024-07-03T14:33:53Z</time>
      </trkpt>
      <trkpt lat="46.61884" lon="-1.82641">
        <ele>30.39</ele>
        <time>2024-07-03T14:33:57Z</time>
      </trkpt>
      <trkpt lat="46.61882" lon="-1.82641">
        <ele>30.46</ele>
        <time>2024-07-03T14:33:58Z</time>
      </trkpt>
      <trkpt lat="46.61881" lon="-1.82642">
        <ele>30.51</ele>
        <time>2024-07-03T14:33:59Z</time>
      </trkpt>
      <trkpt lat="46.6188" lon="-1.82642">
        <ele>30.57</ele>
        <time>2024-07-03T14:34:00Z</time>
      </trkpt>
      <trkpt lat="46.61878" lon="-1.82643">
        <ele>30.7</ele>
        <time>2024-07-03T14:34:01Z</time>
      </trkpt>
      <trkpt lat="46.6185" lon="-1.82646">
        <ele>31.61</ele>
        <time>2024-07-03T14:34:19Z</time>
      </trkpt>
      <trkpt lat="46.61827" lon="-1.82652">
        <ele>32.71</ele>
        <time>2024-07-03T14:34:36Z</time>
      </trkpt>
      <trkpt lat="46.61803" lon="-1.82659">
        <ele>33.35</ele>
        <time>2024-07-03T14:34:53Z</time>
      </trkpt>
      <trkpt lat="46.61773" lon="-1.82663">
        <ele>33.99</ele>
        <time>2024-07-03T14:35:12Z</time>
      </trkpt>
      <trkpt lat="46.61747" lon="-1.82668">
        <ele>34.85</ele>
        <time>2024-07-03T14:35:30Z</time>
      </trkpt>
      <trkpt lat="46.61716" lon="-1.8267">
        <ele>35.68</ele>
        <time>2024-07-03T14:35:50Z</time>
      </trkpt>
      <trkpt lat="46.61691" lon="-1.82665">
        <ele>36.37</ele>
        <time>2024-07-03T14:36:10Z</time>
      </trkpt>
      <trkpt lat="46.61688" lon="-1.82665">
        <ele>36.38</ele>
        <time>2024-07-03T14:36:11Z</time>
      </trkpt>
      <trkpt lat="46.61686" lon="-1.82665">
        <ele>36.38</ele>
        <time>2024-07-03T14:36:12Z</time>
      </trkpt>
      <trkpt lat="46.61683" lon="-1.82665">
        <ele>36.38</ele>
        <time>2024-07-03T14:36:13Z</time>
      </trkpt>
      <trkpt lat="46.6168" lon="-1.82664">
        <ele>36.4</ele>
        <time>2024-07-03T14:36:14Z</time>
      </trkpt>
      <trkpt lat="46.61623" lon="-1.82652">
        <ele>37.18</ele>
        <time>2024-07-03T14:36:31Z</time>
      </trkpt>
      <trkpt lat="46.61577" lon="-1.82644">
        <ele>37.85</ele>
        <time>2024-07-03T14:36:46Z</time>
      </trkpt>
      <trkpt lat="46.61531" lon="-1.82635">
        <ele>38.45</ele>
        <time>2024-07-03T14:37:01Z</time>
      </trkpt>
      <trkpt lat="46.6149" lon="-1.82627">
        <ele>39.16</ele>
        <time>2024-07-03T14:37:14Z</time>
      </trkpt>
      <trkpt lat="46.61457" lon="-1.82623">
        <ele>40.62</ele>
        <time>2024-07-03T14:37:26Z</time>
      </trkpt>
      <trkpt lat="46.61414" lon="-1.82629">
        <ele>42.38</ele>
        <time>2024-07-03T14:37:43Z</time>
      </trkpt>
      <trkpt lat="46.61375" lon="-1.82644">
        <ele>43.39</ele>
        <time>2024-07-03T14:37:58Z</time>
      </trkpt>
      <trkpt lat="46.61348" lon="-1.82672">
        <ele>43.72</ele>
        <time>2024-07-03T14:38:11Z</time>
      </trkpt>
      <trkpt lat="46.61336" lon="-1.8272">
        <ele>43.93</ele>
        <time>2024-07-03T14:38:24Z</time>
      </trkpt>
      <trkpt lat="46.6133" lon="-1.82779">
        <ele>44.66</ele>
        <time>2024-07-03T14:38:39Z</time>
      </trkpt>
      <trkpt lat="46.61325" lon="-1.82834">
        <ele>45</ele>
        <time>2024-07-03T14:38:51Z</time>
      </trkpt>
      <trkpt lat="46.61304" lon="-1.82901">
        <ele>46.03</ele>
        <time>2024-07-03T14:39:06Z</time>
      </trkpt>
      <trkpt lat="46.61272" lon="-1.82952">
        <ele>46.36</ele>
        <time>2024-07-03T14:39:21Z</time>
      </trkpt>
      <trkpt lat="46.61235" lon="-1.83004">
        <ele>47.49</ele>
        <time>2024-07-03T14:39:37Z</time>
      </trkpt>
      <trkpt lat="46.61209" lon="-1.83035">
        <ele>47.78</ele>
        <time>2024-07-03T14:39:46Z</time>
      </trkpt>
      <trkpt lat="46.61156" lon="-1.83092">
        <ele>46.32</ele>
        <time>2024-07-03T14:39:58Z</time>
      </trkpt>
      <trkpt lat="46.61124" lon="-1.83136">
        <ele>45.53</ele>
        <time>2024-07-03T14:40:05Z</time>
      </trkpt>
      <trkpt lat="46.6112" lon="-1.83143">
        <ele>45.46</ele>
        <time>2024-07-03T14:40:06Z</time>
      </trkpt>
      <trkpt lat="46.61116" lon="-1.83149">
        <ele>45.37</ele>
        <time>2024-07-03T14:40:07Z</time>
      </trkpt>
      <trkpt lat="46.61086" lon="-1.83202">
        <ele>42.37</ele>
        <time>2024-07-03T14:40:16Z</time>
      </trkpt>
      <trkpt lat="46.6104" lon="-1.83277">
        <ele>41.2</ele>
        <time>2024-07-03T14:40:30Z</time>
      </trkpt>
      <trkpt lat="46.61038" lon="-1.83283">
        <ele>41.15</ele>
        <time>2024-07-03T14:40:31Z</time>
      </trkpt>
      <trkpt lat="46.61036" lon="-1.83289">
        <ele>41.12</ele>
        <time>2024-07-03T14:40:32Z</time>
      </trkpt>
      <trkpt lat="46.61014" lon="-1.83372">
        <ele>40.92</ele>
        <time>2024-07-03T14:40:44Z</time>
      </trkpt>
      <trkpt lat="46.61005" lon="-1.83396">
        <ele>40.33</ele>
        <time>2024-07-03T14:40:48Z</time>
      </trkpt>
      <trkpt lat="46.60998" lon="-1.83414">
        <ele>39.77</ele>
        <time>2024-07-03T14:40:51Z</time>
      </trkpt>
      <trkpt lat="46.60978" lon="-1.83456">
        <ele>39.12</ele>
        <time>2024-07-03T14:40:58Z</time>
      </trkpt>
      <trkpt lat="46.60975" lon="-1.83461">
        <ele>39.06</ele>
        <time>2024-07-03T14:40:59Z</time>
      </trkpt>
      <trkpt lat="46.6095" lon="-1.83486">
        <ele>38.6</ele>
        <time>2024-07-03T14:41:05Z</time>
      </trkpt>
      <trkpt lat="46.60945" lon="-1.83489">
        <ele>38.39</ele>
        <time>2024-07-03T14:41:06Z</time>
      </trkpt>
      <trkpt lat="46.60935" lon="-1.83496">
        <ele>38.06</ele>
        <time>2024-07-03T14:41:08Z</time>
      </trkpt>
      <trkpt lat="46.6093" lon="-1.83501">
        <ele>37.91</ele>
        <time>2024-07-03T14:41:09Z</time>
      </trkpt>
      <trkpt lat="46.60883" lon="-1.83561">
        <ele>37.39</ele>
        <time>2024-07-03T14:41:20Z</time>
      </trkpt>
      <trkpt lat="46.60869" lon="-1.83587">
        <ele>37.06</ele>
        <time>2024-07-03T14:41:25Z</time>
      </trkpt>
      <trkpt lat="46.60839" lon="-1.83626">
        <ele>35.97</ele>
        <time>2024-07-03T14:41:37Z</time>
      </trkpt>
      <trkpt lat="46.60835" lon="-1.83629">
        <ele>35.96</ele>
        <time>2024-07-03T14:41:38Z</time>
      </trkpt>
      <trkpt lat="46.60831" lon="-1.83631">
        <ele>35.96</ele>
        <time>2024-07-03T14:41:39Z</time>
      </trkpt>
      <trkpt lat="46.60822" lon="-1.83635">
        <ele>35.96</ele>
        <time>2024-07-03T14:41:41Z</time>
      </trkpt>
      <trkpt lat="46.60818" lon="-1.83638">
        <ele>35.96</ele>
        <time>2024-07-03T14:41:42Z</time>
      </trkpt>
      <trkpt lat="46.60814" lon="-1.83641">
        <ele>35.84</ele>
        <time>2024-07-03T14:41:43Z</time>
      </trkpt>
      <trkpt lat="46.6081" lon="-1.83645">
        <ele>35.77</ele>
        <time>2024-07-03T14:41:44Z</time>
      </trkpt>
      <trkpt lat="46.60806" lon="-1.83648">
        <ele>35.68</ele>
        <time>2024-07-03T14:41:45Z</time>
      </trkpt>
      <trkpt lat="46.60802" lon="-1.8365">
        <ele>35.47</ele>
        <time>2024-07-03T14:41:46Z</time>
      </trkpt>
      <trkpt lat="46.60798" lon="-1.83652">
        <ele>35.36</ele>
        <time>2024-07-03T14:41:47Z</time>
      </trkpt>
      <trkpt lat="46.60778" lon="-1.83666">
        <ele>34.4</ele>
        <time>2024-07-03T14:41:52Z</time>
      </trkpt>
      <trkpt lat="46.6077" lon="-1.83673">
        <ele>34.2</ele>
        <time>2024-07-03T14:41:54Z</time>
      </trkpt>
      <trkpt lat="46.60765" lon="-1.83675">
        <ele>34.12</ele>
        <time>2024-07-03T14:41:55Z</time>
      </trkpt>
      <trkpt lat="46.60761" lon="-1.83677">
        <ele>34.04</ele>
        <time>2024-07-03T14:41:56Z</time>
      </trkpt>
      <trkpt lat="46.60756" lon="-1.8368">
        <ele>34.01</ele>
        <time>2024-07-03T14:41:57Z</time>
      </trkpt>
      <trkpt lat="46.60751" lon="-1.83683">
        <ele>33.99</ele>
        <time>2024-07-03T14:41:58Z</time>
      </trkpt>
      <trkpt lat="46.60742" lon="-1.83691">
        <ele>33.93</ele>
        <time>2024-07-03T14:42:00Z</time>
      </trkpt>
      <trkpt lat="46.60738" lon="-1.83695">
        <ele>33.85</ele>
        <time>2024-07-03T14:42:01Z</time>
      </trkpt>
      <trkpt lat="46.60733" lon="-1.83698">
        <ele>33.8</ele>
        <time>2024-07-03T14:42:02Z</time>
      </trkpt>
      <trkpt lat="46.60694" lon="-1.83726">
        <ele>32.66</ele>
        <time>2024-07-03T14:42:10Z</time>
      </trkpt>
      <trkpt lat="46.60658" lon="-1.83753">
        <ele>30.49</ele>
        <time>2024-07-03T14:42:20Z</time>
      </trkpt>
      <trkpt lat="46.60655" lon="-1.83752">
        <ele>29.11</ele>
        <time>2024-07-03T14:42:55Z</time>
      </trkpt>
      <trkpt lat="46.60656" lon="-1.83749">
        <ele>29.13</ele>
        <time>2024-07-03T14:42:56Z</time>
      </trkpt>
      <trkpt lat="46.60657" lon="-1.83746">
        <ele>29.12</ele>
        <time>2024-07-03T14:42:57Z</time>
      </trkpt>
      <trkpt lat="46.60658" lon="-1.83745">
        <ele>29.11</ele>
        <time>2024-07-03T14:42:58Z</time>
      </trkpt>
      <trkpt lat="46.6066" lon="-1.83746">
        <ele>29.1</ele>
        <time>2024-07-03T14:42:59Z</time>
      </trkpt>
      <trkpt lat="46.6066" lon="-1.83748">
        <ele>29.07</ele>
        <time>2024-07-03T14:43:00Z</time>
      </trkpt>
      <trkpt lat="46.60659" lon="-1.83751">
        <ele>29.03</ele>
        <time>2024-07-03T14:43:01Z</time>
      </trkpt>
      <trkpt lat="46.60659" lon="-1.83754">
        <ele>29</ele>
        <time>2024-07-03T14:43:02Z</time>
      </trkpt>
      <trkpt lat="46.60659" lon="-1.83758">
        <ele>28.98</ele>
        <time>2024-07-03T14:43:03Z</time>
      </trkpt>
      <trkpt lat="46.6066" lon="-1.83762">
        <ele>28.97</ele>
        <time>2024-07-03T14:43:04Z</time>
      </trkpt>
      <trkpt lat="46.60661" lon="-1.83767">
        <ele>28.96</ele>
        <time>2024-07-03T14:43:05Z</time>
      </trkpt>
      <trkpt lat="46.60681" lon="-1.83846">
        <ele>29.52</ele>
        <time>2024-07-03T14:43:21Z</time>
      </trkpt>
      <trkpt lat="46.60697" lon="-1.839">
        <ele>29.2</ele>
        <time>2024-07-03T14:43:33Z</time>
      </trkpt>
      <trkpt lat="46.60695" lon="-1.839">
        <ele>29.55</ele>
        <time>2024-07-03T14:43:45Z</time>
      </trkpt>
      <trkpt lat="46.60695" lon="-1.83899">
        <ele>29.36</ele>
        <time>2024-07-03T14:44:30Z</time>
      </trkpt>
      <trkpt lat="46.60693" lon="-1.83899">
        <ele>29.16</ele>
        <time>2024-07-03T14:46:13Z</time>
      </trkpt>
      <trkpt lat="46.60692" lon="-1.83899">
        <ele>29.26</ele>
        <time>2024-07-03T14:46:41Z</time>
      </trkpt>
      <trkpt lat="46.60693" lon="-1.839">
        <ele>29.36</ele>
        <time>2024-07-03T14:47:05Z</time>
      </trkpt>
      <trkpt lat="46.60693" lon="-1.83901">
        <ele>29.16</ele>
        <time>2024-07-03T14:47:33Z</time>
      </trkpt>
      <trkpt lat="46.60694" lon="-1.839">
        <ele>29.1</ele>
        <time>2024-07-03T14:48:00Z</time>
      </trkpt>
      <trkpt lat="46.60689" lon="-1.83889">
        <ele>29.04</ele>
        <time>2024-07-03T14:48:22Z</time>
      </trkpt>
      <trkpt lat="46.60685" lon="-1.83894">
        <ele>29.1</ele>
        <time>2024-07-03T14:48:30Z</time>
      </trkpt>
      <trkpt lat="46.60685" lon="-1.83904">
        <ele>29.55</ele>
        <time>2024-07-03T14:48:42Z</time>
      </trkpt>
      <trkpt lat="46.60685" lon="-1.83907">
        <ele>29.54</ele>
        <time>2024-07-03T14:48:43Z</time>
      </trkpt>
      <trkpt lat="46.60695" lon="-1.83951">
        <ele>29.42</ele>
        <time>2024-07-03T14:48:55Z</time>
      </trkpt>
      <trkpt lat="46.60705" lon="-1.84004">
        <ele>29.44</ele>
        <time>2024-07-03T14:49:08Z</time>
      </trkpt>
      <trkpt lat="46.60721" lon="-1.84064">
        <ele>29.11</ele>
        <time>2024-07-03T14:49:22Z</time>
      </trkpt>
      <trkpt lat="46.60734" lon="-1.84099">
        <ele>28.75</ele>
        <time>2024-07-03T14:49:28Z</time>
      </trkpt>
      <trkpt lat="46.60735" lon="-1.84105">
        <ele>28.57</ele>
        <time>2024-07-03T14:49:29Z</time>
      </trkpt>
      <trkpt lat="46.60759" lon="-1.842">
        <ele>26.36</ele>
        <time>2024-07-03T14:49:42Z</time>
      </trkpt>
      <trkpt lat="46.60775" lon="-1.84264">
        <ele>23.35</ele>
        <time>2024-07-03T14:49:53Z</time>
      </trkpt>
      <trkpt lat="46.6079" lon="-1.8431">
        <ele>21.44</ele>
        <time>2024-07-03T14:50:04Z</time>
      </trkpt>
      <trkpt lat="46.60809" lon="-1.8438">
        <ele>19.88</ele>
        <time>2024-07-03T14:50:19Z</time>
      </trkpt>
      <trkpt lat="46.6083" lon="-1.84442">
        <ele>19.93</ele>
        <time>2024-07-03T14:50:34Z</time>
      </trkpt>
      <trkpt lat="46.60849" lon="-1.84487">
        <ele>22.23</ele>
        <time>2024-07-03T14:50:49Z</time>
      </trkpt>
      <trkpt lat="46.60849" lon="-1.84488">
        <ele>23.56</ele>
        <time>2024-07-03T14:51:05Z</time>
      </trkpt>
      <trkpt lat="46.60844" lon="-1.845">
        <ele>23.62</ele>
        <time>2024-07-03T14:51:15Z</time>
      </trkpt>
      <trkpt lat="46.60829" lon="-1.84534">
        <ele>23.47</ele>
        <time>2024-07-03T14:51:35Z</time>
      </trkpt>
      <trkpt lat="46.60835" lon="-1.84576">
        <ele>24.64</ele>
        <time>2024-07-03T14:51:54Z</time>
      </trkpt>
      <trkpt lat="46.60844" lon="-1.84612">
        <ele>25.57</ele>
        <time>2024-07-03T14:52:12Z</time>
      </trkpt>
      <trkpt lat="46.60847" lon="-1.84643">
        <ele>26.9</ele>
        <time>2024-07-03T14:52:28Z</time>
      </trkpt>
      <trkpt lat="46.60857" lon="-1.84675">
        <ele>27.98</ele>
        <time>2024-07-03T14:52:44Z</time>
      </trkpt>
      <trkpt lat="46.6086" lon="-1.8469">
        <ele>28.44</ele>
        <time>2024-07-03T14:52:55Z</time>
      </trkpt>
      <trkpt lat="46.6086" lon="-1.84692">
        <ele>28.45</ele>
        <time>2024-07-03T14:52:56Z</time>
      </trkpt>
      <trkpt lat="46.60864" lon="-1.84712">
        <ele>28.33</ele>
        <time>2024-07-03T14:53:08Z</time>
      </trkpt>
      <trkpt lat="46.60869" lon="-1.84762">
        <ele>27.99</ele>
        <time>2024-07-03T14:53:19Z</time>
      </trkpt>
      <trkpt lat="46.60871" lon="-1.84818">
        <ele>28.61</ele>
        <time>2024-07-03T14:53:29Z</time>
      </trkpt>
      <trkpt lat="46.60873" lon="-1.84831">
        <ele>28.63</ele>
        <time>2024-07-03T14:53:31Z</time>
      </trkpt>
      <trkpt lat="46.60875" lon="-1.84836">
        <ele>28.63</ele>
        <time>2024-07-03T14:53:32Z</time>
      </trkpt>
      <trkpt lat="46.60877" lon="-1.84841">
        <ele>28.63</ele>
        <time>2024-07-03T14:53:33Z</time>
      </trkpt>
      <trkpt lat="46.60881" lon="-1.84845">
        <ele>28.63</ele>
        <time>2024-07-03T14:53:34Z</time>
      </trkpt>
      <trkpt lat="46.60884" lon="-1.84847">
        <ele>28.63</ele>
        <time>2024-07-03T14:53:35Z</time>
      </trkpt>
      <trkpt lat="46.60887" lon="-1.84851">
        <ele>28.63</ele>
        <time>2024-07-03T14:53:36Z</time>
      </trkpt>
      <trkpt lat="46.60891" lon="-1.84855">
        <ele>28.41</ele>
        <time>2024-07-03T14:53:37Z</time>
      </trkpt>
      <trkpt lat="46.60895" lon="-1.84859">
        <ele>28.41</ele>
        <time>2024-07-03T14:53:38Z</time>
      </trkpt>
      <trkpt lat="46.60898" lon="-1.84865">
        <ele>28.29</ele>
        <time>2024-07-03T14:53:39Z</time>
      </trkpt>
      <trkpt lat="46.609" lon="-1.8487">
        <ele>28.24</ele>
        <time>2024-07-03T14:53:40Z</time>
      </trkpt>
      <trkpt lat="46.60902" lon="-1.84877">
        <ele>28.14</ele>
        <time>2024-07-03T14:53:41Z</time>
      </trkpt>
      <trkpt lat="46.60906" lon="-1.8489">
        <ele>27.96</ele>
        <time>2024-07-03T14:53:43Z</time>
      </trkpt>
      <trkpt lat="46.60909" lon="-1.84909">
        <ele>27.88</ele>
        <time>2024-07-03T14:53:46Z</time>
      </trkpt>
      <trkpt lat="46.60909" lon="-1.84916">
        <ele>27.88</ele>
        <time>2024-07-03T14:53:47Z</time>
      </trkpt>
      <trkpt lat="46.60909" lon="-1.84922">
        <ele>27.86</ele>
        <time>2024-07-03T14:53:48Z</time>
      </trkpt>
      <trkpt lat="46.60909" lon="-1.84928">
        <ele>27.84</ele>
        <time>2024-07-03T14:53:49Z</time>
      </trkpt>
      <trkpt lat="46.60909" lon="-1.84934">
        <ele>27.82</ele>
        <time>2024-07-03T14:53:50Z</time>
      </trkpt>
      <trkpt lat="46.60913" lon="-1.84993">
        <ele>25.4</ele>
        <time>2024-07-03T14:54:00Z</time>
      </trkpt>
      <trkpt lat="46.60915" lon="-1.85029">
        <ele>24.67</ele>
        <time>2024-07-03T14:54:06Z</time>
      </trkpt>
      <trkpt lat="46.60916" lon="-1.85035">
        <ele>24.59</ele>
        <time>2024-07-03T14:54:07Z</time>
      </trkpt>
      <trkpt lat="46.60918" lon="-1.85041">
        <ele>24.53</ele>
        <time>2024-07-03T14:54:08Z</time>
      </trkpt>
      <trkpt lat="46.6092" lon="-1.85046">
        <ele>24.4</ele>
        <time>2024-07-03T14:54:09Z</time>
      </trkpt>
      <trkpt lat="46.60921" lon="-1.85052">
        <ele>24.32</ele>
        <time>2024-07-03T14:54:10Z</time>
      </trkpt>
      <trkpt lat="46.60922" lon="-1.85058">
        <ele>24.25</ele>
        <time>2024-07-03T14:54:11Z</time>
      </trkpt>
      <trkpt lat="46.60924" lon="-1.85064">
        <ele>24.21</ele>
        <time>2024-07-03T14:54:12Z</time>
      </trkpt>
      <trkpt lat="46.6093" lon="-1.85085">
        <ele>24.1</ele>
        <time>2024-07-03T14:54:16Z</time>
      </trkpt>
      <trkpt lat="46.60933" lon="-1.8509">
        <ele>24.1</ele>
        <time>2024-07-03T14:54:17Z</time>
      </trkpt>
      <trkpt lat="46.60936" lon="-1.85096">
        <ele>24.1</ele>
        <time>2024-07-03T14:54:18Z</time>
      </trkpt>
      <trkpt lat="46.60946" lon="-1.85127">
        <ele>24.11</ele>
        <time>2024-07-03T14:54:23Z</time>
      </trkpt>
      <trkpt lat="46.60974" lon="-1.85236">
        <ele>24.22</ele>
        <time>2024-07-03T14:54:40Z</time>
      </trkpt>
      <trkpt lat="46.60987" lon="-1.85284">
        <ele>23.85</ele>
        <time>2024-07-03T14:54:48Z</time>
      </trkpt>
      <trkpt lat="46.61004" lon="-1.85347">
        <ele>23.2</ele>
        <time>2024-07-03T14:54:58Z</time>
      </trkpt>
      <trkpt lat="46.61005" lon="-1.85353">
        <ele>23.18</ele>
        <time>2024-07-03T14:54:59Z</time>
      </trkpt>
      <trkpt lat="46.61006" lon="-1.85359">
        <ele>23.17</ele>
        <time>2024-07-03T14:55:00Z</time>
      </trkpt>
      <trkpt lat="46.61006" lon="-1.85364">
        <ele>23.17</ele>
        <time>2024-07-03T14:55:01Z</time>
      </trkpt>
      <trkpt lat="46.61007" lon="-1.85369">
        <ele>23.17</ele>
        <time>2024-07-03T14:55:02Z</time>
      </trkpt>
      <trkpt lat="46.61009" lon="-1.85373">
        <ele>23.19</ele>
        <time>2024-07-03T14:55:03Z</time>
      </trkpt>
      <trkpt lat="46.6101" lon="-1.85377">
        <ele>23.22</ele>
        <time>2024-07-03T14:55:04Z</time>
      </trkpt>
      <trkpt lat="46.61011" lon="-1.85381">
        <ele>23.23</ele>
        <time>2024-07-03T14:55:05Z</time>
      </trkpt>
      <trkpt lat="46.61012" lon="-1.85384">
        <ele>23.24</ele>
        <time>2024-07-03T14:55:06Z</time>
      </trkpt>
      <trkpt lat="46.61013" lon="-1.85388">
        <ele>23.24</ele>
        <time>2024-07-03T14:55:07Z</time>
      </trkpt>
      <trkpt lat="46.61014" lon="-1.85391">
        <ele>23.2</ele>
        <time>2024-07-03T14:55:08Z</time>
      </trkpt>
      <trkpt lat="46.61015" lon="-1.85395">
        <ele>23.18</ele>
        <time>2024-07-03T14:55:09Z</time>
      </trkpt>
      <trkpt lat="46.6102" lon="-1.85432">
        <ele>23.32</ele>
        <time>2024-07-03T14:55:20Z</time>
      </trkpt>
      <trkpt lat="46.61023" lon="-1.85433">
        <ele>23.33</ele>
        <time>2024-07-03T14:55:21Z</time>
      </trkpt>
      <trkpt lat="46.61025" lon="-1.85434">
        <ele>23.33</ele>
        <time>2024-07-03T14:55:22Z</time>
      </trkpt>
      <trkpt lat="46.61028" lon="-1.85434">
        <ele>23.42</ele>
        <time>2024-07-03T14:55:23Z</time>
      </trkpt>
      <trkpt lat="46.61031" lon="-1.85435">
        <ele>23.54</ele>
        <time>2024-07-03T14:55:24Z</time>
      </trkpt>
      <trkpt lat="46.61072" lon="-1.85456">
        <ele>24.44</ele>
        <time>2024-07-03T14:55:39Z</time>
      </trkpt>
      <trkpt lat="46.61099" lon="-1.85482">
        <ele>24.4</ele>
        <time>2024-07-03T14:55:50Z</time>
      </trkpt>
      <trkpt lat="46.61111" lon="-1.85497">
        <ele>24.54</ele>
        <time>2024-07-03T14:55:56Z</time>
      </trkpt>
      <trkpt lat="46.61115" lon="-1.85498">
        <ele>24.67</ele>
        <time>2024-07-03T14:55:57Z</time>
      </trkpt>
      <trkpt lat="46.61125" lon="-1.85502">
        <ele>24.77</ele>
        <time>2024-07-03T14:55:59Z</time>
      </trkpt>
      <trkpt lat="46.61129" lon="-1.85505">
        <ele>24.79</ele>
        <time>2024-07-03T14:56:00Z</time>
      </trkpt>
      <trkpt lat="46.61132" lon="-1.85511">
        <ele>24.8</ele>
        <time>2024-07-03T14:56:01Z</time>
      </trkpt>
      <trkpt lat="46.61133" lon="-1.85517">
        <ele>24.8</ele>
        <time>2024-07-03T14:56:02Z</time>
      </trkpt>
      <trkpt lat="46.61135" lon="-1.85522">
        <ele>24.8</ele>
        <time>2024-07-03T14:56:03Z</time>
      </trkpt>
      <trkpt lat="46.61137" lon="-1.85527">
        <ele>24.8</ele>
        <time>2024-07-03T14:56:04Z</time>
      </trkpt>
      <trkpt lat="46.61139" lon="-1.85531">
        <ele>24.8</ele>
        <time>2024-07-03T14:56:05Z</time>
      </trkpt>
      <trkpt lat="46.61151" lon="-1.85545">
        <ele>24.51</ele>
        <time>2024-07-03T14:56:11Z</time>
      </trkpt>
      <trkpt lat="46.61153" lon="-1.85545">
        <ele>24.5</ele>
        <time>2024-07-03T14:56:12Z</time>
      </trkpt>
      <trkpt lat="46.61156" lon="-1.85546">
        <ele>24.5</ele>
        <time>2024-07-03T14:56:13Z</time>
      </trkpt>
      <trkpt lat="46.61181" lon="-1.85577">
        <ele>24.88</ele>
        <time>2024-07-03T14:56:23Z</time>
      </trkpt>
      <trkpt lat="46.61183" lon="-1.85588">
        <ele>24.95</ele>
        <time>2024-07-03T14:56:25Z</time>
      </trkpt>
      <trkpt lat="46.61183" lon="-1.856">
        <ele>24.96</ele>
        <time>2024-07-03T14:56:27Z</time>
      </trkpt>
      <trkpt lat="46.61185" lon="-1.85612">
        <ele>24.88</ele>
        <time>2024-07-03T14:56:29Z</time>
      </trkpt>
      <trkpt lat="46.61186" lon="-1.85619">
        <ele>24.81</ele>
        <time>2024-07-03T14:56:30Z</time>
      </trkpt>
      <trkpt lat="46.61192" lon="-1.85664">
        <ele>24.38</ele>
        <time>2024-07-03T14:56:37Z</time>
      </trkpt>
      <trkpt lat="46.61194" lon="-1.8567">
        <ele>24.37</ele>
        <time>2024-07-03T14:56:38Z</time>
      </trkpt>
      <trkpt lat="46.61214" lon="-1.85735">
        <ele>24.34</ele>
        <time>2024-07-03T14:56:51Z</time>
      </trkpt>
      <trkpt lat="46.61216" lon="-1.85746">
        <ele>24.32</ele>
        <time>2024-07-03T14:56:53Z</time>
      </trkpt>
      <trkpt lat="46.61223" lon="-1.85791">
        <ele>24.2</ele>
        <time>2024-07-03T14:57:02Z</time>
      </trkpt>
      <trkpt lat="46.61226" lon="-1.85826">
        <ele>24.11</ele>
        <time>2024-07-03T14:57:06Z</time>
      </trkpt>
      <trkpt lat="46.61228" lon="-1.85834">
        <ele>24.07</ele>
        <time>2024-07-03T14:57:07Z</time>
      </trkpt>
      <trkpt lat="46.61231" lon="-1.85842">
        <ele>23.89</ele>
        <time>2024-07-03T14:57:08Z</time>
      </trkpt>
      <trkpt lat="46.6125" lon="-1.85894">
        <ele>21.94</ele>
        <time>2024-07-03T14:57:18Z</time>
      </trkpt>
      <trkpt lat="46.61256" lon="-1.85944">
        <ele>23.25</ele>
        <time>2024-07-03T14:57:29Z</time>
      </trkpt>
      <trkpt lat="46.61275" lon="-1.86">
        <ele>23.55</ele>
        <time>2024-07-03T14:57:40Z</time>
      </trkpt>
      <trkpt lat="46.61278" lon="-1.86005">
        <ele>23.44</ele>
        <time>2024-07-03T14:57:41Z</time>
      </trkpt>
      <trkpt lat="46.61297" lon="-1.86045">
        <ele>21.54</ele>
        <time>2024-07-03T14:57:50Z</time>
      </trkpt>
      <trkpt lat="46.61299" lon="-1.86047">
        <ele>21.05</ele>
        <time>2024-07-03T14:57:52Z</time>
      </trkpt>
      <trkpt lat="46.61301" lon="-1.8605">
        <ele>20.76</ele>
        <time>2024-07-03T14:57:53Z</time>
      </trkpt>
      <trkpt lat="46.61324" lon="-1.86072">
        <ele>19.36</ele>
        <time>2024-07-03T14:58:02Z</time>
      </trkpt>
      <trkpt lat="46.61327" lon="-1.8607">
        <ele>19.33</ele>
        <time>2024-07-03T14:58:03Z</time>
      </trkpt>
      <trkpt lat="46.6133" lon="-1.86068">
        <ele>19.32</ele>
        <time>2024-07-03T14:58:04Z</time>
      </trkpt>
      <trkpt lat="46.61332" lon="-1.86066">
        <ele>19.15</ele>
        <time>2024-07-03T14:58:05Z</time>
      </trkpt>
      <trkpt lat="46.61334" lon="-1.86064">
        <ele>19.09</ele>
        <time>2024-07-03T14:58:06Z</time>
      </trkpt>
      <trkpt lat="46.61335" lon="-1.86064">
        <ele>19.02</ele>
        <time>2024-07-03T14:58:07Z</time>
      </trkpt>
      <trkpt lat="46.61334" lon="-1.86063">
        <ele>17.89</ele>
        <time>2024-07-03T14:58:44Z</time>
      </trkpt>
      <trkpt lat="46.61336" lon="-1.86062">
        <ele>17.71</ele>
        <time>2024-07-03T14:59:49Z</time>
      </trkpt>
      <trkpt lat="46.61337" lon="-1.8606">
        <ele>17.87</ele>
        <time>2024-07-03T14:59:50Z</time>
      </trkpt>
      <trkpt lat="46.61339" lon="-1.86058">
        <ele>18.15</ele>
        <time>2024-07-03T14:59:51Z</time>
      </trkpt>
      <trkpt lat="46.61364" lon="-1.86014">
        <ele>18.91</ele>
        <time>2024-07-03T15:00:03Z</time>
      </trkpt>
      <trkpt lat="46.61383" lon="-1.85964">
        <ele>19.84</ele>
        <time>2024-07-03T15:00:14Z</time>
      </trkpt>
      <trkpt lat="46.61409" lon="-1.85893">
        <ele>21.1</ele>
        <time>2024-07-03T15:00:26Z</time>
      </trkpt>
      <trkpt lat="46.61436" lon="-1.85855">
        <ele>21.54</ele>
        <time>2024-07-03T15:00:37Z</time>
      </trkpt>
      <trkpt lat="46.61476" lon="-1.85801">
        <ele>22.28</ele>
        <time>2024-07-03T15:00:51Z</time>
      </trkpt>
      <trkpt lat="46.61501" lon="-1.85772">
        <ele>22.88</ele>
        <time>2024-07-03T15:01:01Z</time>
      </trkpt>
      <trkpt lat="46.61508" lon="-1.85777">
        <ele>23.02</ele>
        <time>2024-07-03T15:01:03Z</time>
      </trkpt>
      <trkpt lat="46.61511" lon="-1.85781">
        <ele>23.05</ele>
        <time>2024-07-03T15:01:04Z</time>
      </trkpt>
      <trkpt lat="46.61513" lon="-1.85787">
        <ele>23.06</ele>
        <time>2024-07-03T15:01:05Z</time>
      </trkpt>
      <trkpt lat="46.61517" lon="-1.85799">
        <ele>23.07</ele>
        <time>2024-07-03T15:01:07Z</time>
      </trkpt>
      <trkpt lat="46.6152" lon="-1.85805">
        <ele>23.07</ele>
        <time>2024-07-03T15:01:08Z</time>
      </trkpt>
      <trkpt lat="46.61524" lon="-1.8581">
        <ele>23.04</ele>
        <time>2024-07-03T15:01:09Z</time>
      </trkpt>
      <trkpt lat="46.61532" lon="-1.8582">
        <ele>23.01</ele>
        <time>2024-07-03T15:01:11Z</time>
      </trkpt>
      <trkpt lat="46.61555" lon="-1.8586">
        <ele>19.48</ele>
        <time>2024-07-03T15:01:18Z</time>
      </trkpt>
      <trkpt lat="46.61564" lon="-1.8588">
        <ele>18.3</ele>
        <time>2024-07-03T15:01:22Z</time>
      </trkpt>
      <trkpt lat="46.61577" lon="-1.85908">
        <ele>18.21</ele>
        <time>2024-07-03T15:01:27Z</time>
      </trkpt>
      <trkpt lat="46.61581" lon="-1.85914">
        <ele>18.21</ele>
        <time>2024-07-03T15:01:28Z</time>
      </trkpt>
      <trkpt lat="46.61588" lon="-1.85924">
        <ele>18.49</ele>
        <time>2024-07-03T15:01:30Z</time>
      </trkpt>
      <trkpt lat="46.61616" lon="-1.85962">
        <ele>19.81</ele>
        <time>2024-07-03T15:01:38Z</time>
      </trkpt>
      <trkpt lat="46.6162" lon="-1.85966">
        <ele>19.83</ele>
        <time>2024-07-03T15:01:39Z</time>
      </trkpt>
      <trkpt lat="46.61623" lon="-1.85971">
        <ele>19.86</ele>
        <time>2024-07-03T15:01:40Z</time>
      </trkpt>
      <trkpt lat="46.61627" lon="-1.85975">
        <ele>19.87</ele>
        <time>2024-07-03T15:01:41Z</time>
      </trkpt>
      <trkpt lat="46.6163" lon="-1.85979">
        <ele>19.88</ele>
        <time>2024-07-03T15:01:42Z</time>
      </trkpt>
      <trkpt lat="46.61659" lon="-1.86019">
        <ele>20.35</ele>
        <time>2024-07-03T15:01:53Z</time>
      </trkpt>
      <trkpt lat="46.6169" lon="-1.86064">
        <ele>20.49</ele>
        <time>2024-07-03T15:02:05Z</time>
      </trkpt>
      <trkpt lat="46.61713" lon="-1.86108">
        <ele>19.71</ele>
        <time>2024-07-03T15:02:15Z</time>
      </trkpt>
      <trkpt lat="46.61741" lon="-1.86163">
        <ele>20.09</ele>
        <time>2024-07-03T15:02:30Z</time>
      </trkpt>
      <trkpt lat="46.61757" lon="-1.86192">
        <ele>20.44</ele>
        <time>2024-07-03T15:02:39Z</time>
      </trkpt>
      <trkpt lat="46.61759" lon="-1.86195">
        <ele>20.45</ele>
        <time>2024-07-03T15:02:40Z</time>
      </trkpt>
      <trkpt lat="46.61761" lon="-1.86198">
        <ele>20.56</ele>
        <time>2024-07-03T15:02:41Z</time>
      </trkpt>
      <trkpt lat="46.61763" lon="-1.86201">
        <ele>20.66</ele>
        <time>2024-07-03T15:02:42Z</time>
      </trkpt>
      <trkpt lat="46.61764" lon="-1.86206">
        <ele>20.73</ele>
        <time>2024-07-03T15:02:43Z</time>
      </trkpt>
      <trkpt lat="46.61764" lon="-1.8621">
        <ele>20.76</ele>
        <time>2024-07-03T15:02:44Z</time>
      </trkpt>
      <trkpt lat="46.61765" lon="-1.86214">
        <ele>20.77</ele>
        <time>2024-07-03T15:02:45Z</time>
      </trkpt>
      <trkpt lat="46.61765" lon="-1.86219">
        <ele>20.78</ele>
        <time>2024-07-03T15:02:46Z</time>
      </trkpt>
      <trkpt lat="46.61769" lon="-1.86293">
        <ele>20.8</ele>
        <time>2024-07-03T15:03:02Z</time>
      </trkpt>
      <trkpt lat="46.61767" lon="-1.86347">
        <ele>20.78</ele>
        <time>2024-07-03T15:03:12Z</time>
      </trkpt>
      <trkpt lat="46.61791" lon="-1.86368">
        <ele>20.88</ele>
        <time>2024-07-03T15:03:20Z</time>
      </trkpt>
      <trkpt lat="46.6183" lon="-1.86351">
        <ele>21.25</ele>
        <time>2024-07-03T15:03:32Z</time>
      </trkpt>
      <trkpt lat="46.61831" lon="-1.86348">
        <ele>20.84</ele>
        <time>2024-07-03T15:03:48Z</time>
      </trkpt>
      <trkpt lat="46.61828" lon="-1.86352">
        <ele>20.42</ele>
        <time>2024-07-03T15:04:21Z</time>
      </trkpt>
      <trkpt lat="46.6183" lon="-1.86348">
        <ele>20.58</ele>
        <time>2024-07-03T15:04:48Z</time>
      </trkpt>
      <trkpt lat="46.61831" lon="-1.86351">
        <ele>20.72</ele>
        <time>2024-07-03T15:05:26Z</time>
      </trkpt>
      <trkpt lat="46.61834" lon="-1.86349">
        <ele>20.65</ele>
        <time>2024-07-03T15:05:35Z</time>
      </trkpt>
      <trkpt lat="46.61861" lon="-1.86338">
        <ele>20.42</ele>
        <time>2024-07-03T15:05:45Z</time>
      </trkpt>
      <trkpt lat="46.61906" lon="-1.86318">
        <ele>19.93</ele>
        <time>2024-07-03T15:05:58Z</time>
      </trkpt>
      <trkpt lat="46.61951" lon="-1.86296">
        <ele>19.73</ele>
        <time>2024-07-03T15:06:12Z</time>
      </trkpt>
      <trkpt lat="46.62007" lon="-1.86259">
        <ele>19.98</ele>
        <time>2024-07-03T15:06:27Z</time>
      </trkpt>
      <trkpt lat="46.6203" lon="-1.86241">
        <ele>19.95</ele>
        <time>2024-07-03T15:06:33Z</time>
      </trkpt>
      <trkpt lat="46.62034" lon="-1.86238">
        <ele>19.95</ele>
        <time>2024-07-03T15:06:34Z</time>
      </trkpt>
      <trkpt lat="46.62088" lon="-1.86186">
        <ele>20.02</ele>
        <time>2024-07-03T15:06:48Z</time>
      </trkpt>
      <trkpt lat="46.62149" lon="-1.8612">
        <ele>20.27</ele>
        <time>2024-07-03T15:07:04Z</time>
      </trkpt>
      <trkpt lat="46.6216" lon="-1.8611">
        <ele>20.43</ele>
        <time>2024-07-03T15:07:07Z</time>
      </trkpt>
      <trkpt lat="46.62164" lon="-1.86106">
        <ele>20.49</ele>
        <time>2024-07-03T15:07:08Z</time>
      </trkpt>
      <trkpt lat="46.62195" lon="-1.86059">
        <ele>21.24</ele>
        <time>2024-07-03T15:07:21Z</time>
      </trkpt>
      <trkpt lat="46.62226" lon="-1.85994">
        <ele>22.25</ele>
        <time>2024-07-03T15:07:36Z</time>
      </trkpt>
      <trkpt lat="46.62265" lon="-1.85956">
        <ele>22.42</ele>
        <time>2024-07-03T15:07:48Z</time>
      </trkpt>
      <trkpt lat="46.62306" lon="-1.85922">
        <ele>23.13</ele>
        <time>2024-07-03T15:08:03Z</time>
      </trkpt>
      <trkpt lat="46.62322" lon="-1.85903">
        <ele>23.78</ele>
        <time>2024-07-03T15:08:10Z</time>
      </trkpt>
      <trkpt lat="46.62331" lon="-1.85899">
        <ele>24.44</ele>
        <time>2024-07-03T15:08:21Z</time>
      </trkpt>
      <trkpt lat="46.62336" lon="-1.859">
        <ele>25.23</ele>
        <time>2024-07-03T15:09:25Z</time>
      </trkpt>
      <trkpt lat="46.6234" lon="-1.85898">
        <ele>25.3</ele>
        <time>2024-07-03T15:09:29Z</time>
      </trkpt>
      <trkpt lat="46.6234" lon="-1.85897">
        <ele>25.29</ele>
        <time>2024-07-03T15:09:30Z</time>
      </trkpt>
      <trkpt lat="46.62342" lon="-1.8589">
        <ele>25.25</ele>
        <time>2024-07-03T15:09:33Z</time>
      </trkpt>
      <trkpt lat="46.62346" lon="-1.85888">
        <ele>25.21</ele>
        <time>2024-07-03T15:09:36Z</time>
      </trkpt>
      <trkpt lat="46.62347" lon="-1.85888">
        <ele>25.08</ele>
        <time>2024-07-03T15:09:52Z</time>
      </trkpt>
      <trkpt lat="46.62351" lon="-1.85887">
        <ele>25.04</ele>
        <time>2024-07-03T15:09:56Z</time>
      </trkpt>
      <trkpt lat="46.62353" lon="-1.85886">
        <ele>25.04</ele>
        <time>2024-07-03T15:09:57Z</time>
      </trkpt>
      <trkpt lat="46.62355" lon="-1.85883">
        <ele>25.04</ele>
        <time>2024-07-03T15:09:58Z</time>
      </trkpt>
      <trkpt lat="46.62357" lon="-1.85881">
        <ele>25.04</ele>
        <time>2024-07-03T15:09:59Z</time>
      </trkpt>
      <trkpt lat="46.6236" lon="-1.85877">
        <ele>25.04</ele>
        <time>2024-07-03T15:10:00Z</time>
      </trkpt>
      <trkpt lat="46.62363" lon="-1.85875">
        <ele>25.04</ele>
        <time>2024-07-03T15:10:01Z</time>
      </trkpt>
      <trkpt lat="46.62365" lon="-1.85873">
        <ele>25.04</ele>
        <time>2024-07-03T15:10:02Z</time>
      </trkpt>
      <trkpt lat="46.62368" lon="-1.8587">
        <ele>25.04</ele>
        <time>2024-07-03T15:10:03Z</time>
      </trkpt>
      <trkpt lat="46.6237" lon="-1.85868">
        <ele>25.04</ele>
        <time>2024-07-03T15:10:04Z</time>
      </trkpt>
      <trkpt lat="46.62373" lon="-1.85867">
        <ele>25.04</ele>
        <time>2024-07-03T15:10:05Z</time>
      </trkpt>
      <trkpt lat="46.62419" lon="-1.85835">
        <ele>23.84</ele>
        <time>2024-07-03T15:10:18Z</time>
      </trkpt>
      <trkpt lat="46.62438" lon="-1.85822">
        <ele>23.42</ele>
        <time>2024-07-03T15:10:23Z</time>
      </trkpt>
      <trkpt lat="46.62441" lon="-1.8582">
        <ele>23.36</ele>
        <time>2024-07-03T15:10:24Z</time>
      </trkpt>
      <trkpt lat="46.62445" lon="-1.85817">
        <ele>23.29</ele>
        <time>2024-07-03T15:10:25Z</time>
      </trkpt>
      <trkpt lat="46.62488" lon="-1.85789">
        <ele>22.69</ele>
        <time>2024-07-03T15:10:37Z</time>
      </trkpt>
      <trkpt lat="46.62509" lon="-1.85777">
        <ele>22.96</ele>
        <time>2024-07-03T15:10:45Z</time>
      </trkpt>
      <trkpt lat="46.62545" lon="-1.85763">
        <ele>23.56</ele>
        <time>2024-07-03T15:10:56Z</time>
      </trkpt>
      <trkpt lat="46.62559" lon="-1.85756">
        <ele>23.88</ele>
        <time>2024-07-03T15:11:01Z</time>
      </trkpt>
      <trkpt lat="46.62562" lon="-1.85754">
        <ele>23.91</ele>
        <time>2024-07-03T15:11:02Z</time>
      </trkpt>
      <trkpt lat="46.62564" lon="-1.85752">
        <ele>23.96</ele>
        <time>2024-07-03T15:11:03Z</time>
      </trkpt>
      <trkpt lat="46.62567" lon="-1.85751">
        <ele>23.99</ele>
        <time>2024-07-03T15:11:04Z</time>
      </trkpt>
      <trkpt lat="46.6257" lon="-1.85749">
        <ele>24.13</ele>
        <time>2024-07-03T15:11:05Z</time>
      </trkpt>
      <trkpt lat="46.62578" lon="-1.8574">
        <ele>24.39</ele>
        <time>2024-07-03T15:11:10Z</time>
      </trkpt>
      <trkpt lat="46.62601" lon="-1.85715">
        <ele>24.8</ele>
        <time>2024-07-03T15:11:21Z</time>
      </trkpt>
      <trkpt lat="46.62624" lon="-1.85697">
        <ele>25.13</ele>
        <time>2024-07-03T15:11:32Z</time>
      </trkpt>
      <trkpt lat="46.62634" lon="-1.85683">
        <ele>25.6</ele>
        <time>2024-07-03T15:11:40Z</time>
      </trkpt>
      <trkpt lat="46.62639" lon="-1.8567">
        <ele>25.83</ele>
        <time>2024-07-03T15:12:20Z</time>
      </trkpt>
      <trkpt lat="46.6264" lon="-1.85666">
        <ele>25.83</ele>
        <time>2024-07-03T15:12:21Z</time>
      </trkpt>
      <trkpt lat="46.62642" lon="-1.85661">
        <ele>25.82</ele>
        <time>2024-07-03T15:12:22Z</time>
      </trkpt>
      <trkpt lat="46.62644" lon="-1.85656">
        <ele>25.83</ele>
        <time>2024-07-03T15:12:23Z</time>
      </trkpt>
      <trkpt lat="46.62646" lon="-1.85652">
        <ele>25.83</ele>
        <time>2024-07-03T15:12:24Z</time>
      </trkpt>
      <trkpt lat="46.62647" lon="-1.85647">
        <ele>25.82</ele>
        <time>2024-07-03T15:12:25Z</time>
      </trkpt>
      <trkpt lat="46.62648" lon="-1.85642">
        <ele>25.81</ele>
        <time>2024-07-03T15:12:26Z</time>
      </trkpt>
      <trkpt lat="46.62649" lon="-1.85638">
        <ele>25.8</ele>
        <time>2024-07-03T15:12:27Z</time>
      </trkpt>
      <trkpt lat="46.62664" lon="-1.85601">
        <ele>25.68</ele>
        <time>2024-07-03T15:12:38Z</time>
      </trkpt>
      <trkpt lat="46.62669" lon="-1.85602">
        <ele>25.79</ele>
        <time>2024-07-03T15:12:48Z</time>
      </trkpt>
      <trkpt lat="46.62672" lon="-1.85602">
        <ele>25.81</ele>
        <time>2024-07-03T15:12:49Z</time>
      </trkpt>
      <trkpt lat="46.62674" lon="-1.85602">
        <ele>25.83</ele>
        <time>2024-07-03T15:12:50Z</time>
      </trkpt>
      <trkpt lat="46.62676" lon="-1.85602">
        <ele>25.85</ele>
        <time>2024-07-03T15:12:51Z</time>
      </trkpt>
      <trkpt lat="46.62677" lon="-1.85602">
        <ele>25.86</ele>
        <time>2024-07-03T15:12:52Z</time>
      </trkpt>
      <trkpt lat="46.62681" lon="-1.85595">
        <ele>25.97</ele>
        <time>2024-07-03T15:12:57Z</time>
      </trkpt>
      <trkpt lat="46.62682" lon="-1.85592">
        <ele>25.98</ele>
        <time>2024-07-03T15:12:58Z</time>
      </trkpt>
      <trkpt lat="46.62684" lon="-1.8559">
        <ele>25.98</ele>
        <time>2024-07-03T15:12:59Z</time>
      </trkpt>
      <trkpt lat="46.62686" lon="-1.8559">
        <ele>25.98</ele>
        <time>2024-07-03T15:13:00Z</time>
      </trkpt>
      <trkpt lat="46.62687" lon="-1.85591">
        <ele>26.06</ele>
        <time>2024-07-03T15:13:01Z</time>
      </trkpt>
      <trkpt lat="46.62688" lon="-1.85593">
        <ele>26.1</ele>
        <time>2024-07-03T15:13:02Z</time>
      </trkpt>
      <trkpt lat="46.62691" lon="-1.85596">
        <ele>26.2</ele>
        <time>2024-07-03T15:13:03Z</time>
      </trkpt>
      <trkpt lat="46.62714" lon="-1.85628">
        <ele>26.84</ele>
        <time>2024-07-03T15:13:15Z</time>
      </trkpt>
      <trkpt lat="46.62747" lon="-1.85662">
        <ele>27.49</ele>
        <time>2024-07-03T15:13:29Z</time>
      </trkpt>
      <trkpt lat="46.6275" lon="-1.85664">
        <ele>27.58</ele>
        <time>2024-07-03T15:13:30Z</time>
      </trkpt>
      <trkpt lat="46.62752" lon="-1.85667">
        <ele>27.65</ele>
        <time>2024-07-03T15:13:31Z</time>
      </trkpt>
      <trkpt lat="46.62755" lon="-1.8567">
        <ele>27.67</ele>
        <time>2024-07-03T15:13:32Z</time>
      </trkpt>
      <trkpt lat="46.62757" lon="-1.85672">
        <ele>27.68</ele>
        <time>2024-07-03T15:13:33Z</time>
      </trkpt>
      <trkpt lat="46.6276" lon="-1.85673">
        <ele>27.7</ele>
        <time>2024-07-03T15:13:34Z</time>
      </trkpt>
      <trkpt lat="46.62762" lon="-1.85673">
        <ele>27.71</ele>
        <time>2024-07-03T15:13:35Z</time>
      </trkpt>
      <trkpt lat="46.62765" lon="-1.85672">
        <ele>27.72</ele>
        <time>2024-07-03T15:13:36Z</time>
      </trkpt>
      <trkpt lat="46.62768" lon="-1.8567">
        <ele>27.72</ele>
        <time>2024-07-03T15:13:37Z</time>
      </trkpt>
      <trkpt lat="46.62777" lon="-1.85667">
        <ele>27.7</ele>
        <time>2024-07-03T15:13:40Z</time>
      </trkpt>
      <trkpt lat="46.62779" lon="-1.85669">
        <ele>27.7</ele>
        <time>2024-07-03T15:13:41Z</time>
      </trkpt>
      <trkpt lat="46.62781" lon="-1.85672">
        <ele>27.71</ele>
        <time>2024-07-03T15:13:42Z</time>
      </trkpt>
      <trkpt lat="46.62782" lon="-1.85674">
        <ele>27.72</ele>
        <time>2024-07-03T15:13:43Z</time>
      </trkpt>
      <trkpt lat="46.62783" lon="-1.85676">
        <ele>27.74</ele>
        <time>2024-07-03T15:13:44Z</time>
      </trkpt>
      <trkpt lat="46.62794" lon="-1.85696">
        <ele>28.13</ele>
        <time>2024-07-03T15:13:55Z</time>
      </trkpt>
      <trkpt lat="46.62795" lon="-1.85702">
        <ele>28.21</ele>
        <time>2024-07-03T15:14:20Z</time>
      </trkpt>
      <trkpt lat="46.62798" lon="-1.85705">
        <ele>28.18</ele>
        <time>2024-07-03T15:14:23Z</time>
      </trkpt>
      <trkpt lat="46.628" lon="-1.85707">
        <ele>28.17</ele>
        <time>2024-07-03T15:14:24Z</time>
      </trkpt>
      <trkpt lat="46.62807" lon="-1.85712">
        <ele>28.17</ele>
        <time>2024-07-03T15:14:27Z</time>
      </trkpt>
      <trkpt lat="46.62809" lon="-1.85711">
        <ele>28.17</ele>
        <time>2024-07-03T15:14:28Z</time>
      </trkpt>
      <trkpt lat="46.62811" lon="-1.85709">
        <ele>28.17</ele>
        <time>2024-07-03T15:14:29Z</time>
      </trkpt>
      <trkpt lat="46.62818" lon="-1.85704">
        <ele>28.17</ele>
        <time>2024-07-03T15:14:32Z</time>
      </trkpt>
      <trkpt lat="46.62819" lon="-1.85703">
        <ele>28.17</ele>
        <time>2024-07-03T15:14:33Z</time>
      </trkpt>
      <trkpt lat="46.62827" lon="-1.85702">
        <ele>28.21</ele>
        <time>2024-07-03T15:14:41Z</time>
      </trkpt>
      <trkpt lat="46.62828" lon="-1.85701">
        <ele>28.25</ele>
        <time>2024-07-03T15:14:42Z</time>
      </trkpt>
      <trkpt lat="46.62833" lon="-1.85702">
        <ele>28.4</ele>
        <time>2024-07-03T15:14:46Z</time>
      </trkpt>
      <trkpt lat="46.62834" lon="-1.85702">
        <ele>28.49</ele>
        <time>2024-07-03T15:14:47Z</time>
      </trkpt>
      <trkpt lat="46.62837" lon="-1.85701">
        <ele>28.6</ele>
        <time>2024-07-03T15:14:49Z</time>
      </trkpt>
      <trkpt lat="46.62841" lon="-1.85702">
        <ele>28.86</ele>
        <time>2024-07-03T15:15:07Z</time>
      </trkpt>
      <trkpt lat="46.62841" lon="-1.85706">
        <ele>28.95</ele>
        <time>2024-07-03T15:15:44Z</time>
      </trkpt>
      <trkpt lat="46.62843" lon="-1.85708">
        <ele>29.02</ele>
        <time>2024-07-03T15:16:15Z</time>
      </trkpt>
      <trkpt lat="46.62847" lon="-1.85707">
        <ele>28.71</ele>
        <time>2024-07-03T15:17:01Z</time>
      </trkpt>
      <trkpt lat="46.62849" lon="-1.85707">
        <ele>28.56</ele>
        <time>2024-07-03T15:17:22Z</time>
      </trkpt>
      <trkpt lat="46.62857" lon="-1.85706">
        <ele>28.8</ele>
        <time>2024-07-03T15:18:47Z</time>
      </trkpt>
      <trkpt lat="46.62857" lon="-1.85703">
        <ele>28.91</ele>
        <time>2024-07-03T15:19:05Z</time>
      </trkpt>
      <trkpt lat="46.62842" lon="-1.85703">
        <ele>28.89</ele>
        <time>2024-07-03T15:19:19Z</time>
      </trkpt>
      <trkpt lat="46.62838" lon="-1.85702">
        <ele>28.72</ele>
        <time>2024-07-03T15:19:51Z</time>
      </trkpt>
      <trkpt lat="46.62838" lon="-1.85703">
        <ele>28.74</ele>
        <time>2024-07-03T15:20:21Z</time>
      </trkpt>
      <trkpt lat="46.62835" lon="-1.857">
        <ele>29.37</ele>
        <time>2024-07-03T15:20:58Z</time>
      </trkpt>
      <trkpt lat="46.62824" lon="-1.857">
        <ele>29.25</ele>
        <time>2024-07-03T15:21:13Z</time>
      </trkpt>
      <trkpt lat="46.62823" lon="-1.85699">
        <ele>28.88</ele>
        <time>2024-07-03T15:21:25Z</time>
      </trkpt>
    </trkseg>
  </trk>
</gpx>